[[{"header":{"parameterUnit":"m.s-1","parameterCategory":1,"la1":30.6,"la2":28.766,"lo1":-90.7593,"lo2":-88.6598,"dx":0.0162,"dy":0.0183,"nx":116,"ny":114,"refTime":"2023-01-31T18:00:00:Z","depth":0,"parameterNumber":2,"parameterNumberName":"U-component_of_WINDS"},"data":[0.0,0.0,0.0,0.0,0.0,0.0,0.0,0.0,0.0,0.0,0.0,0.0,0.0,0.0,0.0,0.0,0.0,0.0,0.0,0.0,0.0,0.0,0.0,0.0,0.0,0.0,0.0,0.0,0.0,0.0,0.0,0.0,0.0,0.0,0.0,0.0,0.0,0.0,0.0,0.0,0.0,0.0,0.0,0.0,0.0,0.0,0.0,0.0,0.0,0.0,0.0,0.0,0.0,0.0,0.0,0.0,0.0,0.0,0.0,0.0,0.0,0.0,0.0,0.0,0.0,0.0,0.0,0.0,0.0,0.0,0.0,0.0,0.0,0.0,0.0,0.0,0.0,0.0,0.0,0.0,0.0,0.0,0.0,0.0,0.0,0.0,0.0,0.0,0.0,0.0,0.0,0.0,0.0,0.0,0.0,0.0,0.0,0.0,0.0,0.0,0.0,0.0,0.0,0.0,0.0,0.0,0.0,0.0,0.0,0.0,0.0,0.0,0.0,0.0,0.0,0.0,0.0,0.0,0.0,0.0,0.0,0.0,0.0,0.0,0.0,0.0,0.0,0.0,0.0,0.0,0.0,0.0,0.0,0.0,0.0,0.0,0.0,0.0,0.0,0.0,0.0,0.0,0.0,0.0,0.0,0.0,0.0,0.0,0.0,0.0,0.0,0.0,0.0,0.0,0.0,0.0,0.0,0.0,0.0,0.0,0.0,0.0,0.0,0.0,0.0,0.0,0.0,0.0,0.0,0.0,0.0,0.0,0.0,0.0,0.0,0.0,0.0,0.0,0.0,0.0,0.0,0.0,0.0,0.0,0.0,0.0,0.0,0.0,0.0,0.0,0.0,0.0,0.0,0.0,0.0,0.0,0.0,0.0,0.0,0.0,0.0,0.0,0.0,0.0,0.0,0.0,0.0,0.0,0.0,0.0,0.0,0.0,0.0,0.0,0.0,0.0,0.0,0.0,0.0,0.0,0.0,0.0,0.0,0.0,0.0,0.0,0.0,0.0,0.0,0.0,0.0,0.0,0.0,0.0,0.0,0.0,0.0,0.0,0.0,0.0,0.0,0.0,0.0,0.0,0.0,0.0,0.0,0.0,0.0,0.0,0.0,0.0,0.0,0.0,0.0,0.0,0.0,0.0,0.0,0.0,0.0,0.0,0.0,0.0,0.0,0.0,0.0,0.0,0.0,0.0,0.0,0.0,0.0,0.0,0.0,0.0,0.0,0.0,0.0,0.0,0.0,0.0,0.0,0.0,0.0,0.0,0.0,0.0,0.0,0.0,0.0,0.0,0.0,0.0,0.0,0.0,0.0,0.0,0.0,0.0,0.0,0.0,0.0,0.0,0.0,0.0,0.0,0.0,0.0,0.0,0.0,0.0,0.0,0.0,0.0,0.0,0.0,0.0,0.0,0.0,0.0,0.0,0.0,0.0,0.0,0.0,0.0,0.0,0.0,0.0,0.0,0.0,0.0,0.0,0.0,0.0,0.0,0.0,0.0,0.0,0.0,0.0,0.0,0.0,0.0,0.0,0.0,0.0,0.0,0.0,0.0,0.0,0.0,0.0,0.0,0.0,0.0,0.0,0.0,0.0,0.0,0.0,0.0,0.0,0.0,0.0,0.0,0.0,0.0,0.0,0.0,0.0,0.0,0.0,0.0,0.0,0.0,0.0,0.0,0.0,0.0,0.0,0.0,0.0,0.0,0.0,0.0,0.0,0.0,0.0,0.0,0.0,0.0,0.0,0.0,0.0,0.0,0.0,0.0,0.0,0.0,0.0,0.0,0.0,0.0,0.0,0.0,0.0,0.0,0.0,0.0,0.0,0.0,0.0,0.0,0.0,0.0,0.0,0.0,0.0,0.0,0.0,0.0,0.0,0.0,0.0,0.0,0.0,0.0,0.0,0.0,0.0,0.0,0.0,0.0,0.0,0.0,0.0,0.0,0.0,0.0,0.0,0.0,0.0,0.0,0.0,0.0,0.0,0.0,0.0,0.0,0.0,0.0,0.0,0.0,0.0,0.0,0.0,0.0,0.0,0.0,0.0,0.0,0.0,0.0,0.0,0.0,0.0,0.0,0.0,0.0,0.0,0.0,0.0,0.0,0.0,0.0,0.0,0.0,0.0,0.0,0.0,0.0,0.0,0.0,0.0,0.0,0.0,0.0,0.0,0.0,0.0,0.0,0.0,0.0,0.0,0.0,0.0,0.0,0.0,0.0,0.0,0.0,0.0,0.0,0.0,0.0,0.0,0.0,0.0,0.0,0.0,0.0,0.0,0.0,0.0,0.0,0.0,0.0,0.0,0.0,0.0,0.0,0.0,0.0,0.0,0.0,0.0,0.0,0.0,0.0,0.0,0.0,0.0,0.0,0.0,0.0,0.0,0.0,0.0,0.0,0.0,0.0,0.0,0.0,0.0,0.0,0.0,0.0,0.0,0.0,0.0,0.0,0.0,0.0,0.0,0.0,0.0,0.0,0.0,0.0,0.0,0.0,0.0,0.0,0.0,0.0,0.0,0.0,0.0,0.0,0.0,0.0,0.0,0.0,0.0,0.0,0.0,0.0,0.0,0.0,0.0,0.0,0.0,0.0,0.0,0.0,0.0,0.0,0.0,0.0,0.0,0.0,0.0,0.0,0.0,0.0,0.0,0.0,0.0,0.0,0.0,0.0,0.0,0.0,0.0,0.0,0.0,0.0,0.0,0.0,0.0,0.0,0.0,0.0,0.0,0.0,0.0,0.0,0.0,0.0,0.0,0.0,0.0,0.0,0.0,0.0,0.0,0.0,0.0,0.0,0.0,0.0,0.0,0.0,0.0,0.0,0.0,0.0,0.0,0.0,0.0,0.0,0.0,0.0,0.0,0.0,0.0,0.0,0.0,0.0,0.0,0.0,0.0,0.0,0.0,0.0,0.0,0.0,0.0,0.0,0.0,0.0,0.0,0.0,0.0,0.0,0.0,0.0,0.0,0.0,0.0,0.0,0.0,0.0,0.0,0.0,0.0,0.0,0.0,0.0,0.0,0.0,0.0,0.0,0.0,0.0,0.0,0.0,0.0,0.0,0.0,0.0,0.0,0.0,0.0,0.0,0.0,0.0,0.0,0.0,0.0,0.0,0.0,0.0,0.0,0.0,0.0,0.0,0.0,0.0,0.0,0.0,0.0,0.0,0.0,0.0,0.0,0.0,0.0,0.0,0.0,0.0,0.0,0.0,0.0,0.0,0.0,0.0,0.0,0.0,0.0,0.0,0.0,0.0,0.0,0.0,0.0,0.0,0.0,0.0,0.0,0.0,0.0,0.0,0.0,0.0,0.0,0.0,0.0,0.0,0.0,0.0,0.0,0.0,0.0,0.0,0.0,0.0,0.0,0.0,0.0,0.0,0.0,0.0,0.0,0.0,0.0,0.0,0.0,0.0,0.0,0.0,0.0,0.0,0.0,0.0,0.0,0.0,0.0,0.0,0.0,0.0,0.0,0.0,0.0,0.0,0.0,0.0,0.0,0.0,0.0,0.0,0.0,0.0,0.0,0.0,0.0,0.0,0.0,0.0,0.0,0.0,0.0,0.0,0.0,0.0,0.0,0.0,0.0,0.0,0.0,0.0,0.0,0.0,0.0,0.0,0.0,0.0,0.0,0.0,0.0,0.0,0.0,0.0,0.0,0.0,0.0,0.0,0.0,0.0,0.0,0.0,0.0,0.0,0.0,0.0,0.0,0.0,0.0,0.0,0.0,0.0,0.0,0.0,0.0,0.0,0.0,0.0,0.0,0.0,0.0,0.0,0.0,0.0,0.0,0.0,0.0,0.0,0.0,0.0,0.0,0.0,0.0,0.0,0.0,0.0,0.0,0.0,0.0,0.0,0.0,0.0,0.0,0.0,0.0,0.0,0.0,0.0,0.0,0.0,0.0,0.0,0.0,0.0,0.0,0.0,0.0,0.0,0.0,0.0,0.0,0.0,0.0,0.0,0.0,0.0,0.0,0.0,0.0,0.0,0.0,0.0,0.0,0.0,0.0,0.0,0.0,0.0,0.0,0.0,0.0,0.0,0.0,0.0,0.0,0.0,0.0,0.0,0.0,0.0,0.0,0.0,0.0,0.0,0.0,0.0,0.0,0.0,0.0,0.0,0.0,0.0,0.0,0.0,0.0,0.0,0.0,0.0,0.0,0.0,0.0,0.0,0.0,0.0,0.0,0.0,0.0,0.0,0.0,0.0,0.0,0.0,0.0,0.0,0.0,0.0,0.0,0.0,0.0,0.0,0.0,0.0,0.0,0.0,0.0,0.0,0.0,0.0,0.0,0.0,0.0,0.0,0.0,0.0,0.0,0.0,0.0,0.0,0.0,0.0,0.0,0.0,0.0,0.0,0.0,0.0,0.0,0.0,0.0,0.0,0.0,0.0,0.0,0.0,0.0,0.0,0.0,0.0,0.0,0.0,0.0,0.0,0.0,0.0,0.0,0.0,0.0,0.0,0.0,0.0,0.0,0.0,0.0,0.0,0.0,0.0,0.0,0.0,0.0,0.0,0.0,0.0,0.0,0.0,0.0,0.0,0.0,0.0,0.0,0.0,0.0,0.0,0.0,0.0,0.0,0.0,0.0,0.0,0.0,0.0,0.0,0.0,0.0,0.0,0.0,0.0,0.0,0.0,0.0,0.0,0.0,0.0,0.0,0.0,0.0,0.0,0.0,0.0,0.0,0.0,0.0,0.0,0.0,0.0,0.0,0.0,0.0,0.0,0.0,0.0,0.0,0.0,0.0,0.0,0.0,0.0,0.0,0.0,0.0,0.0,0.0,0.0,0.0,0.0,0.0,0.0,0.0,0.0,0.0,0.0,0.0,0.0,0.0,0.0,0.0,0.0,0.0,0.0,0.0,0.0,0.0,0.0,0.0,0.0,0.0,0.0,0.0,0.0,0.0,0.0,0.0,0.0,0.0,0.0,0.0,0.0,0.0,0.0,0.0,0.0,0.0,0.0,0.0,0.0,0.0,0.0,0.0,0.0,0.0,0.0,0.0,0.0,0.0,0.0,0.0,0.0,0.0,0.0,0.0,0.0,0.0,0.0,0.0,0.0,0.0,0.0,0.0,0.0,0.0,0.0,0.0,0.0,0.0,0.0,0.0,0.0,0.0,0.0,0.0,0.0,0.0,0.0,0.0,0.0,0.0,0.0,0.0,0.0,0.0,0.0,0.0,0.0,0.0,0.0,0.0,0.0,0.0,0.0,0.0,0.0,0.0,0.0,0.0,0.0,0.0,0.0,0.0,0.0,0.0,0.0,0.0,0.0,0.0,0.0,0.0,0.0,0.0,0.0,0.0,0.0,0.0,0.0,0.0,0.0,0.0,0.0,0.0,0.0,0.0,0.0,0.0,0.0,0.0,0.0,0.0,0.0,0.0,0.0,0.0,0.0,0.0,0.0,0.0,0.0,0.0,0.0,0.0,0.0,0.0,0.0,0.0,0.0,0.0,0.0,0.0,0.0,0.0,0.0,0.0,0.0,0.0,0.0,0.0,0.0,0.0,0.0,0.0,0.0,0.0,0.0,0.0,0.0,0.0,0.0,0.0,0.0,0.0,0.0,0.0,0.0,0.0,0.0,0.0,0.0,0.0,0.0,0.0,0.0,0.0,0.0,0.0,0.0,0.0,0.0,0.0,0.0,0.0,0.0,0.0,0.0,0.0,0.0,0.0,0.0,0.0,0.0,0.0,0.0,0.0,0.0,0.0,0.0,0.0,0.0,0.0,0.0,0.0,0.0,0.0,0.0,0.0,0.0,0.0,0.0,0.0,0.0,0.0,0.0,0.0,0.0,0.0,0.0,0.0,0.0,0.0,0.0,0.0,0.0,0.0,0.0,0.0,0.0,0.0,0.0,0.0,0.0,0.0,0.0,0.0,0.0,0.0,0.0,0.0,0.0,0.0,0.0,0.0,0.0,0.0,0.0,0.0,0.0,0.0,0.0,0.0,0.0,0.0,0.0,0.0,0.0,0.0,0.0,0.0,0.0,0.0,0.0,0.0,0.0,0.0,0.0,0.0,0.0,0.0,0.0,0.0,0.0,0.0,0.0,0.0,0.0,0.0,0.0,0.0,0.0,0.0,0.0,0.0,0.0,0.0,9.2781,0.0,0.0,0.0,0.0,0.0,0.0,0.0,0.0,0.0,0.0,0.0,0.0,0.0,0.0,0.0,0.0,0.0,0.0,0.0,0.0,0.0,0.0,0.0,0.0,0.0,0.0,0.0,0.0,0.0,0.0,0.0,0.0,0.0,0.0,0.0,0.0,0.0,0.0,0.0,0.0,0.0,0.0,0.0,0.0,0.0,0.0,0.0,0.0,0.0,0.0,0.0,0.0,0.0,0.0,0.0,0.0,0.0,0.0,0.0,0.0,0.0,0.0,0.0,0.0,0.0,0.0,0.0,0.0,0.0,0.0,0.0,0.0,0.0,0.0,0.0,0.0,0.0,0.0,0.0,0.0,0.0,0.0,0.0,0.0,0.0,0.0,0.0,0.0,0.0,0.0,0.0,0.0,0.0,0.0,0.0,0.0,0.0,0.0,0.0,0.0,0.0,0.0,0.0,0.0,0.0,0.0,0.0,0.0,0.0,0.0,0.0,0.0,0.0,0.0,0.0,0.0,9.3599,0.0,0.0,0.0,0.0,0.0,0.0,0.0,0.0,0.0,0.0,0.0,0.0,0.0,0.0,0.0,0.0,0.0,0.0,0.0,0.0,0.0,0.0,0.0,0.0,0.0,0.0,0.0,0.0,0.0,0.0,0.0,0.0,0.0,0.0,0.0,0.0,0.0,0.0,0.0,0.0,0.0,0.0,0.0,0.0,0.0,0.0,0.0,0.0,0.0,0.0,0.0,0.0,0.0,0.0,0.0,0.0,0.0,0.0,0.0,0.0,0.0,0.0,0.0,0.0,0.0,0.0,0.0,0.0,0.0,0.0,0.0,0.0,0.0,0.0,0.0,0.0,0.0,0.0,0.0,0.0,0.0,0.0,0.0,0.0,0.0,0.0,0.0,0.0,0.0,0.0,0.0,0.0,0.0,0.0,0.0,0.0,0.0,0.0,0.0,0.0,0.0,0.0,0.0,0.0,0.0,0.0,0.0,0.0,0.0,0.0,9.5353,9.5353,9.5353,9.5353,9.5353,9.5158,9.4846,0.0,0.0,0.0,0.0,0.0,0.0,0.0,0.0,0.0,0.0,0.0,0.0,0.0,0.0,0.0,0.0,0.0,0.0,0.0,0.0,0.0,0.0,0.0,0.0,0.0,0.0,0.0,0.0,0.0,0.0,0.0,0.0,0.0,0.0,0.0,0.0,0.0,0.0,0.0,0.0,0.0,0.0,0.0,0.0,0.0,0.0,0.0,0.0,0.0,0.0,0.0,0.0,0.0,0.0,0.0,0.0,0.0,0.0,0.0,0.0,0.0,0.0,0.0,0.0,0.0,0.0,0.0,0.0,0.0,0.0,0.0,0.0,0.0,0.0,0.0,0.0,0.0,0.0,0.0,0.0,0.0,0.0,0.0,0.0,0.0,0.0,0.0,8.9867,8.9984,0.0,0.0,0.0,0.0,0.0,0.0,0.0,0.0,0.0,0.0,0.0,0.0,0.0,0.0,9.5065,9.4948,9.526,9.6015,9.6015,9.6405,9.7145,9.7145,9.7145,9.7145,9.7145,0.0,9.4885,9.4768,0.0,0.0,0.0,0.0,0.0,0.0,0.0,0.0,0.0,0.0,0.0,0.0,0.0,0.0,0.0,0.0,0.0,0.0,0.0,0.0,0.0,0.0,0.0,0.0,0.0,0.0,0.0,0.0,0.0,0.0,0.0,0.0,0.0,0.0,0.0,0.0,0.0,0.0,0.0,0.0,0.0,0.0,0.0,0.0,0.0,0.0,0.0,0.0,0.0,0.0,0.0,0.0,0.0,0.0,0.0,0.0,0.0,0.0,0.0,0.0,0.0,0.0,0.0,0.0,0.0,0.0,0.0,0.0,0.0,0.0,0.0,0.0,0.0,0.0,0.0,0.0,0.0,0.0,0.0,0.0,0.0,0.0,0.0,0.0,0.0,9.0179,9.1077,9.2014,9.2131,9.2326,0.0,0.0,0.0,0.0,0.0,0.0,0.0,0.0,0.0,9.6327,9.5898,9.6078,9.7091,9.7106,9.7301,9.7652,9.7652,9.7847,9.8236,9.8236,9.8236,9.8236,9.8236,9.7535,9.6327,9.582,9.5626,9.5548,0.0,0.0,0.0,0.0,0.0,9.4052,0.0,0.0,0.0,0.0,0.0,0.0,0.0,0.0,0.0,0.0,0.0,0.0,0.0,0.0,0.0,0.0,0.0,0.0,0.0,0.0,0.0,0.0,0.0,0.0,0.0,0.0,0.0,0.0,0.0,0.0,0.0,0.0,0.0,0.0,0.0,0.0,0.0,0.0,0.0,0.0,0.0,0.0,0.0,0.0,0.0,0.0,0.0,0.0,0.0,0.0,0.0,0.0,0.0,0.0,0.0,0.0,0.0,0.0,0.0,0.0,0.0,0.0,0.0,0.0,0.0,0.0,0.0,0.0,0.0,0.0,0.0,0.0,0.0,0.0,0.0,0.0,0.0,9.1116,0.0,9.3654,9.4005,9.4395,0.0,0.0,0.0,0.0,0.0,0.0,9.6353,9.6343,9.6858,9.8104,9.7535,9.7925,9.9444,9.925,9.9133,9.9133,9.9133,9.9133,9.9133,9.9133,9.9133,9.9133,9.8899,9.8548,9.8081,9.6989,9.6522,9.6444,9.5587,9.5236,9.5182,9.4951,9.4892,9.4946,0.0,0.0,0.0,0.0,0.0,0.0,0.0,0.0,0.0,0.0,0.0,0.0,0.0,0.0,0.0,0.0,0.0,0.0,0.0,0.0,0.0,0.0,0.0,0.0,0.0,0.0,0.0,0.0,0.0,0.0,0.0,0.0,0.0,0.0,0.0,0.0,0.0,0.0,0.0,0.0,0.0,0.0,0.0,0.0,0.0,0.0,0.0,0.0,0.0,0.0,0.0,0.0,0.0,0.0,0.0,0.0,0.0,0.0,0.0,0.0,0.0,0.0,0.0,0.0,0.0,0.0,0.0,0.0,0.0,0.0,0.0,0.0,0.0,0.0,0.0,0.0,0.0,0.0,0.0,9.381,9.4552,0.0,0.0,0.0,0.0,9.5098,9.6582,9.7134,9.6342,9.8548,9.9897,9.9959,9.9936,10.0302,10.1315,10.0419,9.999,9.999,9.999,9.999,9.999,9.999,9.999,9.999,9.9172,9.925,9.9834,9.812,9.7418,9.734,9.6483,9.6132,9.6078,9.5768,9.5645,9.5717,0.0,0.0,0.0,0.0,0.0,0.0,0.0,0.0,0.0,0.0,0.0,0.0,0.0,0.0,0.0,0.0,0.0,0.0,0.0,0.0,0.0,0.0,0.0,0.0,0.0,0.0,0.0,0.0,0.0,0.0,0.0,0.0,0.0,0.0,0.0,0.0,0.0,0.0,0.0,0.0,0.0,0.0,0.0,0.0,0.0,0.0,0.0,0.0,0.0,0.0,0.0,0.0,0.0,0.0,0.0,0.0,0.0,0.0,0.0,0.0,0.0,0.0,0.0,0.0,0.0,0.0,0.0,0.0,0.0,0.0,0.0,0.0,0.0,0.0,0.0,0.0,0.0,0.0,0.0,9.6191,9.6582,0.0,0.0,9.7401,9.7182,9.8306,9.8384,9.8708,9.9561,9.9912,10.0613,10.1689,10.1182,10.1899,10.3809,10.299,10.3107,10.4198,10.3692,10.3692,10.4198,10.3614,10.3107,10.2484,10.1588,10.0808,10.0107,9.9444,9.8821,9.8236,9.7379,9.7028,9.7013,9.678,9.6659,9.6755,0.0,0.0,0.0,0.0,0.0,0.0,0.0,0.0,0.0,0.0,0.0,0.0,0.0,0.0,0.0,0.0,0.0,0.0,0.0,0.0,0.0,0.0,0.0,0.0,0.0,0.0,0.0,0.0,0.0,0.0,0.0,0.0,0.0,0.0,0.0,0.0,0.0,0.0,0.0,0.0,0.0,0.0,8.3389,0.0,0.0,0.0,0.0,0.0,0.0,0.0,0.0,0.0,0.0,0.0,0.0,0.0,0.0,0.0,0.0,0.0,0.0,0.0,0.0,0.0,0.0,0.0,0.0,0.0,0.0,0.0,0.0,0.0,0.0,0.0,0.0,0.0,0.0,0.0,9.5762,9.7479,9.7948,9.8807,10.0485,9.9627,9.9514,10.1008,10.1003,10.1416,10.2195,10.2523,10.3185,10.4315,10.3809,10.451,10.6498,10.5718,10.5796,10.6887,10.6381,10.6381,10.6887,10.6303,10.5601,10.4705,10.3887,10.2796,10.1782,10.0886,10.0185,9.9561,9.8392,9.7769,9.7481,9.736,9.7284,9.7343,0.0,0.0,0.0,0.0,0.0,0.0,0.0,0.0,0.0,0.0,0.0,0.0,0.0,0.0,0.0,0.0,0.0,0.0,0.0,0.0,0.0,0.0,0.0,0.0,0.0,0.0,0.0,0.0,0.0,0.0,0.0,0.0,0.0,0.0,0.0,0.0,0.0,0.0,0.0,0.0,0.0,0.0,8.3468,0.0,0.0,0.0,0.0,0.0,0.0,0.0,0.0,0.0,0.0,0.0,0.0,0.0,0.0,0.0,0.0,0.0,0.0,0.0,0.0,0.0,0.0,0.0,0.0,0.0,0.0,0.0,0.0,0.0,0.0,0.0,0.0,0.0,9.2522,9.4044,9.584,9.7597,9.8612,9.9775,10.1492,10.161,10.1982,10.2917,10.4517,10.5,10.4182,10.6481,10.7806,10.7806,10.7822,10.829,10.9186,10.8407,10.79,10.7978,10.7978,10.7978,10.7978,10.79,10.7394,10.6575,10.5718,10.529,10.5017,10.2484,10.151,10.1315,9.9483,9.8275,9.7496,9.7496,9.7496,9.7496,0.0,0.0,0.0,0.0,0.0,0.0,0.0,0.0,0.0,0.0,0.0,0.0,0.0,0.0,0.0,0.0,0.0,0.0,0.0,0.0,0.0,0.0,0.0,0.0,0.0,0.0,0.0,0.0,0.0,0.0,0.0,0.0,0.0,0.0,0.0,0.0,0.0,0.0,0.0,0.0,0.0,0.0,8.5449,0.0,0.0,0.0,0.0,0.0,0.0,0.0,0.0,0.0,0.0,0.0,0.0,0.0,0.0,0.0,0.0,0.0,0.0,0.0,0.0,0.0,0.0,0.0,0.0,0.0,0.0,0.0,0.0,0.0,0.0,0.0,0.0,9.3263,9.3419,9.5488,9.787,10.0204,10.1219,10.2703,10.5006,10.4705,10.509,10.7288,10.6724,10.6598,10.7589,10.7783,10.8095,10.8719,10.8719,10.9693,11.1797,11.1018,11.1213,11.2382,11.1797,11.1485,11.1485,11.0784,11.0099,10.9195,10.7683,10.6708,10.5998,10.4721,10.3809,10.2913,9.9951,9.8275,9.7496,9.7496,9.7496,9.7574,0.0,0.0,0.0,0.0,0.0,0.0,0.0,0.0,0.0,0.0,0.0,0.0,0.0,0.0,0.0,0.0,0.0,0.0,0.0,0.0,0.0,0.0,0.0,0.0,0.0,0.0,0.0,0.0,0.0,0.0,0.0,0.0,0.0,0.0,0.0,0.0,0.0,0.0,0.0,0.0,0.0,0.0,8.624,8.486,8.5419,8.6864,8.5972,8.597,8.6242,8.531,0.0,0.0,0.0,0.0,0.0,0.0,0.0,0.0,0.0,0.0,0.0,0.0,0.0,0.0,0.0,0.0,0.0,0.0,0.0,0.0,0.0,0.0,0.0,0.0,9.4083,9.5567,9.6386,9.7831,9.9736,10.2312,10.3405,10.5006,10.802,10.7798,10.839,11.0692,11.0199,11.0208,11.1183,11.1112,11.129,11.1797,11.1797,11.2498,11.4018,11.349,11.3701,11.4715,11.4208,11.3818,11.3389,11.2888,11.2204,0.0,11.0021,10.9086,10.8478,10.6903,10.5796,0.0,0.0,0.0,0.0,0.0,9.7394,9.7559,0.0,0.0,0.0,0.0,0.0,0.0,0.0,0.0,0.0,0.0,0.0,0.0,0.0,0.0,0.0,0.0,0.0,0.0,0.0,0.0,0.0,0.0,0.0,0.0,0.0,0.0,0.0,0.0,0.0,0.0,0.0,0.0,0.0,0.0,0.0,0.0,0.0,0.0,0.0,0.0,0.0,0.0,8.6352,8.5308,8.6164,8.7868,8.7734,8.7771,8.7772,8.67,0.0,0.0,0.0,0.0,0.0,0.0,0.0,0.0,0.0,0.0,0.0,0.0,0.0,0.0,0.0,0.0,0.0,0.0,0.0,0.0,0.0,0.0,0.0,0.0,9.6266,9.8734,10.0685,10.1114,10.1904,10.4108,10.5279,10.7192,11.0518,11.0978,11.1798,11.3407,11.4099,11.4491,11.4608,0.0,0.0,0.0,0.0,11.5499,11.5499,11.5588,11.5604,11.5604,11.5604,11.5214,11.4317,11.4191,11.3784,11.31,11.2109,11.168,11.1602,10.8991,10.7394,10.6498,10.451,10.2289,10.0013,9.8277,9.7635,0.0,0.0,0.0,0.0,0.0,0.0,0.0,0.0,0.0,0.0,0.0,0.0,0.0,0.0,0.0,0.0,0.0,0.0,0.0,0.0,0.0,0.0,0.0,0.0,0.0,0.0,0.0,0.0,0.0,0.0,0.0,0.0,0.0,0.0,0.0,0.0,0.0,0.0,0.0,0.0,0.0,0.0,0.0,8.6736,8.6036,8.6808,8.8117,8.6849,8.677,8.7151,8.6342,8.5988,8.5901,8.5901,0.0,0.0,0.0,0.0,0.0,0.0,0.0,0.0,0.0,0.0,0.0,0.0,0.0,0.0,0.0,0.0,0.0,0.0,0.0,0.0,9.6577,9.8819,10.1408,10.4694,10.5685,10.6193,10.6207,10.8215,11.0284,11.2392,11.3798,11.4984,11.6111,11.5583,11.5595,11.6402,11.5814,0.0,11.4497,11.5082,11.551,11.551,11.6189,11.6501,11.6501,0.0,0.0,11.5214,11.4503,11.4481,11.4893,11.261,11.2009,11.2509,10.9904,10.829,10.7199,10.4082,10.2211,10.1198,10.14,10.0309,9.8611,0.0,0.0,0.0,0.0,0.0,0.0,0.0,0.0,0.0,0.0,0.0,0.0,0.0,0.0,0.0,0.0,0.0,0.0,0.0,0.0,0.0,0.0,0.0,0.0,0.0,0.0,0.0,0.0,0.0,0.0,0.0,0.0,0.0,0.0,0.0,0.0,0.0,0.0,0.0,0.0,0.0,0.0,8.6967,8.6164,8.7158,8.8802,8.7187,8.6876,8.7214,8.6824,8.6401,8.6055,8.6094,8.6401,8.6632,0.0,0.0,0.0,0.0,0.0,0.0,0.0,0.0,0.0,0.0,0.0,0.0,0.0,0.0,9.0914,0.0,0.0,9.6211,9.8929,10.0884,10.3298,10.6888,10.8201,10.8985,10.9212,11.0792,11.2704,11.4813,11.5809,11.6696,11.7487,11.6689,11.6584,11.7495,11.6609,11.6384,11.6813,11.6813,11.6789,11.6804,11.6804,11.6584,11.6207,11.618,11.5687,11.4881,11.4878,11.4878,11.492,11.4005,11.36,11.3421,11.0801,10.9186,10.8212,10.6108,10.4198,10.2585,10.1992,10.0803,9.9468,0.0,0.0,0.0,0.0,0.0,0.0,0.0,0.0,0.0,0.0,0.0,0.0,0.0,0.0,0.0,0.0,0.0,0.0,0.0,0.0,0.0,0.0,0.0,0.0,0.0,0.0,0.0,0.0,0.0,0.0,0.0,0.0,0.0,0.0,0.0,0.0,0.0,0.0,0.0,0.0,0.0,0.0,8.7734,8.6492,8.7319,8.8969,8.7487,8.7175,8.7358,8.7204,8.6671,8.6132,8.6286,8.6858,8.7281,8.6555,8.6863,0.0,0.0,0.0,0.0,0.0,0.0,0.0,0.0,0.0,8.9013,9.121,9.2487,9.3524,9.4561,9.6695,9.8957,10.0775,10.2698,10.5087,10.8401,10.9793,11.109,11.2608,11.329,11.45,11.6804,11.7302,11.7692,11.8287,11.7689,11.7612,11.8093,11.7403,11.7608,11.8895,11.8193,11.7896,11.7793,11.7378,11.6806,11.6116,11.6284,11.5894,11.5101,11.5401,11.531,11.4803,11.5112,11.4785,11.3795,11.1502,11.0005,10.8991,10.829,10.6614,10.4182,10.2401,10.1117,10.0309,0.0,0.0,0.0,0.0,0.0,0.0,0.0,0.0,0.0,0.0,0.0,0.0,0.0,0.0,0.0,0.0,0.0,0.0,0.0,0.0,0.0,0.0,0.0,0.0,0.0,0.0,0.0,0.0,0.0,0.0,0.0,0.0,0.0,0.0,0.0,0.0,0.0,0.0,0.0,0.0,0.0,0.0,9.0063,8.7863,8.7281,8.7512,8.6555,8.6709,8.7281,8.6517,8.617,8.6247,8.7012,8.7319,8.7363,8.7295,0.0,8.7204,8.6324,8.6094,0.0,8.705,8.7242,8.7704,0.0,0.0,9.2207,9.3204,9.4714,9.6136,9.6943,9.8596,10.0366,10.2097,10.4523,10.7098,11.0278,11.1506,11.3087,11.6121,11.5789,11.5789,11.6882,11.8324,11.8898,11.8287,11.8781,11.8886,11.8317,11.8106,11.769,11.7222,11.7105,11.7013,11.6906,11.7703,11.8015,11.7803,11.8612,11.8495,11.7608,11.6194,11.6012,11.652,11.4995,11.3912,11.3005,11.1914,11.0511,10.9108,10.8991,10.7783,10.6108,10.5117,10.3208,10.1198,0.0,0.0,0.0,0.0,0.0,0.0,0.0,0.0,0.0,0.0,0.0,0.0,0.0,0.0,0.0,0.0,0.0,0.0,0.0,0.0,0.0,0.0,0.0,0.0,0.0,0.0,0.0,0.0,0.0,0.0,0.0,0.0,0.0,0.0,0.0,0.0,0.0,0.0,0.0,0.0,0.0,0.0,9.0059,8.8637,8.7786,8.7281,8.6401,8.6324,0.0,0.0,8.6094,8.617,8.6517,8.6983,8.7295,8.6764,8.6987,0.0,8.6324,0.0,0.0,0.0,8.9244,9.0167,9.2392,9.34,9.4174,9.5021,9.6597,9.8019,9.8864,10.0403,10.2288,0.0,10.6295,10.8518,11.1794,11.3294,11.4704,11.6492,11.6998,11.7506,11.8404,11.9088,11.9311,11.899,11.8285,11.8001,11.819,11.8207,11.8184,11.8379,11.8379,11.8196,11.7611,11.7505,11.7193,11.6713,11.7583,11.731,11.6011,11.6803,11.7115,11.6779,11.5011,11.3996,11.3584,11.2212,11.1183,11.0511,10.9522,10.8688,10.7783,10.649,10.5009,10.362,0.0,0.0,0.0,0.0,0.0,0.0,0.0,0.0,0.0,0.0,0.0,0.0,0.0,0.0,0.0,0.0,0.0,0.0,0.0,8.2183,8.3303,8.483,8.533,0.0,8.644,8.7512,8.8551,8.9371,8.9983,9.0825,9.1864,9.1639,0.0,0.0,0.0,0.0,0.0,0.0,0.0,0.0,0.0,0.0,8.979,8.8986,8.8175,8.7281,8.6401,8.6094,0.0,0.0,8.6094,8.6132,8.6363,8.6868,8.7295,8.6646,8.6752,8.7012,8.6858,0.0,0.0,9.0427,9.1402,9.2636,9.5401,9.6057,9.6367,9.7443,9.8634,9.9749,10.0595,10.198,0.0,10.6103,10.7597,10.9608,11.3009,11.4307,11.5282,11.6189,11.7103,11.7897,11.8716,11.941,11.9917,11.9888,11.8892,11.8403,11.8492,11.8598,11.8715,11.9105,11.891,11.8609,11.819,11.7594,11.7009,11.6394,11.7302,11.6911,11.5497,11.7185,11.7409,11.649,11.5007,11.4309,11.4083,11.2918,11.211,11.1518,11.0277,10.9614,10.8907,10.7689,10.6611,10.5506,0.0,0.0,0.0,0.0,0.0,0.0,0.0,0.0,0.0,0.0,0.0,0.0,0.0,0.0,0.0,0.0,0.0,0.0,0.0,8.3099,8.3951,8.4868,8.644,8.7358,8.7358,8.8969,9.024,9.1133,9.1171,9.2014,9.3628,9.2823,9.3358,9.4856,9.3251,9.3407,9.4751,9.2172,9.1518,9.2172,9.1364,9.0521,8.9752,8.8986,8.8175,8.7281,8.6401,0.0,0.0,0.0,8.6094,8.6247,8.7089,8.7396,0.0,8.7358,8.6748,0.0,0.0,0.0,8.9431,9.2742,9.3599,9.4484,9.7904,9.8673,9.9134,10.0788,10.1212,10.152,10.2404,10.3289,10.4523,10.6498,10.8194,11.042,11.3496,11.3979,11.4512,11.5614,11.5789,11.6101,0.0,11.9322,12.0794,12.0785,12.139,12.1107,11.9497,11.9506,11.9105,11.8285,11.7388,11.7298,11.808,11.8179,11.8179,11.8002,11.8999,11.8882,11.8002,11.7298,11.649,11.5593,11.4695,11.4309,11.42,11.4205,11.3177,11.1705,11.1588,11.0613,10.9093,10.9095,10.799,10.6299,0.0,0.0,0.0,0.0,0.0,0.0,0.0,0.0,0.0,0.0,0.0,0.0,0.0,0.0,0.0,0.0,0.0,0.0,0.0,8.3125,8.3978,8.4868,8.594,8.6522,8.653,8.8214,8.8944,8.8679,9.0373,9.1177,9.121,9.1479,9.2249,9.3328,9.333,9.3636,9.4093,9.3174,9.2979,9.3054,9.1095,9.0444,9.0556,8.8594,8.7632,8.7281,0.0,0.0,0.0,0.0,0.0,0.0,8.644,0.0,0.0,8.6517,0.0,0.0,0.0,0.0,9.2023,9.5405,9.6636,9.7673,9.9942,10.0519,10.0787,10.1903,10.0789,10.0096,10.152,10.202,10.2905,10.5293,10.8212,11.1182,11.4198,11.519,11.5487,11.4921,11.5906,0.0,0.0,0.0,0.0,12.0707,12.0503,12.0112,11.9497,11.9995,11.9722,11.8317,11.8512,11.8502,11.8179,11.8317,11.8317,11.8179,11.8004,11.8317,11.8999,11.7604,11.6521,11.5701,11.5389,11.489,11.4322,11.4321,11.4283,11.4091,11.2996,11.2605,11.229,11.052,10.9787,10.9615,0.0,0.0,0.0,0.0,0.0,0.0,0.0,0.0,0.0,0.0,0.0,0.0,0.0,0.0,0.0,0.0,0.0,0.0,0.0,0.0,8.3856,8.4412,8.5824,8.656,8.653,8.7983,8.8444,8.7875,8.9524,9.0024,8.9486,9.0329,9.1021,9.1564,9.21,9.2521,9.2787,9.2179,9.2254,9.2592,9.037,8.9793,9.009,8.8128,8.7204,0.0,0.0,0.0,0.0,0.0,0.0,0.0,0.0,0.0,0.0,0.0,0.0,0.0,0.0,9.2716,9.4945,9.775,9.9288,10.0519,10.1904,10.198,10.2019,10.2904,10.0481,9.875,10.0212,10.0212,10.0789,10.3519,10.6396,10.9795,11.3877,11.4206,11.4411,11.5089,11.5609,0.0,0.0,0.0,0.0,12.059,12.059,12.02,11.9497,12.0317,12.0005,11.8404,11.8795,11.8795,11.8287,11.8287,11.8287,11.8287,11.7701,11.8014,11.899,11.8014,11.6999,11.6218,11.6218,11.5614,11.4789,11.5085,11.5414,11.5385,11.4387,11.3815,11.3412,11.1606,11.1216,11.1312,0.0,0.0,0.0,0.0,0.0,0.0,0.0,0.0,0.0,0.0,0.0,0.0,0.0,0.0,0.0,0.0,0.0,0.0,0.0,0.0,0.0,8.3605,8.5978,8.7281,8.7319,8.8199,8.8628,8.8563,8.8666,8.8666,8.864,8.9483,8.9829,8.9829,8.9867,9.037,9.1028,8.9418,8.9683,9.1056,8.934,8.8682,8.8584,8.7666,0.0,0.0,0.0,0.0,0.0,0.0,0.0,0.0,0.0,0.0,0.0,0.0,0.0,9.0591,9.3179,9.571,9.8053,9.9788,10.148,10.2903,10.3712,10.3212,10.2828,10.3482,10.0289,9.7596,0.0,0.0,9.8397,10.12,10.3398,10.6812,11.2879,11.1728,11.1803,0.0,0.0,0.0,0.0,0.0,0.0,12.061,0.0,12.1283,11.9692,12.0395,12.0083,11.8404,11.8287,11.8287,11.8287,11.8287,11.8287,11.8287,11.8287,11.8287,11.8287,11.8287,11.7819,11.6999,11.6999,11.6521,11.571,11.6599,11.6511,11.571,11.5713,11.4512,11.2815,11.2716,11.2398,11.1722,0.0,0.0,0.0,0.0,0.0,0.0,0.0,0.0,0.0,0.0,0.0,0.0,0.0,0.0,0.0,0.0,0.0,0.0,0.0,0.0,0.0,0.0,0.0,0.0,0.0,0.0,0.0,0.0,0.0,8.838,8.7748,8.8628,8.9013,8.9013,8.9624,9.0009,9.0206,8.9782,9.024,9.1005,0.0,8.8102,8.8546,0.0,0.0,0.0,0.0,0.0,0.0,0.0,0.0,0.0,0.0,0.0,8.7473,0.0,0.0,9.2526,9.5675,9.7941,9.9863,10.1519,10.2788,10.348,10.302,10.2789,10.2097,10.0404,9.7711,9.5326,0.0,0.0,0.0,10.0208,10.618,0.0,11.4718,11.6185,0.0,0.0,0.0,11.7309,11.6913,11.78,0.0,0.0,12.0712,12.0693,12.0512,12.0707,12.0317,11.9185,11.8599,11.8287,11.8287,11.8287,11.8287,11.8287,11.8287,11.8287,11.8287,11.8287,11.7819,11.6999,11.6999,11.6785,11.6607,11.6813,11.7103,11.7391,11.6791,11.6087,11.5404,11.4587,11.4009,11.3694,0.0,0.0,0.0,0.0,0.0,0.0,0.0,0.0,0.0,0.0,0.0,0.0,0.0,0.0,0.0,0.0,0.0,0.0,0.0,0.0,0.0,0.0,0.0,0.0,0.0,0.0,0.0,0.0,0.0,0.0,0.0,8.7166,8.755,8.7589,8.8045,8.8238,8.8238,0.0,0.0,0.0,0.0,0.0,0.0,0.0,0.0,0.0,0.0,0.0,0.0,0.0,0.0,8.8122,8.8815,8.9316,9.0052,9.221,0.0,9.5291,9.7942,10.021,10.1979,10.2865,10.3828,10.3905,10.1904,10.1481,10.0712,9.775,9.5095,0.0,0.0,0.0,0.0,0.0,0.0,0.0,11.4973,11.6402,11.7522,0.0,11.8873,0.0,11.8694,11.9504,12.0312,0.0,0.0,12.0993,12.0785,12.1488,12.1215,11.9614,11.981,11.981,11.938,11.8716,11.8482,11.8795,11.8482,11.8287,11.8287,11.8287,11.8014,11.7584,0.0,11.7497,11.7487,11.7487,11.7716,11.792,11.7491,11.6787,11.6091,11.5375,11.4805,11.4202,0.0,0.0,0.0,0.0,0.0,0.0,0.0,0.0,0.0,0.0,0.0,0.0,0.0,0.0,0.0,0.0,0.0,0.0,0.0,0.0,0.0,0.0,0.0,0.0,0.0,0.0,0.0,0.0,0.0,0.0,0.0,0.0,0.0,0.0,0.0,0.0,0.0,0.0,0.0,0.0,0.0,0.0,0.0,0.0,0.0,0.0,0.0,0.0,0.0,0.0,8.9008,8.9354,9.1125,9.2207,9.3213,9.5253,9.6789,9.825,10.0134,10.2326,10.4135,10.4097,10.4597,10.4212,10.0981,10.0096,9.8865,9.5249,0.0,0.0,8.9787,0.0,9.4788,9.7557,0.0,10.8906,11.4791,11.5215,11.6269,12.0381,12.0303,12.0003,12.06,12.1208,12.1806,12.2305,12.2494,12.2191,12.141,12.2815,12.2386,11.9888,12.1293,12.1605,12.059,11.9185,11.8795,11.9302,11.8599,11.8287,11.8287,11.8287,11.8287,11.8287,0.0,0.0,11.8287,11.8317,11.8093,11.7911,11.78,11.7089,11.5991,11.5885,11.5321,11.4507,0.0,0.0,0.0,0.0,0.0,0.0,0.0,0.0,0.0,0.0,0.0,0.0,0.0,0.0,0.0,0.0,0.0,0.0,0.0,0.0,0.0,0.0,0.0,0.0,0.0,0.0,0.0,0.0,0.0,0.0,0.0,0.0,0.0,0.0,0.0,0.0,0.0,0.0,0.0,0.0,0.0,0.0,0.0,0.0,0.0,0.0,0.0,0.0,0.0,0.0,9.074,9.1175,9.3563,9.4445,9.5329,9.9095,9.9902,10.021,10.2595,10.398,10.4905,10.4905,10.4982,10.4405,10.1712,9.9981,0.0,0.0,0.0,9.0517,8.8248,9.1633,0.0,10.0019,0.0,0.0,0.0,0.0,11.98,0.0,0.0,0.0,0.0,0.0,0.0,0.0,0.0,0.0,12.4104,12.4299,12.3596,12.1683,12.1918,12.1293,11.9692,11.9419,11.899,11.8482,11.8404,11.8287,11.8287,11.8287,11.8287,11.8287,0.0,0.0,11.8278,11.7988,11.7988,11.8207,11.7888,11.7703,11.739,11.7408,11.7231,11.6793,0.0,0.0,0.0,0.0,0.0,0.0,0.0,0.0,0.0,0.0,0.0,0.0,0.0,0.0,0.0,0.0,0.0,0.0,0.0,0.0,0.0,0.0,0.0,0.0,0.0,0.0,0.0,0.0,0.0,0.0,0.0,0.0,0.0,0.0,0.0,0.0,0.0,0.0,0.0,0.0,0.0,0.0,0.0,0.0,0.0,0.0,0.0,0.0,0.0,0.0,9.0783,9.2563,9.6441,9.7631,9.8287,10.171,10.2096,10.2019,10.448,10.552,10.5905,10.629,10.579,10.4097,10.0212,0.0,0.0,0.0,0.0,8.9402,8.7709,0.0,0.0,0.0,0.0,0.0,0.0,0.0,0.0,0.0,0.0,0.0,0.0,0.0,0.0,0.0,0.0,0.0,12.5392,12.4885,12.4299,12.3518,12.262,12.1918,12.1488,12.059,12.02,12.0317,11.9419,11.8912,11.8912,11.8482,11.8287,11.8287,11.8287,0.0,11.8287,11.8118,11.808,11.7988,11.7911,11.7703,11.7597,11.7597,11.7528,11.7388,0.0,0.0,0.0,0.0,0.0,0.0,0.0,0.0,0.0,0.0,0.0,0.0,0.0,0.0,0.0,0.0,0.0,0.0,0.0,0.0,0.0,0.0,0.0,0.0,0.0,0.0,0.0,0.0,0.0,0.0,0.0,0.0,0.0,0.0,0.0,0.0,0.0,0.0,0.0,0.0,0.0,0.0,0.0,0.0,0.0,0.0,0.0,0.0,0.0,0.0,9.029,9.2794,9.7519,9.9517,10.0595,10.2903,10.3405,10.3712,10.602,10.6905,10.729,10.779,10.6713,10.4097,9.9173,9.6326,0.0,0.0,0.0,0.0,0.0,0.0,0.0,0.0,0.0,0.0,0.0,0.0,0.0,0.0,0.0,0.0,0.0,0.0,0.0,0.0,0.0,0.0,0.0,12.5704,12.5197,12.5002,12.3518,12.2815,12.3089,12.18,12.1293,12.18,12.02,11.9497,11.9497,11.8716,11.8287,11.8287,11.8287,0.0,0.0,11.819,11.8093,11.7888,11.7816,11.7683,11.7614,11.7614,11.7614,11.7597,0.0,0.0,0.0,0.0,0.0,0.0,0.0,0.0,0.0,0.0,0.0,0.0,0.0,0.0,0.0,0.0,0.0,0.0,0.0,0.0,0.0,0.0,0.0,0.0,0.0,0.0,0.0,0.0,0.0,0.0,0.0,0.0,0.0,0.0,0.0,0.0,0.0,0.0,0.0,0.0,0.0,0.0,0.0,0.0,0.0,0.0,0.0,0.0,0.0,0.0,0.0,9.0752,9.4326,9.7596,10.0404,10.2212,0.0,0.0,10.7098,10.8713,10.9713,10.8983,10.7521,10.5213,10.0789,0.0,0.0,0.0,8.9133,8.9133,0.0,0.0,0.0,0.0,0.0,0.0,0.0,0.0,0.0,0.0,0.0,0.0,0.0,0.0,0.0,0.0,0.0,0.0,0.0,12.7383,12.6602,12.59,12.5002,12.3713,12.2191,12.2113,12.1605,12.0903,12.0005,11.9497,11.9497,11.8716,11.8287,11.8287,0.0,0.0,0.0,11.8013,11.7988,11.819,11.7904,11.8013,11.8179,11.8179,11.8179,11.8179,0.0,0.0,0.0,0.0,0.0,0.0,0.0,0.0,0.0,0.0,0.0,0.0,0.0,0.0,0.0,0.0,0.0,0.0,0.0,0.0,0.0,0.0,0.0,0.0,0.0,0.0,0.0,0.0,0.0,0.0,0.0,0.0,0.0,0.0,0.0,0.0,0.0,0.0,0.0,0.0,0.0,0.0,0.0,0.0,0.0,0.0,0.0,0.0,0.0,0.0,0.0,0.0,9.0133,9.2749,0.0,0.0,10.1904,10.3597,10.7405,10.9713,11.1021,11.1214,10.9213,10.6097,10.1789,0.0,0.0,9.0517,8.9671,8.9787,9.0979,0.0,0.0,0.0,0.0,0.0,0.0,0.0,0.0,0.0,0.0,0.0,0.0,0.0,0.0,0.0,0.0,0.0,0.0,12.7383,12.6407,12.4494,12.4611,12.4104,12.2894,12.2894,12.2698,12.2308,12.0903,12.059,12.102,11.9107,11.8599,11.899,0.0,0.0,0.0,11.8207,11.8207,11.8287,11.8196,11.8207,11.8287,11.8287,11.8287,11.8287,0.0,0.0,0.0,0.0,0.0,0.0,0.0,0.0,0.0,0.0,0.0,0.0,0.0,0.0,0.0,0.0,0.0,0.0,0.0,0.0,0.0,0.0,0.0,0.0,0.0,0.0,0.0,0.0,0.0,0.0,0.0,0.0,0.0,0.0,0.0,0.0,0.0,0.0,0.0,0.0,0.0,0.0,0.0,0.0,0.0,0.0,0.0,0.0,0.0,0.0,0.0,0.0,0.0,0.0,0.0,0.0,9.9865,10.2404,10.7213,11.0214,11.2022,11.2599,11.0214,10.6597,0.0,0.0,9.3941,9.1518,9.0633,9.071,9.2056,9.2595,9.3595,9.5942,0.0,9.8096,0.0,0.0,0.0,0.0,0.0,0.0,0.0,0.0,0.0,0.0,0.0,0.0,0.0,12.7305,12.629,12.4182,12.4299,12.4104,12.3791,12.3518,12.3401,12.3401,12.1918,12.141,12.1605,11.9614,11.899,11.9497,0.0,0.0,0.0,11.8716,11.8482,11.8287,11.8599,11.8716,11.8716,11.8912,11.8912,11.8716,0.0,0.0,0.0,0.0,0.0,0.0,0.0,0.0,0.0,0.0,0.0,0.0,0.0,0.0,0.0,0.0,0.0,0.0,0.0,0.0,0.0,0.0,0.0,0.0,0.0,0.0,0.0,0.0,0.0,0.0,0.0,0.0,0.0,0.0,0.0,0.0,0.0,0.0,0.0,0.0,0.0,0.0,0.0,0.0,0.0,0.0,0.0,0.0,0.0,0.0,0.0,0.0,0.0,0.0,0.0,0.0,9.8019,10.2212,10.6521,11.0098,11.2714,11.2714,11.0214,10.679,0.0,0.0,9.371,9.3672,9.2326,9.1979,9.448,9.4249,9.4249,9.6019,9.6288,0.0,0.0,0.0,0.0,0.0,0.0,0.0,0.0,0.0,0.0,0.0,0.0,0.0,0.0,0.0,12.6797,12.6017,12.4299,12.3791,12.4689,12.3791,12.3401,12.3401,12.2503,12.1605,12.0785,11.9888,11.9497,0.0,0.0,0.0,0.0,11.9497,11.899,11.8404,11.9185,11.9497,11.9614,12.0512,12.02,11.9497,0.0,0.0,0.0,0.0,0.0,0.0,0.0,0.0,0.0,0.0,0.0,0.0,0.0,0.0,0.0,0.0,0.0,0.0,0.0,0.0,0.0,0.0,0.0,0.0,0.0,0.0,0.0,0.0,0.0,0.0,0.0,0.0,0.0,0.0,0.0,0.0,0.0,0.0,0.0,0.0,0.0,0.0,0.0,0.0,0.0,0.0,0.0,0.0,0.0,0.0,0.0,0.0,0.0,0.0,0.0,0.0,0.0,0.0,10.1481,10.4982,10.7482,10.7482,10.579,10.3597,10.1404,0.0,9.4403,9.3826,9.2826,9.2672,9.4634,9.4287,9.4441,9.6749,9.6673,9.7057,0.0,0.0,0.0,0.0,0.0,0.0,0.0,0.0,0.0,0.0,0.0,0.0,0.0,0.0,12.5392,12.5119,12.4611,12.4104,12.3791,12.3518,12.3401,12.3401,12.2503,12.2308,12.2503,12.1098,0.0,0.0,0.0,0.0,0.0,12.0083,12.02,12.0005,12.0317,12.0395,12.0395,12.0707,12.0108,11.9207,0.0,0.0,0.0,0.0,0.0,0.0,0.0,0.0,0.0,0.0,0.0,0.0,0.0,0.0,0.0,0.0,0.0,0.0,0.0,0.0,0.0,0.0,0.0,0.0,0.0,0.0,0.0,0.0,0.0,0.0,0.0,0.0,0.0,0.0,0.0,0.0,0.0,0.0,0.0,0.0,0.0,0.0,0.0,0.0,0.0,0.0,0.0,0.0,0.0,0.0,0.0,0.0,0.0,0.0,0.0,0.0,0.0,0.0,0.0,10.2097,10.4289,10.4905,10.3597,0.0,0.0,0.0,0.0,9.4711,9.4018,9.3749,9.4788,9.4287,9.4326,9.6249,9.6403,9.6825,0.0,0.0,0.0,0.0,0.0,0.0,0.0,0.0,0.0,0.0,0.0,0.0,0.0,0.0,12.5509,12.5197,12.4611,12.4104,12.3909,12.3596,12.3401,12.3401,12.2815,12.2698,12.2894,12.18,0.0,0.0,0.0,0.0,0.0,12.1098,12.1098,12.0785,12.1215,12.1293,12.1293,12.1683,12.09,11.969,0.0,0.0,0.0,0.0,0.0,0.0,0.0,0.0,0.0,0.0,0.0,0.0,0.0,0.0,0.0,0.0,0.0,0.0,0.0,0.0,0.0,0.0,0.0,0.0,0.0,0.0,0.0,0.0,0.0,0.0,0.0,0.0,0.0,0.0,0.0,0.0,0.0,0.0,0.0,0.0,0.0,0.0,0.0,0.0,0.0,0.0,0.0,0.0,0.0,0.0,0.0,0.0,0.0,0.0,0.0,0.0,0.0,0.0,0.0,0.0,0.0,0.0,0.0,0.0,0.0,0.0,0.0,0.0,0.0,0.0,0.0,9.4326,9.3941,9.5018,9.5747,9.7122,0.0,0.0,0.0,0.0,0.0,0.0,0.0,0.0,0.0,0.0,0.0,0.0,0.0,0.0,0.0,12.59,12.4299,12.3791,12.4611,12.3791,12.3401,12.3401,12.3401,12.3011,12.2191,12.2191,0.0,0.0,0.0,0.0,0.0,12.2191,12.1683,12.1098,12.1918,12.2191,12.2308,12.3089,12.2308,12.0893,0.0,0.0,0.0,0.0,0.0,0.0,0.0,0.0,0.0,0.0,0.0,0.0,0.0,0.0,0.0,0.0,0.0,0.0,0.0,0.0,0.0,0.0,0.0,0.0,0.0,0.0,0.0,0.0,0.0,0.0,0.0,0.0,0.0,0.0,0.0,0.0,0.0,0.0,0.0,0.0,0.0,0.0,0.0,0.0,0.0,0.0,0.0,0.0,0.0,0.0,0.0,0.0,0.0,0.0,0.0,0.0,9.1056,0.0,0.0,0.0,0.0,0.0,0.0,0.0,0.0,0.0,0.0,0.0,0.0,0.0,0.0,0.0,9.3672,9.6442,9.561,9.5524,0.0,0.0,0.0,0.0,0.0,0.0,0.0,0.0,0.0,0.0,0.0,0.0,0.0,0.0,0.0,12.5002,12.3987,12.3518,12.3713,12.3518,12.3401,12.3401,12.3401,12.3284,12.3089,12.3089,0.0,0.0,0.0,0.0,12.2191,12.2815,12.3011,12.2815,12.3011,12.3089,12.3089,12.3284,12.2605,12.1514,0.0,0.0,0.0,0.0,0.0,0.0,0.0,0.0,0.0,0.0,0.0,0.0,0.0,0.0,0.0,0.0,0.0,0.0,0.0,0.0,0.0,0.0,0.0,0.0,0.0,0.0,0.0,0.0,0.0,0.0,0.0,0.0,0.0,0.0,0.0,0.0,0.0,0.0,0.0,0.0,0.0,0.0,0.0,0.0,0.0,0.0,9.0671,0.0,0.0,9.0671,9.0825,9.121,0.0,0.0,0.0,0.0,9.1518,0.0,0.0,0.0,0.0,0.0,0.0,0.0,0.0,0.0,0.0,0.0,0.0,0.0,0.0,0.0,0.0,9.5649,9.6,9.7639,0.0,0.0,0.0,0.0,0.0,0.0,0.0,0.0,0.0,0.0,0.0,0.0,0.0,0.0,0.0,0.0,12.3909,12.3401,12.3401,12.3401,12.3401,12.3401,12.3401,12.3401,12.3401,12.3401,0.0,0.0,0.0,0.0,12.2698,12.3206,12.3401,12.3401,12.3401,12.3401,12.3401,12.3401,12.2697,12.1676,0.0,0.0,0.0,0.0,0.0,0.0,0.0,0.0,0.0,0.0,0.0,0.0,0.0,0.0,0.0,0.0,0.0,0.0,0.0,0.0,0.0,0.0,0.0,0.0,0.0,0.0,0.0,0.0,0.0,0.0,0.0,0.0,0.0,0.0,0.0,0.0,0.0,0.0,0.0,0.0,0.0,0.0,0.0,0.0,0.0,0.0,0.0,0.0,0.0,9.121,9.121,9.121,9.121,0.0,0.0,0.0,0.0,0.0,0.0,0.0,0.0,0.0,0.0,0.0,0.0,0.0,0.0,0.0,0.0,0.0,0.0,0.0,0.0,0.0,0.0,0.0,0.0,0.0,0.0,0.0,0.0,0.0,0.0,0.0,0.0,0.0,0.0,0.0,0.0,0.0,0.0,0.0,12.3909,12.3401,12.3401,12.3401,12.3401,12.3401,12.3401,12.3401,12.3401,12.3401,0.0,0.0,0.0,0.0,12.3401,12.3401,12.3401,12.3401,12.3401,12.3401,12.3401,12.3401,12.2814,12.189,0.0,0.0,0.0,0.0,0.0,0.0,0.0,0.0,0.0,0.0,0.0,0.0,0.0,0.0,0.0,0.0,0.0,0.0,0.0,0.0,0.0,0.0,0.0,0.0,0.0,0.0,0.0,0.0,0.0,0.0,0.0,0.0,0.0,0.0,0.0,0.0,0.0,0.0,0.0,0.0,0.0,0.0,0.0,0.0,0.0,0.0,0.0,0.0,0.0,9.121,9.121,9.121,9.121,0.0,0.0,0.0,0.0,0.0,9.3287,0.0,0.0,0.0,0.0,0.0,0.0,0.0,0.0,0.0,0.0,0.0,0.0,0.0,0.0,0.0,0.0,0.0,0.0,0.0,0.0,0.0,0.0,0.0,0.0,0.0,0.0,0.0,0.0,0.0,0.0,0.0,0.0,0.0,0.0,12.3401,12.3401,12.3401,12.3401,12.3401,12.3401,12.3401,12.3401,12.3401,12.3401,0.0,0.0,12.3401,12.3401,12.3401,12.3401,12.3401,12.3401,12.3401,12.3401,12.3401,12.3087,12.2689,0.0,0.0,0.0,0.0,0.0,0.0,0.0,0.0,0.0,0.0,0.0,0.0,0.0,0.0,0.0,0.0,0.0,0.0,0.0,0.0,0.0,0.0,0.0,0.0,0.0,0.0,0.0,0.0,0.0,0.0,0.0,0.0,0.0,0.0,0.0,0.0,0.0,0.0,0.0,0.0,0.0,0.0,0.0,0.0,0.0,0.0,0.0,0.0,0.0,0.0,9.121,9.121,9.121,0.0,0.0,0.0,0.0,0.0,9.3364,9.398,0.0,0.0,0.0,0.0,0.0,0.0,0.0,0.0,0.0,0.0,0.0,0.0,0.0,0.0,0.0,0.0,0.0,0.0,0.0,0.0,0.0,0.0,0.0,0.0,0.0,0.0,0.0,0.0,0.0,0.0,0.0,0.0,0.0,12.3401,12.3401,12.3401,12.3401,12.3401,12.3401,12.3401,12.3401,12.3401,12.3401,12.3401,0.0,12.3401,12.3401,12.3401,12.3401,12.3401,12.3401,12.3401,12.3391,12.3217,12.3012,12.2708,0.0,0.0,0.0,0.0,0.0,0.0,0.0,0.0,0.0,0.0,0.0,0.0,0.0,0.0,0.0,0.0,0.0,0.0,0.0,0.0,0.0,0.0,0.0,0.0,0.0,0.0,0.0,0.0,0.0,0.0,0.0,0.0,0.0,0.0,0.0,0.0,0.0,0.0,0.0,0.0,0.0,0.0,0.0,0.0,0.0,0.0,0.0,0.0,0.0,0.0,0.0,0.0,0.0,0.0,0.0,0.0,9.2672,9.1825,9.3287,9.3826,0.0,0.0,0.0,0.0,0.0,0.0,0.0,0.0,0.0,0.0,0.0,0.0,0.0,0.0,0.0,0.0,0.0,0.0,0.0,0.0,0.0,0.0,0.0,0.0,0.0,0.0,0.0,0.0,0.0,0.0,0.0,0.0,0.0,0.0,12.3401,12.3401,12.3401,12.3401,12.3401,12.3401,12.3401,12.3401,12.3401,12.3401,12.3401,12.3401,12.3401,12.3401,12.3401,12.3401,12.3401,12.3401,12.3391,12.3012,12.2822,12.251,0.0,0.0,0.0,0.0,0.0,0.0,0.0,0.0,0.0,0.0,0.0,0.0,0.0,0.0,0.0,0.0,0.0,0.0,0.0,0.0,0.0,0.0,0.0,0.0,0.0,0.0,0.0,0.0,0.0,0.0,0.0,0.0,0.0,0.0,0.0,0.0,0.0,0.0,0.0,0.0,0.0,0.0,0.0,0.0,0.0,0.0,0.0,0.0,0.0,0.0,0.0,0.0,0.0,0.0,0.0,0.0,0.0,9.2595,9.3441,9.4287,9.4903,0.0,0.0,0.0,0.0,0.0,0.0,0.0,0.0,0.0,0.0,0.0,0.0,0.0,0.0,0.0,0.0,0.0,0.0,0.0,0.0,0.0,0.0,0.0,0.0,0.0,0.0,0.0,0.0,0.0,0.0,0.0,0.0,0.0,12.3401,12.3401,12.3401,12.3401,12.3401,12.3401,12.3401,12.3401,12.3401,12.3401,12.3401,12.3401,12.3401,12.3401,12.3401,12.3401,12.3401,12.3401,12.3391,12.3012,12.2615,12.2188,0.0,0.0,0.0,0.0,0.0,0.0,0.0,0.0,0.0,0.0,0.0,0.0,0.0,0.0,0.0,0.0,0.0,0.0,0.0,0.0,0.0,0.0,0.0,0.0,0.0,0.0,0.0,0.0,0.0,0.0,0.0,0.0,0.0,0.0,0.0,0.0,0.0,0.0,0.0,0.0,0.0,0.0,0.0,0.0,0.0,0.0,0.0,0.0,0.0,0.0,9.121,0.0,0.0,0.0,0.0,0.0,0.0,9.1864,9.271,9.3557,9.4326,9.4864,0.0,0.0,0.0,0.0,0.0,0.0,0.0,0.0,0.0,0.0,0.0,0.0,0.0,0.0,0.0,0.0,0.0,0.0,0.0,0.0,0.0,0.0,0.0,0.0,0.0,0.0,0.0,0.0,0.0,0.0,0.0,0.0,12.3401,12.3401,12.3401,12.3401,12.3401,12.3401,12.3401,12.3401,12.3401,12.3401,12.3401,12.3401,12.3401,12.3401,12.3401,12.3401,12.3401,12.3401,12.3401,12.3308,12.3097,12.2785,0.0,0.0,0.0,0.0,0.0,0.0,0.0,0.0,0.0,0.0,0.0,0.0,0.0,0.0,0.0,0.0,0.0,0.0,0.0,0.0,0.0,0.0,0.0,0.0,0.0,0.0,0.0,0.0,0.0,0.0,0.0,0.0,0.0,0.0,0.0,0.0,0.0,0.0,0.0,0.0,0.0,0.0,0.0,0.0,0.0,0.0,0.0,0.0,0.0,0.0,0.0,0.0,0.0,0.0,0.0,0.0,0.0,0.0,9.1941,9.2672,9.3518,9.4364,0.0,0.0,0.0,0.0,0.0,0.0,0.0,0.0,0.0,0.0,0.0,0.0,0.0,0.0,0.0,0.0,0.0,0.0,0.0,0.0,0.0,0.0,0.0,0.0,0.0,0.0,0.0,0.0,0.0,0.0,0.0,0.0,12.3401,12.3401,12.3401,12.3401,12.3401,12.3401,12.3401,12.3401,12.3401,12.3401,12.3401,12.3401,12.3401,12.3401,12.3401,12.3401,12.3401,12.3401,12.3401,12.3401,12.3206,12.2902,0.0,0.0,0.0,0.0,0.0,0.0,0.0,0.0,0.0,0.0,0.0,0.0,0.0,0.0,0.0,0.0,0.0,0.0,0.0,0.0,0.0,0.0,0.0,0.0,0.0,0.0,0.0,0.0,0.0,0.0,0.0,0.0,0.0,0.0,0.0,0.0,0.0,0.0,0.0,0.0,0.0,0.0,0.0,0.0,0.0,0.0,0.0,0.0,0.0,0.0,0.0,0.0,0.0,0.0,0.0,0.0,9.1864,9.121,9.121,9.1825,9.2672,0.0,0.0,0.0,0.0,0.0,0.0,0.0,0.0,0.0,0.0,0.0,0.0,0.0,0.0,0.0,0.0,0.0,0.0,0.0,0.0,0.0,0.0,0.0,0.0,0.0,0.0,0.0,0.0,0.0,0.0,0.0,0.0,0.0,12.3401,12.3401,12.3401,12.3401,12.3401,12.3401,12.3401,12.3401,12.3401,12.3401,12.3401,12.3401,12.3401,12.3401,12.3401,12.3401,12.3401,12.3401,12.3401,12.3401,12.2894,12.221,0.0,0.0,0.0,0.0,0.0,0.0,0.0,0.0,0.0,0.0,0.0,0.0,0.0,0.0,0.0,0.0,0.0,0.0,0.0,0.0,0.0,0.0,0.0,0.0,0.0,0.0,0.0,0.0,0.0,0.0,0.0,0.0,0.0,0.0,0.0,0.0,0.0,0.0,0.0,0.0,0.0,0.0,0.0,0.0,0.0,0.0,0.0,0.0,0.0,0.0,0.0,0.0,0.0,0.0,0.0,9.2793,9.2341,9.1657,9.1475,0.0,0.0,0.0,0.0,0.0,0.0,0.0,0.0,0.0,0.0,0.0,0.0,0.0,0.0,0.0,0.0,0.0,0.0,0.0,0.0,0.0,0.0,0.0,0.0,0.0,0.0,0.0,0.0,0.0,0.0,0.0,0.0,0.0,0.0,0.0,12.3401,12.3401,12.3401,12.3401,12.3401,12.3401,12.3401,12.3401,12.3401,12.3401,12.3401,12.3401,12.3401,12.3401,12.3401,12.3401,12.3401,12.3401,12.3401,12.3401,12.3206,12.298,0.0,0.0,0.0,0.0,0.0,0.0,0.0,0.0,0.0,0.0,0.0,0.0,0.0,0.0,0.0,0.0,0.0,0.0,0.0,0.0,0.0,0.0,0.0,0.0,0.0,8.6189,8.7479,0.0,0.0,0.0,0.0,0.0,0.0,0.0,0.0,0.0,0.0,0.0,0.0,0.0,0.0,0.0,0.0,0.0,0.0,0.0,0.0,0.0,0.0,0.0,0.0,0.0,0.0,0.0,0.0,9.2882,9.2304,9.1562,0.0,0.0,0.0,0.0,0.0,0.0,0.0,0.0,0.0,0.0,0.0,0.0,0.0,0.0,0.0,0.0,0.0,0.0,0.0,0.0,0.0,0.0,0.0,0.0,0.0,0.0,0.0,0.0,0.0,0.0,0.0,0.0,0.0,0.0,0.0,0.0,12.3401,12.3401,12.3401,12.3401,12.3401,12.3401,12.3401,12.3401,12.3401,12.3401,12.3401,12.3401,12.3401,12.3401,12.3401,12.3401,12.3011,12.3089,12.3401,12.3011,12.3089,12.3292,0.0,0.0,0.0,0.0,0.0,0.0,0.0,0.0,0.0,0.0,0.0,0.0,0.0,0.0,0.0,0.0,0.0,0.0,0.0,0.0,0.0,0.0,0.0,0.0,0.0,0.0,0.0,0.0,0.0,0.0,0.0,0.0,0.0,0.0,0.0,0.0,0.0,0.0,0.0,0.0,0.0,0.0,0.0,0.0,0.0,0.0,0.0,0.0,0.0,0.0,0.0,0.0,0.0,0.0,0.0,9.2676,9.2054,0.0,0.0,0.0,0.0,0.0,0.0,0.0,0.0,0.0,0.0,0.0,0.0,0.0,0.0,0.0,0.0,0.0,0.0,0.0,0.0,0.0,0.0,0.0,0.0,0.0,0.0,0.0,0.0,0.0,0.0,0.0,0.0,0.0,0.0,0.0,0.0,0.0,12.3401,12.3401,12.3401,0.0,12.3401,12.3401,12.3284,12.3401,12.3401,12.3401,12.3401,12.3401,12.3284,12.3284,12.3206,12.3089,12.2386,12.2581,12.3206,12.2503,12.2698,12.3292,0.0,0.0,0.0,0.0,0.0,0.0,0.0,0.0,0.0,0.0,0.0,0.0,0.0,0.0,0.0,0.0,0.0,0.0,0.0,0.0,0.0,0.0,0.0,0.0,0.0,0.0,0.0,0.0,0.0,0.0,0.0,0.0,0.0,0.0,0.0,0.0,0.0,0.0,0.0,0.0,0.0,0.0,0.0,0.0,0.0,0.0,0.0,0.0,0.0,0.0,0.0,0.0,0.0,9.2503,9.283,9.2674,9.2852,0.0,0.0,0.0,0.0,0.0,0.0,0.0,0.0,0.0,0.0,0.0,0.0,0.0,0.0,0.0,0.0,0.0,0.0,0.0,0.0,0.0,0.0,0.0,0.0,0.0,0.0,0.0,0.0,0.0,0.0,0.0,0.0,0.0,0.0,0.0,0.0,12.3401,12.3401,12.3401,12.3401,0.0,12.3401,12.3011,12.2386,12.3089,12.3401,12.3401,12.3401,12.3011,12.2386,12.2386,12.1996,12.141,12.1918,12.2191,12.2386,12.2894,12.3206,12.3292,0.0,0.0,0.0,0.0,0.0,0.0,0.0,0.0,0.0,0.0,0.0,0.0,0.0,0.0,0.0,0.0,0.0,0.0,0.0,0.0,0.0,0.0,0.0,0.0,0.0,0.0,0.0,0.0,0.0,0.0,0.0,0.0,0.0,0.0,0.0,0.0,0.0,0.0,0.0,0.0,0.0,0.0,0.0,0.0,0.0,0.0,0.0,0.0,0.0,0.0,0.0,0.0,0.0,0.0,9.2539,9.2975,9.3146,0.0,0.0,0.0,0.0,0.0,0.0,0.0,0.0,0.0,0.0,0.0,0.0,0.0,0.0,0.0,0.0,0.0,0.0,0.0,0.0,0.0,0.0,0.0,0.0,0.0,0.0,0.0,0.0,0.0,0.0,0.0,0.0,0.0,0.0,0.0,12.3206,12.3206,12.2815,12.3206,12.3011,12.2191,12.2581,12.2503,12.2113,12.2581,12.3011,12.3401,12.3011,12.2815,12.2698,12.18,12.1683,12.1996,12.1215,12.1605,12.2581,12.18,12.2199,12.3005,0.0,0.0,0.0,0.0,0.0,0.0,0.0,0.0,0.0,0.0,0.0,0.0,0.0,0.0,0.0,0.0,0.0,0.0,0.0,0.0,0.0,0.0,0.0,0.0,0.0,0.0,0.0,0.0,0.0,0.0,0.0,0.0,0.0,0.0,0.0,0.0,0.0,0.0,0.0,0.0,0.0,0.0,0.0,0.0,0.0,0.0,0.0,0.0,0.0,0.0,0.0,0.0,0.0,0.0,9.178,9.3185,9.3185,9.3419,0.0,0.0,0.0,0.0,0.0,0.0,0.0,0.0,0.0,0.0,0.0,0.0,0.0,0.0,0.0,0.0,0.0,0.0,0.0,0.0,0.0,0.0,0.0,0.0,0.0,0.0,0.0,0.0,0.0,0.0,0.0,0.0,12.2503,12.2894,12.3206,12.2894,12.1918,12.2698,12.2386,12.0785,12.141,12.1683,12.1918,12.1683,12.2191,12.3089,12.2308,12.2191,12.2581,12.1215,12.1293,12.2308,12.0512,12.101,12.2707,12.0815,12.1292,12.2786,0.0,0.0,0.0,0.0,0.0,0.0,0.0,0.0,0.0,0.0,0.0,0.0,0.0,0.0,0.0,0.0,0.0,0.0,0.0,0.0,0.0,0.0,0.0,0.0,0.0,0.0,0.0,0.0,0.0,0.0,0.0,0.0,0.0,0.0,0.0,0.0,0.0,0.0,0.0,0.0,0.0,0.0,0.0,0.0,0.0,0.0,0.0,0.0,0.0,0.0,0.0,0.0,0.0,0.0,0.0,0.0,0.0,0.0,0.0,0.0,0.0,0.0,0.0,0.0,0.0,0.0,0.0,0.0,0.0,0.0,0.0,0.0,0.0,0.0,0.0,0.0,0.0,0.0,0.0,0.0,0.0,0.0,0.0,0.0,0.0,0.0,0.0,0.0,0.0,12.2894,12.2581,12.1215,12.2581,12.2581,12.0981,12.18,12.18,12.0785,12.02,12.02,12.0903,12.02,12.0707,12.2191,12.141,12.059,12.0005,11.981,11.9419,11.9107,12.02,12.0681,12.1007,12.2394,12.2892,12.2786,0.0,0.0,0.0,0.0,0.0,0.0,0.0,0.0,0.0,0.0,0.0,0.0,0.0,0.0,0.0,0.0,0.0,0.0,0.0,0.0,0.0,0.0,0.0,0.0,0.0,0.0,0.0,0.0,0.0,0.0,0.0,8.9242,9.1037,0.0,0.0,0.0,0.0,0.0,0.0,0.0,0.0,0.0,0.0,0.0,0.0,0.0,0.0,0.0,0.0,0.0,0.0,0.0,0.0,0.0,0.0,0.0,0.0,0.0,0.0,0.0,0.0,0.0,0.0,0.0,0.0,0.0,0.0,0.0,0.0,0.0,0.0,0.0,0.0,0.0,0.0,0.0,0.0,0.0,0.0,0.0,0.0,0.0,0.0,0.0,0.0,0.0,0.0,0.0,12.2113,12.2503,12.2113,12.0785,12.1488,12.1293,12.0083,12.0903,12.0903,12.0083,11.9185,11.9302,12.0005,11.9185,11.981,12.1293,12.0512,12.0083,12.02,11.9185,11.9185,11.9692,11.9497,12.0209,12.1292,12.1195,12.178,12.2608,0.0,0.0,0.0,0.0,0.0,0.0,0.0,0.0,0.0,0.0,0.0,0.0,0.0,0.0,0.0,0.0,0.0,0.0,0.0,0.0,0.0,0.0,0.0,0.0,0.0,0.0,0.0,0.0,0.0,0.0,8.9047,9.014,9.2131,0.0,9.2561,0.0,0.0,0.0,0.0,0.0,0.0,0.0,0.0,0.0,0.0,0.0,0.0,0.0,0.0,0.0,0.0,0.0,0.0,0.0,0.0,0.0,0.0,0.0,0.0,0.0,0.0,0.0,0.0,0.0,0.0,0.0,0.0,0.0,0.0,0.0,0.0,0.0,0.0,0.0,0.0,0.0,0.0,0.0,0.0,0.0,0.0,0.0,0.0,0.0,0.0,0.0,0.0,0.0,12.2113,12.2113,12.1605,12.0512,12.0707,12.0317,11.9185,11.981,11.981,11.9185,11.8599,11.8599,11.9185,11.8599,11.899,12.0083,11.9497,11.9614,12.0083,11.8795,11.899,12.0083,11.9194,11.9901,12.1396,12.0615,12.1187,12.2294,0.0,0.0,0.0,0.0,0.0,0.0,0.0,0.0,0.0,0.0,0.0,0.0,0.0,0.0,0.0,0.0,0.0,0.0,0.0,0.0,0.0,0.0,0.0,0.0,0.0,0.0,0.0,0.0,0.0,0.0,8.9984,9.1624,9.42,9.7362,9.3966,9.338,9.4747,0.0,0.0,0.0,0.0,0.0,0.0,0.0,0.0,0.0,0.0,0.0,0.0,0.0,0.0,0.0,0.0,0.0,0.0,0.0,0.0,0.0,0.0,0.0,0.0,0.0,0.0,0.0,0.0,0.0,0.0,0.0,0.0,0.0,0.0,0.0,0.0,0.0,0.0,0.0,0.0,0.0,0.0,0.0,0.0,0.0,0.0,0.0,0.0,0.0,0.0,0.0,12.2113,12.2113,12.1293,11.9614,12.0395,12.0005,11.8404,11.8404,11.8404,11.8404,11.8287,11.8287,11.8404,11.8287,11.8287,11.8404,11.8404,11.8404,11.8404,11.8287,11.8404,11.859,11.9792,12.021,12.0185,12.1779,12.2194,12.2002,0.0,0.0,0.0,0.0,0.0,0.0,0.0,0.0,0.0,0.0,0.0,0.0,0.0,0.0,0.0,0.0,0.0,0.0,0.0,0.0,0.0,0.0,0.0,0.0,0.0,0.0,0.0,0.0,0.0,8.7446,8.9203,9.1467,9.4044,9.6777,9.4981,9.4825,9.5684,9.1702,0.0,0.0,0.0,0.0,0.0,0.0,0.0,0.0,0.0,0.0,0.0,0.0,0.0,0.0,0.0,0.0,0.0,0.0,0.0,0.0,0.0,0.0,0.0,0.0,0.0,0.0,0.0,0.0,0.0,0.0,0.0,0.0,0.0,0.0,0.0,0.0,0.0,0.0,0.0,0.0,0.0,0.0,0.0,0.0,0.0,0.0,0.0,0.0,0.0,0.0,12.0512,12.0981,12.0512,11.8795,11.899,11.8912,11.8287,11.8287,11.8287,11.8287,11.8287,11.8287,11.8287,11.8287,11.8287,11.8287,11.8287,11.8287,11.8287,11.8287,11.8287,11.8404,11.891,11.9289,11.9799,12.0798,12.1288,12.1503,0.0,0.0,0.0,0.0,0.0,0.0,0.0,0.0,0.0,0.0,0.0,0.0,0.0,0.0,0.0,0.0,0.0,0.0,0.0,0.0,0.0,0.0,0.0,0.0,0.0,0.0,0.0,0.0,0.0,0.0,0.0,0.0,9.3185,9.5957,9.5371,0.0,0.0,0.0,0.0,9.1975,0.0,0.0,9.0413,0.0,0.0,0.0,0.0,0.0,0.0,0.0,0.0,0.0,0.0,0.0,0.0,0.0,0.0,0.0,0.0,0.0,0.0,0.0,0.0,0.0,0.0,0.0,0.0,0.0,0.0,0.0,0.0,0.0,0.0,0.0,0.0,0.0,0.0,0.0,0.0,0.0,0.0,0.0,0.0,0.0,0.0,0.0,0.0,0.0,11.9614,12.059,12.0512,11.8795,11.8404,11.8287,11.8287,11.8287,11.8287,11.8287,11.8287,11.8287,11.8287,11.8287,11.8287,11.8287,11.8287,11.8287,11.8287,11.8287,11.8287,11.8287,11.852,11.8782,11.9308,12.0188,12.0684,12.0987,0.0,0.0,0.0,0.0,0.0,0.0,0.0,0.0,0.0,0.0,0.0,0.0,0.0,0.0,0.0,0.0,0.0,0.0,0.0,0.0,0.0,0.0,0.0,0.0,0.0,0.0,0.0,0.0,0.0,0.0,0.0,0.0,9.1741,0.0,9.502,9.6933,9.9939,0.0,0.0,9.6113,0.0,9.299,9.3771,0.0,0.0,0.0,9.2795,9.2482,0.0,0.0,0.0,0.0,0.0,0.0,0.0,0.0,0.0,0.0,0.0,0.0,0.0,0.0,0.0,0.0,0.0,0.0,0.0,0.0,0.0,0.0,0.0,0.0,0.0,0.0,0.0,0.0,0.0,0.0,0.0,0.0,0.0,0.0,0.0,0.0,0.0,0.0,0.0,12.1293,11.9614,12.1098,12.1215,11.9614,11.8716,11.8287,11.8287,11.8287,11.8287,11.8287,11.8287,11.8287,11.8287,11.8287,11.8287,11.8287,11.8287,11.8287,11.8287,11.8287,11.8287,11.8317,11.8918,11.8904,11.8898,12.029,12.057,12.0369,0.0,0.0,0.0,0.0,0.0,0.0,0.0,0.0,0.0,0.0,0.0,0.0,0.0,0.0,0.0,0.0,0.0,0.0,0.0,0.0,0.0,0.0,0.0,0.0,0.0,0.0,0.0,0.0,0.0,0.0,0.0,0.0,0.0,0.0,9.3341,9.4708,9.5527,9.4161,0.0,0.0,0.0,9.2131,0.0,0.0,0.0,0.0,0.0,9.2482,0.0,0.0,9.178,9.1311,0.0,0.0,0.0,0.0,0.0,0.0,9.2795,0.0,0.0,0.0,0.0,0.0,0.0,0.0,0.0,0.0,0.0,0.0,0.0,0.0,0.0,0.0,0.0,0.0,0.0,0.0,0.0,0.0,0.0,0.0,0.0,0.0,0.0,0.0,12.0785,12.1293,11.9614,12.0005,12.0005,11.9497,11.8716,11.8287,11.8287,11.8287,11.8287,11.8287,11.8287,11.8287,11.8287,11.8287,11.8287,11.8287,11.8287,11.8287,11.8287,11.8287,11.8207,11.7998,11.8418,11.8616,11.881,11.9811,12.0406,12.0688,0.0,0.0,0.0,0.0,0.0,0.0,0.0,0.0,0.0,0.0,0.0,0.0,0.0,0.0,0.0,0.0,0.0,0.0,0.0,0.0,0.0,0.0,0.0,0.0,0.0,0.0,0.0,0.0,0.0,0.0,0.0,0.0,0.0,0.0,0.0,0.0,0.0,0.0,0.0,0.0,9.3341,0.0,0.0,9.4122,9.4122,0.0,0.0,0.0,9.4591,9.4239,9.381,0.0,0.0,0.0,0.0,0.0,0.0,0.0,0.0,0.0,0.0,0.0,0.0,0.0,0.0,10.2593,0.0,0.0,0.0,0.0,0.0,0.0,0.0,0.0,0.0,0.0,0.0,0.0,0.0,0.0,0.0,0.0,0.0,0.0,0.0,0.0,12.0707,12.1683,12.059,11.9888,11.9497,11.9497,11.8716,11.8287,11.8287,11.8287,11.8287,11.8287,11.8287,11.8287,11.8287,11.8287,11.8287,11.8287,11.8287,11.8287,11.8287,11.8079,11.808,11.7988,11.819,11.82,11.8293,11.9082,11.9505,11.9603,0.0,0.0,0.0,0.0,0.0,0.0,0.0,0.0,0.0,0.0,0.0,0.0,0.0,0.0,0.0,0.0,0.0,0.0,0.0,0.0,0.0,0.0,0.0,0.0,0.0,0.0,0.0,0.0,0.0,0.0,0.0,0.0,0.0,0.0,0.0,0.0,0.0,0.0,0.0,9.3615,9.4786,9.5801,0.0,0.0,9.6816,0.0,9.6816,9.7323,9.7831,9.6855,0.0,0.0,0.0,0.0,0.0,0.0,9.3107,0.0,0.0,0.0,0.0,0.0,0.0,0.0,10.072,10.15,10.2281,0.0,0.0,0.0,0.0,0.0,0.0,0.0,0.0,0.0,0.0,0.0,0.0,0.0,0.0,0.0,0.0,0.0,11.9497,11.8599,12.0707,12.1996,12.1996,12.0395,11.9497,11.9497,11.8716,11.8287,11.8287,11.8287,11.8287,11.8287,11.8287,11.8287,11.8287,11.8287,11.8287,11.8287,11.8287,11.8278,11.819,11.7998,11.7988,11.819,11.819,11.7894,11.7578,11.8383,11.84,11.8215,0.0,0.0,0.0,0.0,0.0,0.0,0.0,0.0,0.0,0.0,0.0,0.0,0.0,0.0,0.0,0.0,0.0,0.0,0.0,0.0,0.0,0.0,0.0,0.0,0.0,0.0,0.0,0.0,0.0,0.0,0.0,0.0,0.0,0.0,0.0,0.0,0.0,0.0,0.0,9.2053,9.4981,0.0,0.0,9.9275,9.9548,9.9548,9.9548,9.9666,9.9548,0.0,9.6972,9.6074,0.0,0.0,0.0,0.0,0.0,0.0,0.0,0.0,0.0,0.0,0.0,0.0,9.6503,9.7558,9.9275,0.0,0.0,0.0,0.0,0.0,0.0,0.0,0.0,0.0,0.0,0.0,0.0,0.0,0.0,0.0,0.0,0.0,12.1215,12.0395,12.0785,12.1098,12.1098,12.0083,11.9497,11.9497,11.8716,11.8287,11.8287,11.8287,11.8287,11.8287,11.8287,11.8287,11.8287,11.8287,11.8287,11.8287,11.8287,11.8079,11.7904,11.8106,11.8093,11.7888,11.7888,11.8018,11.8121,11.8491,11.9213,11.9715,0.0,0.0,0.0,0.0,0.0,0.0,0.0,0.0,0.0,0.0,0.0,0.0,0.0,0.0,0.0,0.0,0.0,0.0,0.0,0.0,0.0,0.0,0.0,0.0,0.0,0.0,0.0,0.0,0.0,0.0,0.0,0.0,0.0,0.0,0.0,0.0,0.0,0.0,9.0726,9.217,9.5176,0.0,9.8494,9.9783,10.029,10.029,10.029,10.029,10.0212,9.9744,9.8768,0.0,0.0,9.5449,9.5098,0.0,9.4786,9.4552,0.0,0.0,0.0,9.5527,0.0,0.0,0.0,9.6738,9.7792,0.0,0.0,0.0,0.0,0.0,0.0,0.0,0.0,0.0,0.0,0.0,0.0,0.0,0.0,0.0,0.0,0.0,12.0785,12.0785,12.0785,12.059,12.02,11.9692,11.9302,11.8912,11.8482,11.8287,11.8287,11.8287,11.8287,11.8287,11.8287,11.8287,11.8287,11.8287,11.8287,11.8287,11.7819,11.7716,11.7798,11.7408,11.7391,11.7581,11.7515,11.7497,11.7591,11.7521,11.8091,11.8985,0.0,0.0,0.0,0.0,0.0,0.0,0.0,0.0,0.0,0.0,0.0,0.0,0.0,0.0,0.0,0.0,0.0,0.0,0.0,0.0,0.0,0.0,0.0,8.3504,0.0,0.0,0.0,0.0,0.0,0.0,0.0,0.0,0.0,0.0,0.0,0.0,0.0,0.0,0.0,9.299,0.0,9.6972,9.7675,9.9588,10.029,10.029,10.0681,10.0798,10.0798,10.1188,0.0,9.9041,9.7831,9.7558,0.0,0.0,0.0,0.0,0.0,0.0,0.0,0.0,0.0,9.6542,0.0,0.0,0.0,9.9197,0.0,0.0,0.0,0.0,0.0,0.0,0.0,0.0,0.0,0.0,0.0,0.0,0.0,0.0,0.0,0.0,11.9419,12.0512,12.0317,11.981,11.9302,11.9302,11.899,11.8287,11.8287,11.8287,11.8287,11.8287,11.8287,11.8287,11.8287,11.8287,11.8287,11.8092,11.8092,11.8209,11.7194,11.7118,11.7625,11.6618,11.6584,11.7295,11.6902,11.6913,11.7204,11.65,11.7091,11.8292,0.0,0.0,0.0,0.0,0.0,0.0,0.0,0.0,0.0,0.0,0.0,0.0,0.0,0.0,0.0,0.0,0.0,0.0,8.4558,0.0,0.0,0.0,0.0,0.0,8.3504,0.0,0.0,0.0,0.0,0.0,0.0,0.0,0.0,0.0,8.8305,0.0,0.0,0.0,9.2131,0.0,9.6503,9.7167,0.0,9.9353,10.029,10.0485,10.2008,10.2515,10.2281,0.0,10.029,9.9744,0.0,9.7089,0.0,0.0,0.0,0.0,0.0,0.0,0.0,0.0,9.9744,0.0,0.0,0.0,9.8338,9.7089,0.0,0.0,0.0,0.0,0.0,0.0,0.0,0.0,0.0,0.0,0.0,0.0,0.0,0.0,0.0,0.0,11.7897,11.9497,11.8287,11.7701,11.8404,11.8404,11.8404,11.8287,11.8287,11.8287,11.8287,11.8287,11.8287,11.8287,11.8287,11.8287,11.8287,11.7506,11.7584,11.8209,11.6608,11.6516,11.74,11.6689,11.6701,11.7007,11.6218,11.6809,11.802,11.7204,11.8178,11.9985,0.0,0.0,0.0,0.0,0.0,0.0,0.0,0.0,0.0,0.0,0.0,0.0,0.0,0.0,0.0,0.0,0.0,0.0,0.0,0.0,0.0,0.0,0.0,0.0,0.0,0.0,0.0,0.0,8.5299,0.0,0.0,0.0,0.0,0.0,8.854,0.0,9.096,0.0,0.0,0.0,0.0,0.0,0.0,10.0212,10.1813,10.1813,10.2515,10.2789,10.2593,0.0,10.0993,0.0,0.0,0.0,0.0,0.0,0.0,0.0,0.0,0.0,0.0,0.0,0.0,0.0,0.0,0.0,9.8182,0.0,0.0,0.0,0.0,0.0,0.0,0.0,0.0,0.0,0.0,0.0,0.0,0.0,0.0,0.0,0.0,0.0,0.0,0.0,0.0,11.6608,11.7506,11.8014,11.8287,11.8287,11.8287,11.8287,11.8287,11.8287,11.8287,11.8287,11.8287,11.8287,11.8287,11.7897,11.7701,11.7506,11.6218,11.6111,11.6584,11.5816,11.5987,11.6591,11.582,11.6634,11.8097,11.7323,11.81,11.96,0.0,0.0,0.0,0.0,0.0,0.0,0.0,0.0,0.0,0.0,0.0,0.0,9.1155,9.0531,0.0,0.0,0.0,8.8611,0.0,0.0,0.0,0.0,0.0,0.0,0.0,0.0,0.0,0.0,0.0,0.0,0.0,0.0,0.0,0.0,0.0,9.0882,9.2912,0.0,0.0,9.5371,9.6855,9.7518,9.7909,10.1188,10.2711,10.3218,10.3413,10.3413,10.3101,10.2398,10.2398,0.0,10.2008,0.0,0.0,0.0,0.0,0.0,10.0798,0.0,0.0,0.0,0.0,0.0,0.0,0.0,0.0,0.0,0.0,0.0,0.0,0.0,0.0,0.0,0.0,0.0,0.0,0.0,0.0,0.0,0.0,0.0,0.0,0.0,0.0,0.0,11.4188,11.4695,11.6491,11.7194,11.778,11.8287,11.8287,11.8287,11.8287,11.8287,11.8287,11.8287,11.8287,11.8209,11.7897,11.7897,11.7506,11.6608,11.5916,11.5789,11.5975,11.5308,11.5691,11.6582,11.5874,11.6707,11.8099,11.7098,11.79,11.9408,0.0,8.2293,0.0,0.0,0.0,0.0,0.0,0.0,0.0,0.0,0.0,0.0,0.0,0.0,0.0,0.0,0.0,9.1194,9.1116,0.0,8.6549,0.0,0.0,0.0,0.0,0.0,0.0,0.0,0.0,0.0,0.0,0.0,0.0,0.0,0.0,9.2873,9.3927,9.6464,9.8026,9.8924,9.9822,10.1618,10.3608,0.0,10.2593,10.4194,10.5014,0.0,0.0,10.3999,10.4584,0.0,0.0,0.0,0.0,0.0,0.0,0.0,0.0,0.0,0.0,0.0,0.0,0.0,0.0,0.0,10.0681,0.0,0.0,0.0,0.0,0.0,0.0,0.0,0.0,0.0,0.0,0.0,0.0,0.0,0.0,0.0,0.0,0.0,0.0,11.1689,11.0401,11.1299,11.5515,11.5789,11.6608,11.8209,11.8287,11.8287,11.8287,11.8287,11.8287,11.8287,11.8287,11.7897,11.6999,11.6999,11.6608,11.571,11.5385,11.5617,11.6091,11.5797,11.6201,11.69,11.6582,11.7208,11.8101,11.689,11.81,12.0216,0.0,0.0,0.0,0.0,0.0,0.0,0.0,8.5651,0.0,0.0,0.0,0.0,0.0,0.0,9.6822,0.0,0.0,9.5593,9.3876,9.1865,0.0,0.0,0.0,8.7056,0.0,0.0,0.0,0.0,0.0,0.0,0.0,0.0,0.0,0.0,0.0,9.2795,0.0,0.0,0.0,0.0,0.0,10.3882,10.6419,0.0,0.0,10.5014,10.5287,10.5209,0.0,10.5014,10.5209,10.5287,10.4702,10.4702,10.4819,10.4311,10.4897,0.0,0.0,0.0,10.802,10.4506,0.0,0.0,0.0,0.0,0.0,0.0,0.0,0.0,0.0,0.0,0.0,0.0,0.0,0.0,0.0,0.0,0.0,0.0,0.0,0.0,0.0,0.0,0.0,10.9894,10.8605,10.9191,0.0,11.368,11.4813,11.6491,11.7116,11.7701,11.8287,11.8287,11.8287,11.8287,11.8287,11.8092,11.7819,11.7311,11.6491,11.571,11.5307,11.5189,11.5314,11.5604,11.6132,11.6701,11.6534,11.7073,11.7896,11.7491,11.7907,11.8484,8.3465,0.0,0.0,0.0,0.0,0.0,0.0,0.0,0.0,0.0,9.3903,0.0,0.0,0.0,10.081,0.0,10.1384,9.9367,9.6129,9.5222,0.0,0.0,9.0413,0.0,0.0,0.0,0.0,0.0,0.0,8.8188,0.0,0.0,0.0,0.0,0.0,0.0,0.0,0.0,10.0095,0.0,0.0,10.5287,0.0,0.0,10.5599,0.0,0.0,10.6107,10.5912,10.6185,10.6302,10.6302,10.6302,10.6302,10.6302,10.599,10.6693,10.7512,10.6888,10.8605,0.0,0.0,10.6614,0.0,0.0,0.0,0.0,0.0,0.0,0.0,0.0,0.0,0.0,0.0,0.0,0.0,0.0,0.0,0.0,0.0,0.0,0.0,0.0,0.0,10.5287,10.7317,10.638,10.7317,0.0,0.0,11.329,11.5593,11.6491,11.7389,11.8287,11.8287,11.8287,11.8287,11.8014,11.7701,11.7389,11.6998,11.6178,11.5311,11.5697,11.5418,11.4782,11.5312,11.5779,11.6099,11.6099,11.6688,11.751,11.7375,11.7292,11.7292,0.0,0.0,0.0,0.0,8.3504,0.0,0.0,0.0,9.0929,0.0,9.6207,9.8497,10.0292,10.1891,10.3217,10.4115,0.0,0.0,9.8256,9.8791,0.0,0.0,9.3654,9.4044,0.0,0.0,0.0,0.0,0.0,0.0,0.0,0.0,0.0,0.0,9.2639,0.0,9.6542,9.9978,10.2515,10.4194,10.5209,10.6107,10.681,10.681,0.0,10.8098,10.802,10.7512,10.7005,10.7786,10.8098,10.8098,10.8098,10.8098,10.802,10.7083,10.8098,10.9113,10.7512,10.8918,11.0401,10.8684,0.0,0.0,0.0,0.0,10.7317,0.0,0.0,0.0,0.0,0.0,0.0,0.0,0.0,0.0,0.0,0.0,0.0,0.0,0.0,0.0,0.0,10.2789,10.3218,10.3999,10.4116,10.5482,0.0,0.0,11.2002,11.5398,11.6413,11.7389,11.8287,11.8287,11.8287,11.8287,11.7506,11.6608,11.5818,11.6321,11.5775,11.4589,11.6219,11.6095,11.4782,11.5205,11.5291,11.5291,11.5297,11.6015,11.7014,11.6704,11.649,11.6606,8.366,0.0,0.0,0.0,0.0,8.4323,0.0,0.0,0.0,0.0,9.8821,10.1606,10.4584,10.5312,10.5897,10.6806,10.6911,0.0,0.0,0.0,0.0,9.9314,9.8221,9.7362,9.6699,9.4591,0.0,9.2834,0.0,0.0,9.0609,0.0,0.0,0.0,0.0,0.0,9.5645,9.9158,10.2281,10.5209,10.6693,10.7903,0.0,0.0,10.8215,10.8918,10.8215,10.8293,10.8684,10.8918,10.9386,10.9894,10.9894,10.9894,10.9816,10.9581,11.0792,11.2002,11.1611,11.3407,11.4891,11.3212,11.2392,11.1611,0.0,0.0,0.0,0.0,0.0,0.0,0.0,0.0,0.0,0.0,0.0,0.0,0.0,0.0,0.0,0.0,0.0,0.0,10.2789,10.2789,10.3218,10.3999,10.3491,10.4116,0.0,0.0,0.0,11.2704,11.4891,11.6804,11.8287,11.8287,11.8287,11.8287,11.8092,11.77,11.7203,11.6685,11.6296,11.6017,11.5987,11.5592,11.4782,11.5205,11.5291,11.5297,11.5514,11.6306,11.7327,11.7198,11.7003,11.6904,0.0,0.0,0.0,0.0,0.0,0.0,8.9462,0.0,0.0,9.7661,0.0,0.0,10.5311,10.7416,10.8703,10.84,10.8405,0.0,0.0,0.0,0.0,10.2203,10.15,10.0798,9.9939,9.7753,0.0,9.4942,0.0,0.0,9.1819,0.0,0.0,0.0,0.0,9.4083,0.0,9.9431,10.3218,10.6107,10.7005,0.0,0.0,10.8605,10.8918,10.9308,10.9113,10.9386,10.9816,10.9816,11.0401,11.1104,11.1104,11.1299,11.1689,11.2119,11.3212,11.4188,11.4188,11.5593,11.6686,11.5281,11.4891,11.4188,11.2119,11.2392,11.2392,0.0,0.0,0.0,0.0,0.0,0.0,0.0,0.0,0.0,0.0,0.0,0.0,0.0,0.0,0.0,10.3413,10.2984,10.2984,10.3491,10.3101,10.3413,0.0,0.0,0.0,11.1689,11.5086,11.7311,11.8287,11.899,11.899,11.8287,11.7897,11.7599,11.7214,11.6611,11.6296,11.6313,11.6117,11.5579,11.4809,11.5317,11.5321,11.5199,11.6181,11.6712,11.6883,11.7623,11.7503,11.7219,0.0,0.0,0.0,0.0,0.0,0.0,0.0,9.4578,0.0,9.9461,0.0,10.67,0.0,10.9086,11.119,0.0,0.0,10.8185,0.0,10.6294,0.0,10.3413,10.4116,10.4116,10.3218,10.1305,0.0,0.0,0.0,0.0,0.0,0.0,0.0,0.0,0.0,0.0,0.0,10.0485,10.4311,0.0,10.6693,10.7395,10.8293,10.8996,10.9386,10.9581,11.0518,11.0792,11.0714,11.0714,11.1182,11.2002,11.2119,11.2704,11.3407,11.4305,11.5203,11.5906,11.5906,11.6491,11.6999,11.6218,11.6608,11.6608,11.4305,11.3798,11.3485,11.2704,11.1299,0.0,0.0,0.0,0.0,0.0,0.0,0.0,0.0,0.0,0.0,0.0,0.0,0.0,0.0,0.0,0.0,0.0,0.0,0.0,0.0,0.0,0.0,11.1416,11.5593,0.0,11.8482,0.0,12.0005,11.8599,11.7701,11.7091,11.6689,11.64,11.6312,11.6324,11.6519,11.5976,11.5004,11.5514,11.553,11.5185,11.6982,11.7078,11.6384,11.7612,11.7677,11.7179,0.0,0.0,0.0,0.0,0.0,0.0,0.0,10.1698,10.2907,10.4882,10.84,0.0,11.1307,11.2181,11.2602,11.228,11.2397,0.0,0.0,0.0,0.0,10.6185,10.6888,10.6614,10.5014,10.1891,10.0095,0.0,0.0,0.0,0.0,0.0,0.0,0.0,0.0,0.0,9.7323,10.1891,0.0,10.4702,10.6888,10.8293,10.9113,10.9191,10.9699,11.0518,11.208,11.2197,11.1611,11.1611,11.2197,11.3017,11.368,11.3993,11.4305,11.5203,11.6101,11.6804,11.6804,11.7389,11.8014,11.7897,11.8014,11.8014,11.7506,11.7389,11.7116,11.6296,11.5906,11.4813,11.2119,0.0,0.0,0.0,0.0,0.0,0.0,0.0,0.0,0.0,0.0,0.0,0.0,0.0,0.0,0.0,0.0,0.0,0.0,0.0,0.0,0.0,11.3212,0.0,0.0,0.0,11.9888,12.0395,11.9497,11.8496,11.7603,11.7294,11.7206,11.7179,11.7003,11.6495,11.5885,11.5986,11.6103,11.632,11.6611,11.6813,11.6818,11.6789,11.6278,11.5813,0.0,0.0,0.0,0.0,0.0,0.0,0.0,10.7192,0.0,10.7908,11.0403,11.2103,11.1713,11.3584,11.4598,11.3694,11.3708,11.2996,0.0,11.1601,11.0988,10.9408,10.8909,0.0,10.681,0.0,10.1813,0.0,0.0,0.0,0.0,0.0,0.0,0.0,0.0,9.3497,0.0,0.0,0.0,10.5014,10.7083,10.8996,11.0596,11.0596,11.1416,11.2587,11.3485,11.3798,11.3798,11.3798,11.4383,11.5203,11.5593,11.571,11.5906,11.6804,11.7311,11.7701,11.7701,11.8014,11.8209,11.7701,11.7584,11.7584,11.7584,11.7584,11.7506,11.7116,11.6999,11.5906,11.2392,10.8996,0.0,0.0,0.0,0.0,0.0,0.0,0.0,0.0,0.0,0.0,0.0,0.0,0.0,0.0,0.0,0.0,0.0,0.0,0.0,0.0,0.0,0.0,0.0,0.0,0.0,11.9497,11.9497,11.8821,11.7597,11.7517,11.7278,11.7205,11.7084,11.6694,11.6296,11.6475,11.6891,11.7391,11.691,11.6908,11.699,11.6618,11.6203,11.5879,0.0,9.3807,0.0,0.0,10.1191,0.0,0.0,11.1502,11.2905,11.07,11.2392,11.321,11.1924,11.4815,11.62,11.4893,11.462,11.4091,11.3085,11.2488,11.2019,11.1505,11.0393,10.9308,10.8293,10.5912,0.0,0.0,0.0,0.0,0.0,0.0,0.0,0.0,0.0,0.0,0.0,0.0,10.2086,10.5795,10.7786,10.9816,11.1807,11.2002,11.3017,11.4383,11.4617,11.5203,11.5984,11.6218,11.6491,11.6804,11.6882,11.6999,11.7194,11.8209,11.8599,11.8599,11.8795,11.8795,11.8599,11.7701,11.7506,11.7506,11.7311,11.7311,11.7311,11.7311,11.7116,11.5984,11.2704,10.9894,0.0,0.0,0.0,0.0,0.0,0.0,0.0,0.0,0.0,0.0,0.0,0.0,0.0,0.0,0.0,10.2789,10.2789,10.5092,0.0,0.0,0.0,11.6491,11.7311,0.0,12.059,0.0,11.9302,11.8793,11.7503,11.7503,11.7306,11.7114,11.7103,11.7103,11.6891,11.7193,11.7701,11.8209,11.7311,11.6999,11.699,11.6618,11.6218,11.5908,0.0,0.0,0.0,0.0,0.0,0.0,0.0,11.4213,11.6083,11.4992,11.5811,11.6395,11.62,11.659,11.6685,11.6602,11.5783,11.4698,11.3201,11.3708,11.2989,11.0705,11.1182,11.0792,10.9191,10.7395,10.478,0.0,0.0,0.0,0.0,0.0,0.0,0.0,0.0,0.0,0.0,10.111,10.3999,10.681,10.9308,11.0909,11.1885,11.2704,11.3602,11.45,11.5281,11.6101,11.6999,11.778,11.7116,11.5984,11.6804,11.6999,11.7311,11.8912,11.9419,11.9614,12.0395,12.059,12.0395,11.9497,11.9302,11.9107,11.8287,11.8209,11.8209,11.8209,11.7506,11.6218,11.3485,11.2704,11.1494,0.0,0.0,0.0,0.0,0.0,0.0,0.0,0.0,0.0,0.0,0.0,0.0,0.0,0.0,10.2789,10.2789,10.4506,10.6302,10.8098,0.0,11.5008,11.8092,11.9185,0.0,12.059,11.981,11.8886,11.7819,11.7819,11.762,11.7412,11.762,11.7904,11.8122,11.8209,11.8209,11.8209,11.7311,11.6999,11.699,11.6618,11.579,11.5093,0.0,0.0,0.0,0.0,0.0,0.0,0.0,11.5109,11.6317,11.6902,11.7291,11.7486,11.7486,11.7486,11.7504,11.7592,11.6813,11.6204,11.6103,11.4996,11.411,11.3613,11.2383,11.1182,11.0011,10.841,10.599,0.0,0.0,0.0,0.0,0.0,0.0,0.0,0.0,9.7206,10.0915,10.2789,10.5404,10.8488,11.0987,11.29,11.4188,11.45,11.5789,11.7389,11.7311,11.8092,11.9302,11.9692,11.8716,11.7311,11.7701,11.7819,11.7897,11.8599,11.9107,11.9497,11.9302,11.9692,11.981,11.899,11.8795,11.8716,11.8404,11.8287,11.8287,11.8287,11.7584,11.6686,11.5593,11.4188,11.2783,0.0,0.0,0.0,0.0,0.0,0.0,0.0,0.0,0.0,0.0,0.0,0.0,0.0,0.0,0.0,10.2789,10.4506,10.6185,10.7903,0.0,11.4305,11.6686,11.8599,11.9419,11.9302,11.9419,11.8886,11.7798,11.7798,11.7722,11.768,11.7998,11.8207,11.8287,11.7701,11.7819,11.8209,11.6804,11.6685,11.7413,11.659,11.6208,11.6218,10.3503,0.0,10.4307,0.0,10.9498,11.1096,11.5187,11.6083,11.6707,11.7798,11.7993,11.7993,11.7993,11.7993,11.8011,11.8122,11.7499,11.7281,11.769,11.5804,11.4879,11.5213,11.3281,0.0,11.0909,10.9699,10.7708,10.4897,10.2789,0.0,0.0,0.0,0.0,0.0,9.7011,9.9666,10.3608,10.4819,10.72,11.0596,11.2704,11.4383,11.571,11.5984,11.7194,11.8716,11.8092,11.8795,12.0083,12.0083,11.9302,11.8287,11.8599,11.8716,11.8716,11.8716,11.9107,11.9419,11.9107,11.938,11.9692,11.8912,11.8716,11.8599,11.8404,11.8287,11.8287,11.8287,11.7819,11.7311,11.6999,11.5515,11.4188,0.0,0.0,0.0,0.0,0.0,0.0,0.0,0.0,10.5209,10.3882,0.0,0.0,0.0,0.0,0.0,0.0,10.4506,0.0,0.0,0.0,0.0,0.0,11.8014,11.8912,11.8287,11.8912,11.8691,11.7798,11.7798,11.7911,11.7998,11.8218,11.8287,11.8287,11.7584,11.7701,11.8209,11.6813,11.6896,11.7683,11.6701,11.6599,11.7016,10.5796,10.6381,10.7783,11.2109,11.359,11.472,11.6512,11.7486,11.7993,11.7993,11.7993,11.7993,11.7993,11.7993,11.7993,11.7993,11.7993,11.7716,11.6988,11.609,11.5179,0.0,0.0,11.2704,11.1807,11.1807,11.0089,10.6693,0.0,0.0,9.7636,0.0,9.7284,9.908,10.1618,10.3687,10.5482,10.72,10.9894,11.3095,11.3993,11.4891,11.5789,11.6686,11.6999,11.6999,11.6999,11.7584,11.8287,11.8287,11.8287,11.8404,11.9185,11.9497,11.9497,11.9497,11.9497,11.9692,12.0512,12.0785,12.059,11.9692,11.9497,11.9302,11.8482,11.8287,11.8287,11.8287,11.8287,11.8014,11.7194,11.6999,11.6101,11.3485,0.0,0.0,0.0,0.0,0.0,0.0,10.6693,10.5717,10.3101,10.2789,0.0,0.0,0.0,0.0,0.0,0.0,0.0,10.7903,11.1299,0.0,11.571,11.7389,11.8287,11.8287,11.8287,11.8118,11.7798,11.7798,11.8013,11.8287,11.8287,11.8287,11.8287,11.8287,11.8287,11.8317,11.7904,11.7798,11.7722,11.7205,11.6975,11.7016,11.052,11.091,11.1495,11.3522,11.3996,11.4603,11.5694,11.659,11.7408,11.7915,11.7993,11.7993,11.7993,11.7993,11.7816,0.0,11.7187,11.7101,0.0,11.6089,11.5515,11.5281,11.45,11.329,11.1807,11.1807,11.0714,10.8488,0.0,0.0,0.0,10.0915,10.111,10.1696,10.3687,10.5912,10.8098,10.9191,11.1416,11.411,11.4891,11.6218,11.7584,11.8404,11.9107,11.9614,11.9614,11.981,12.0005,12.0005,12.0005,11.9888,11.9614,11.9107,11.8716,11.8716,11.9107,11.9419,11.9185,11.9497,11.9692,11.8912,11.8716,11.8599,11.8404,11.8287,11.8287,11.8287,11.8287,11.8209,11.7897,11.7897,11.7194,11.5203,0.0,0.0,0.0,0.0,0.0,0.0,0.0,10.6107,0.0,10.3999,0.0,0.0,0.0,0.0,0.0,0.0,0.0,0.0,11.1611,0.0,11.571,11.6804,11.7701,11.8287,11.7701,11.7682,11.8118,11.8118,11.8218,11.8287,11.8287,11.8287,11.8287,11.7701,11.7622,11.7896,11.7391,11.7293,11.7306,11.7297,11.7007,11.6624,11.2703,11.3194,11.3779,11.4987,11.5205,11.5499,11.6317,11.6902,11.7408,11.7915,11.7993,11.7993,11.7993,11.7993,0.0,11.7287,11.7304,0.0,11.7286,11.6596,11.6111,11.6218,11.5398,11.4188,11.2783,0.0,0.0,11.0206,10.8684,10.6888,10.4702,10.4389,10.4584,10.5287,10.6693,10.841,11.0284,11.1104,11.2587,11.45,11.5281,11.6491,11.7897,11.8716,11.938,11.9888,11.9888,11.9888,11.9888,11.9888,11.9888,11.981,11.9185,11.8716,11.8287,11.8287,11.8912,11.9302,11.8482,11.8912,11.9302,11.8482,11.8287,11.8287,11.8287,11.8287,11.8287,11.8287,11.8287,11.8287,11.8287,11.8287,11.778,11.6413,0.0,11.4891,0.0,0.0,0.0,0.0,0.0,0.0,0.0,10.5209,0.0,0.0,0.0,0.0,0.0,0.0,0.0,10.9699,11.2197,0.0,11.571,11.6882,11.7584,11.7819,11.7584,11.7819,11.8287,11.8287,11.8287,11.8287,11.8287,11.8092,11.7819,11.7584,11.7403,11.7291,11.7187,11.71,11.6975,11.7003,11.6827,11.6484,11.2905,11.3706,0.0,0.0,11.6785,0.0,11.7798,11.7993,11.7993,11.7993,11.7993,11.7993,11.7993,11.7993,11.7993,11.7993,0.0,0.0,0.0,11.7415,11.7009,11.6999,11.6218,11.5398,11.4383,11.4383,11.3602,11.1885,10.9581,10.841,10.8215,10.7395,10.7903,10.9386,11.0206,11.0987,11.1885,11.2704,11.3485,11.45,11.5281,11.6296,11.7194,11.8092,11.8404,11.8404,11.8404,11.8287,11.8287,11.8287,11.8287,11.8287,11.8287,11.8287,11.8287,11.8287,11.8795,11.9302,11.8599,11.8912,11.9302,11.8599,11.8287,11.8287,11.8287,11.8287,11.8287,11.8287,11.8287,11.8287,11.8287,11.8287,11.8014,11.7116,11.6218,11.5008,11.3095,0.0,0.0,0.0,0.0,0.0,0.0,10.6302,10.6107,0.0,0.0,0.0,0.0,0.0,10.8098,11.0518,11.3095,11.4813,11.571,11.7389,11.7819,11.6999,11.7897,11.8287,11.8287,11.8287,11.8287,11.8287,11.8209,11.7701,11.699,11.7809,11.7495,11.6495,11.7114,11.7198,11.6902,11.6624,11.6529,11.6484,0.0,0.0,11.5315,11.5705,11.6413,11.6902,11.7097,11.7603,11.7993,11.7993,11.7993,11.7993,11.7993,11.7993,11.8011,11.8083,11.8099,11.7818,11.722,11.7622,11.7594,11.6999,11.6804,11.5984,11.4383,11.4383,11.3915,11.2783,11.29,11.2197,11.0909,11.0714,11.0518,11.0206,11.0401,11.0987,11.1807,11.2002,11.3017,11.45,11.5281,11.6608,11.8092,11.8912,11.9185,11.9185,11.9185,11.8795,11.8287,11.8287,11.8287,11.8287,11.8287,11.8287,11.8287,11.8287,11.8404,11.8716,11.9107,11.8912,11.8716,11.9107,11.8795,11.8287,11.8287,11.8287,11.8287,11.8287,11.8287,11.8287,11.8287,11.8287,11.778,11.6296,11.5281,11.368,11.0596,10.9699,0.0,0.0,10.7786,10.841,10.841,10.7981,10.7786,0.0,0.0,0.0,0.0,10.9816,11.0909,11.1494,11.3407,11.4813,11.571,11.6804,11.7194,11.6999,11.7897,11.8287,11.8287,11.8287,11.8287,11.8287,11.7584,11.7115,11.6696,11.6891,11.6491,11.6004,11.6996,11.7109,11.6624,11.6789,11.6707,11.6484,11.5292,11.5783,11.6196,11.6586,11.6997,11.7291,11.7291,11.772,11.7993,11.7993,11.7993,11.7993,11.7993,11.7993,11.8011,11.8091,11.8091,11.7924,11.7505,11.7984,11.8112,11.7584,11.7584,11.6999,11.5593,11.5593,11.5203,11.4305,11.4813,11.45,11.3602,11.3212,11.29,11.2783,11.2002,11.2392,11.3485,11.2704,11.3407,11.5008,11.5515,11.6491,11.7819,11.8599,11.899,11.899,11.899,11.8716,11.8287,11.8287,11.8287,11.8287,11.8287,11.8287,11.8287,11.8287,11.8795,11.9497,12.0005,12.0083,12.0005,11.9614,11.9185,11.8795,11.8404,11.8287,11.8287,11.8287,11.8287,11.8287,11.8287,11.8287,11.7701,11.5984,11.4617,11.2783,10.9699,10.8605,0.0,10.7903,10.8684,10.9816,11.0909,11.0206,10.9816,10.9816,0.0,0.0,10.8684,11.1104,11.2587,11.3017,11.4305,11.5203,11.571,11.6218,11.6608,11.6999,11.7897,11.8287,11.8287,11.8287,11.8092,11.7701,11.7194,11.6584,11.6006,11.6395,11.6195,11.5776,11.6793,11.69,11.649,11.6707,11.6701,11.6484,11.5499,11.6278,11.7019,11.772,11.7915,11.7993,11.7993,11.7993,11.7993,11.7993,11.7993,11.7993,11.7993,11.7993,11.7989,11.8105,11.8119,11.8093,11.8207,11.8317,11.8287,11.8287,11.8287,11.7897,11.6999,11.6999,11.6608,11.571,11.5984,11.5984,11.571,11.5086,11.5086,11.5593,11.4188,11.4305,11.5593,11.411,11.4305,11.571,11.5789,11.6296,11.7116,11.8014,11.8404,11.8482,11.8287,11.8404,11.8482,11.8287,11.8287,11.8287,11.8287,11.8287,11.8287,11.8404,11.9614,12.0785,12.0785,12.1293,12.1488,11.9888,11.9419,11.9107,11.8482,11.8287,11.8287,11.8287,11.8287,11.8287,11.8287,11.8287,11.7701,11.5984,11.411,11.2002,10.9503,0.0,10.7395,10.8918,10.9386,11.0596,11.3095,11.2392,11.1689,11.1299,11.0987,11.0401,0.0,11.1885,11.3798,11.4617,11.5281,11.571,11.571,11.571,11.6101,11.6999,11.7897,11.8287,11.8287,11.8287,11.7819,11.6999,11.6999,11.6298,11.521,11.6106,11.6105,11.5706,11.6632,11.6786,11.6484,11.6484,11.6484,11.6484,11.629,11.6702,11.6785,11.7019,11.7486,11.7993,11.7993,11.7993,11.7993,11.7993,11.7993,11.8011,11.8083,11.8011,11.7989,11.8105,11.8119,11.8184,11.8317,11.8287,11.8287,11.8287,11.8287,11.7897,11.6999,11.6999,11.6608,11.571,11.7194,11.7116,11.571,11.6296,11.6296,11.571,11.5398,11.5398,11.571,11.5398,11.5515,11.5789,11.6491,11.6882,11.7116,11.8014,11.8716,11.9185,11.8482,11.8716,11.9185,11.8482,11.8287,11.8287,11.8287,11.8287,11.8404,11.9107,12.0005,12.0785,12.0785,12.0903,12.0785,11.981,11.899,11.8482,11.8287,11.8287,11.8287,11.8287,11.8287,11.8287,11.8287,11.8287,11.7701,11.5984,11.3602,11.1104,10.8605,0.0,10.7903,10.8215,11.0089,11.2119,11.3993,11.2704,11.2704,11.4695,11.3485,11.3212,11.4383,11.5008,11.5398,11.5515,11.5593,11.571,11.571,11.571,11.6101,11.6999,11.7897,11.8287,11.8287,11.8287,11.7819,11.6999,11.6999,11.6204,11.4888,11.5781,11.5824,11.5379,11.6308,11.6534,11.6484,11.6484,11.6484,11.6484,11.6624,11.6802,11.6902,11.7408,11.7408,11.7486,11.7915,11.7993,11.7993,11.7993,11.7993,11.7993,11.7989,11.8011,11.8011,11.8091,11.8105,11.8106,11.819,11.8278,11.8287,11.8287,11.8287,11.8287,11.8287,11.7897,11.7701,11.7701,11.8092,11.7897,11.7116,11.7506,11.7506,11.7116,11.6608,11.6686,11.7116,11.6608,11.6686,11.7116,11.7506,11.7701,11.7819,11.8599,11.9185,11.9497,11.9107,11.9185,11.9419,11.8599,11.8287,11.8287,11.8287,11.8287,11.8404,11.8716,12.0083,12.1605,12.2113,12.1918,12.1293,12.0395,11.9614,11.8795,11.8404,11.8287,11.8287,11.8287,11.8287,11.8287,11.8287,11.8287,11.7701,11.5984,11.3095,0.0,0.0,10.8293,10.8488,10.9894,11.2314,11.4617,11.6296,11.4891,11.4617,11.6296,11.4383,11.368,11.4891,11.5398,11.5515,11.5008,11.5515,11.5515,11.5008,11.5906,11.6413,11.6296,11.7701,11.8287,11.8287,11.7819,11.7116,11.6296,11.6296,11.5721,11.4914,11.5729,11.5996,11.5984,11.6407,11.6484,11.6484,11.6484,11.6484,11.6407,11.7019,11.7097,11.7291,11.7915,11.7486,11.7291,11.7915,11.7993,11.7993,11.7993,11.7993,11.7993,11.8011,11.7993,11.8089,11.8411,11.8208,11.821,11.8508,11.8385,11.8287,11.8287,11.8287,11.8599,11.9185,11.8599,11.8716,11.9497,11.8716,11.8404,11.8599,11.8209,11.8014,11.8014,11.7311,11.7506,11.8287,11.7819,11.8014,11.8599,11.8482,11.8404,11.8404,11.9185,11.9497,11.9497,11.9497,11.9497,11.9419,11.8599,11.8287,11.8287,11.8287,11.8404,11.8482,11.8404,12.0005,12.1918,12.2581,12.2308,12.1605,12.0707,11.9888,11.9107,11.8404,11.8287,11.8287,11.8287,11.8287,11.8287,11.8287,11.8287,11.778,11.6296,0.0,0.0,0.0,10.9581,11.0011,11.2119,11.4383,11.6413,11.8092,11.6686,11.6218,11.7506,11.5398,11.45,11.5515,11.5906,11.5593,11.4695,11.5203,11.5008,11.411,11.5593,11.6101,11.5398,11.6999,11.778,11.8014,11.7116,11.6296,11.571,11.5799,11.5399,11.4576,11.5803,11.6314,11.6176,11.6407,11.6484,11.6484,11.6484,11.6407,11.6176,11.7798,11.7915,11.7915,11.7993,11.7993,11.7915,11.7993,11.7993,11.7993,11.7993,11.7993,11.8011,11.8083,11.8011,11.84,11.9191,11.8598,11.8392,11.9289,11.8687,11.8287,11.8287,11.8287,11.8287,11.8404,11.8287,11.8716,11.9497,11.8716,11.8716,11.9419,11.7819,11.7116,11.7116,11.6999,11.7506,11.8287,11.899,11.9419,11.9419,11.9419,11.899,11.8404,11.9185,11.9497,11.9497,11.9497,11.9497,11.9419,11.8599,11.8287,11.8287,11.8287,11.8795,11.9302,11.8482,11.9497,12.0903,12.0981,12.0903,12.0707,11.981,11.899,11.8404,11.8287,11.8287,11.8287,11.8287,11.8287,11.8287,11.8287,11.8287,11.8014,11.7116,0.0,0.0,11.29,11.2783,11.3095,11.411,11.5086,11.6413,11.8092,11.6686,11.6686,11.9107,11.7701,11.7389,11.899,11.7701,11.6491,11.5593,11.4891,11.411,11.3212,11.411,11.4617,11.45,11.5398,11.6296,11.7116,11.6218,11.5789,11.571,11.6204,11.5404,11.3916,11.5985,11.6325,11.5484,11.6176,11.6484,11.6484,11.6484,11.5984,11.5484,11.7915,11.7603,11.7408,11.7915,11.7603,11.7408,11.7915,11.7993,11.7993,11.7993,11.7993,11.7993,11.8011,11.8106,11.82,11.8606,11.8314,11.8301,11.8613,11.8385,11.8287,11.8287,11.8287,11.8795,11.981,11.9302,11.9497,12.0317,12.0005,11.9185,11.8014,11.8912,11.8482,11.6999,11.8092,11.8482,11.8404,11.9185,11.9185,11.8795,11.9302,11.9302,11.9107,12.0005,12.0317,12.0317,12.0317,12.0005,11.9419,11.8599,11.8287,11.8287,11.8287,11.8912,11.9497,11.981,12.0317,12.0707,12.0083,12.0395,12.059,11.9692,11.8912,11.8404,11.8912,11.899,11.899,11.899,11.9497,11.9692,11.9107,11.899,11.8912,11.8599,0.0,11.45,11.4695,11.4188,11.4188,11.5086,11.6491,11.7584,11.8209,11.7701,11.7701,11.8716,11.7194,11.6686,11.7897,11.6804,11.5789,11.4891,11.4617,11.4188,11.3915,11.4813,11.4891,11.4383,11.5281,11.5906,11.6218,11.5281,11.4891,11.4882,11.4917,11.441,11.3683,11.4868,11.5399,11.5291,11.5599,11.6099,11.6484,11.6484,11.6292,11.5907,11.7993,11.7603,11.7408,11.7915,11.7486,11.7408,11.7915,11.7993,11.7993,11.7993,11.8188,11.8383,11.8383,11.8495,11.8606,11.8918,11.8717,11.8598,11.8598,11.8395,11.8287,11.8287,11.8287,11.8795,12.0005,11.9692,11.981,12.0395,12.0707,11.9614,11.7389,11.9185,11.8795,11.6686,11.8092,11.8482,11.8287,11.9107,11.9185,11.8716,11.9302,11.9302,11.9185,12.0083,12.02,12.0005,12.0317,11.981,11.899,11.8482,11.8287,11.8287,11.8287,11.8912,11.981,12.1215,12.1215,12.0707,12.0083,12.0083,12.02,11.9614,11.8912,11.8599,11.9692,11.9692,11.9614,11.9888,12.0395,12.059,12.0005,11.9888,11.981,11.9497,11.7506,11.6101,11.6491,11.5984,11.5789,11.6413,11.7584,11.8287,11.8287,11.8482,11.8716,11.8716,11.7584,11.6882,11.6999,11.5906,11.5008,11.4383,11.411,11.3993,11.3993,11.4617,11.4617,11.3993,11.4617,11.5008,11.5281,11.4383,11.411,11.4413,11.3996,11.3606,11.3295,11.4302,11.4817,11.4907,11.5484,11.5984,11.6484,11.6484,11.6292,11.5984,11.7993,11.7993,11.7993,11.7993,11.7993,11.7993,11.7993,11.7993,11.7993,11.7993,11.8811,11.9279,11.9279,11.9409,11.9698,12.0595,12.0005,11.9495,11.9495,11.8697,11.8287,11.8287,11.8287,11.8287,11.8287,11.9107,11.9497,11.9497,12.0395,11.9888,11.8209,11.8209,11.7311,11.571,11.6608,11.7389,11.8209,11.9107,11.9497,11.9497,11.9497,11.899,11.8404,11.9185,11.899,11.8404,11.9185,11.899,11.8287,11.8287,11.8287,11.8287,11.8287,11.8912,12.0005,12.2581,12.2191,12.0785,12.0785,12.02,11.9497,11.9497,11.8912,11.8716,12.0395,12.0083,11.981,12.059,12.0785,12.0785,12.0785,12.0785,12.0512,11.9692,11.9497,11.9185,11.8404,11.8287,11.8287,11.8287,11.8287,11.8287,11.8287,11.899,11.9497,11.9497,11.9497,11.8716,11.7116,11.5281,11.4383,11.4383,11.3602,11.3095,11.3095,11.3095,11.3095,11.3095,11.3095,11.3602,11.4383,11.3485,11.3602,11.4413,11.3805,11.301,11.2491,11.4511,11.4791,11.4214,11.5792,11.6484,11.6484,11.6484,11.5984,11.5407,11.7993,11.7993,11.7993,11.7993,11.7993,11.8188,11.8811,11.8383,11.8421,11.9707,11.9513,11.9297,11.9409,11.9402,11.9275,11.899,11.8804,11.8707,11.8707,11.8404,11.8287,11.8287,11.8287,11.8912,12.0005,12.0317,12.0707,12.1293,12.1605,12.02,11.7389,11.8599,11.7584,11.4891,11.6999,11.7701,11.7389,11.8287,11.899,11.9497,11.8912,11.9185,12.0005,11.9614,11.9419,11.9185,11.9419,11.899,11.8287,11.8287,11.8287,11.8404,11.899,11.9692,12.0707,12.2113,12.1683,12.0785,12.0785,11.981,11.8716,11.8716,11.8482,11.8716,12.0395,12.059,12.0707,12.1488,12.2191,12.2386,12.18,12.1683,12.1605,12.141,12.0317,11.9419,11.9185,11.8716,11.8287,11.8287,11.8287,11.8287,11.8287,11.8482,11.8912,11.9497,11.8404,11.6999,11.5281,11.411,11.3485,11.3485,11.3212,11.3095,11.3095,11.3095,11.3095,11.3095,11.3095,11.3212,11.3485,11.3212,11.3212,11.3515,11.291,11.2505,11.2375,11.3198,11.3291,11.3214,11.4291,11.4714,11.4791,11.5407,11.5484,11.5291,11.7993,11.7993,11.7993,11.7993,11.7993,11.8188,11.8694,11.8616,11.8889,12.0016,12.0016,11.9994,12.0377,11.9796,11.9393,11.9222,11.8697,11.8599,11.9185,11.899,11.8795,11.8795,11.8795,11.9185,12.0317,12.059,12.0903,12.1098,12.141,11.981,11.6491,11.8599,11.7897,11.5008,11.7311,11.7819,11.6999,11.7584,11.8092,11.8482,11.8014,11.8795,12.02,11.9302,11.9185,11.9497,11.9497,11.899,11.8287,11.8716,11.8599,11.8404,11.9185,12.0083,12.0903,12.141,12.1215,12.0707,12.0395,11.9302,11.8287,11.8287,11.8287,11.8795,12.0903,12.0981,12.1098,12.2386,12.3011,12.3206,12.2698,12.2581,12.2386,12.1683,12.102,12.02,11.9185,11.8912,11.8716,11.8287,11.8287,11.8287,11.8287,11.8599,11.899,11.9497,11.7897,11.6413,11.5008,11.411,11.3485,11.3095,11.3095,11.3095,11.3095,11.3095,11.3095,11.3095,11.3095,11.3095,11.3095,11.3095,11.3194,11.3411,11.2984,11.2697,11.2592,11.3004,11.3022,11.2791,11.3714,11.3984,11.4099,11.4599,11.4791,11.4791,11.7993,11.811,11.811,11.811,11.811,11.811,11.8188,11.8811,11.9375,11.962,12.0283,12.1,12.1903,12.0603,12.0003,12.0588,11.9215,11.899,12.059,11.9888,11.9497,11.9419,11.9497,11.9614,11.9497,12.0317,12.0317,11.9614,12.0317,11.8912,11.5906,11.8092,11.7897,11.5789,11.7389,11.7701,11.6999,11.6999,11.7116,11.7194,11.7116,11.8092,11.9419,11.8716,11.8912,11.9497,11.9497,11.899,11.8482,11.9185,11.8912,11.8404,11.9185,12.0005,12.0785,12.0785,12.0785,12.059,11.981,11.899,11.8287,11.8287,11.8287,11.8912,12.141,12.141,12.141,12.3089,12.3401,12.3401,12.3401,12.3401,12.2894,12.1293,12.1605,12.1215,11.899,11.9107,11.9107,11.8482,11.8287,11.8287,11.8287,11.899,11.9497,11.9419,11.7897,11.6608,11.571,11.4813,11.3915,11.3095,11.3095,11.3095,11.3095,11.3095,11.3095,11.3095,11.3095,11.3095,11.3095,11.3095,11.3396,11.3901,11.3522,11.331,11.3107,11.3618,11.3407,11.2714,11.3483,11.3791,11.3791,11.3907,11.3907,11.3984,11.811,11.8499,11.9006,11.9006,11.9006,11.9201,11.9902,11.9704,11.9877,12.118,12.1016,12.1006,12.1903,12.172,12.0989,11.9917,11.8912,11.8716,11.9692,11.9614,11.9185,11.8599,11.981,12.02,11.9497,11.9692,12.0005,12.0512,11.938,11.8092,11.6686,11.6608,11.6218,11.571,11.6101,11.6491,11.6999,11.6999,11.7819,11.8912,11.8287,11.8599,11.9497,11.9302,11.9302,11.9497,11.9497,11.9419,11.9185,11.8716,11.8404,11.8287,11.8482,11.9614,12.0785,12.0785,12.0785,12.0785,12.059,11.938,11.8287,11.8287,11.8287,11.8795,12.0707,12.1488,12.2113,12.3206,12.3401,12.3401,12.3401,12.3401,12.3284,12.2894,12.18,12.1098,12.1293,11.9692,11.8716,11.9185,11.8716,11.8287,11.8287,11.899,11.9185,11.8599,11.7584,11.6608,11.571,11.4188,11.329,11.3095,11.3095,11.3095,11.3095,11.3095,11.3095,11.3095,11.3095,11.3095,11.3095,11.3095,11.3203,11.3279,11.2811,11.2518,11.2486,11.2812,11.2522,11.1791,11.2714,11.2599,11.2099,11.2714,11.2983,11.3214,11.9201,11.9318,11.9396,11.9785,11.9591,11.9513,11.9902,11.9977,12.0283,12.1211,12.1279,12.1708,12.26,12.1898,12.1195,12.0785,11.9614,11.9185,12.0083,11.9692,11.9302,11.8912,11.9692,12.02,12.0083,11.9692,11.9888,12.0785,11.9888,11.899,11.8209,11.7311,11.6882,11.6882,11.6491,11.6608,11.6999,11.6999,11.7506,11.8287,11.7819,11.8404,11.9497,11.9497,11.981,12.0083,12.0083,11.9888,11.9419,11.8599,11.8287,11.8287,11.8287,11.9185,12.0083,11.9692,11.9888,12.0083,11.9692,11.899,11.8287,11.8287,11.8599,11.9185,12.0512,12.1215,12.18,12.3089,12.3401,12.3401,12.3401,12.3401,12.3089,12.2308,12.2113,12.18,12.102,12.0083,11.9614,12.0083,11.899,11.8287,11.8287,11.8716,11.8795,11.8287,11.7506,11.6608,11.571,11.4383,11.3485,11.3095,11.3095,11.3095,11.3095,11.3095,11.3095,11.3095,11.3095,11.3095,11.3095,11.3095,11.319,11.3317,11.3016,11.269,11.2527,11.2575,11.2214,11.1522,11.2022,11.1906,11.1598,11.2022,11.2599,11.3407,12.0292,11.998,11.9785,12.0487,11.998,11.9513,11.9492,12.0305,12.0899,12.0888,12.1591,12.2405,12.3284,12.1996,12.141,12.2191,12.059,11.9888,12.0707,12.0005,11.9419,11.9302,11.9419,11.981,12.059,11.9888,11.9888,12.059,12.059,12.0083,11.9302,11.8599,11.8287,11.8209,11.7389,11.6999,11.6999,11.6804,11.6882,11.6999,11.6999,11.8014,11.9497,11.9497,12.0005,12.0785,12.059,12.0005,11.9185,11.8482,11.8287,11.8287,11.8287,11.899,11.9614,11.8716,11.9107,11.9497,11.8716,11.8404,11.8287,11.8287,11.8795,11.9614,12.059,12.0903,12.141,12.2894,12.3284,12.3401,12.3401,12.3401,12.2894,12.1293,12.2191,12.2386,12.0005,12.02,12.059,12.059,11.9185,11.8287,11.8287,11.8287,11.8287,11.8287,11.7389,11.6491,11.571,11.4695,11.3798,11.3095,11.3095,11.3095,11.3095,11.3095,11.3095,11.3095,11.3194,11.3194,11.3095,11.3194,11.3288,11.3411,11.3411,11.3092,11.2611,11.2526,11.2099,11.1522,11.1522,11.1522,11.1522,11.1401,11.2324,11.351,12.0682,12.0487,12.0487,12.0604,12.0487,12.0388,12.05,12.1289,12.1786,12.1903,12.2015,12.2386,12.3284,12.2503,12.2308,12.3089,12.0903,11.9888,12.0707,12.0005,11.9185,11.8482,11.9107,11.9614,11.9692,11.9614,11.9614,11.9692,11.9692,11.9302,11.8482,11.8287,11.8209,11.8209,11.7389,11.6999,11.6999,11.6218,11.6296,11.6999,11.6999,11.8014,11.9497,11.9497,12.0005,12.0707,11.9888,11.9185,11.8404,11.8287,11.8287,11.8287,11.8287,11.938,12.0512,11.9614,11.9888,12.0395,11.9614,11.8795,11.8287,11.8287,11.8404,11.8912,12.0395,12.141,12.1996,12.2191,12.2894,12.3401,12.3401,12.3401,12.3089,12.2113,12.2113,12.1918,12.0785,12.0083,11.9692,11.9692,11.8912,11.8287,11.8287,11.8287,11.8287,11.8287,11.6804,11.5789,11.571,11.4188,11.3212,11.3095,11.3095,11.3095,11.3095,11.3095,11.3095,11.3095,11.3606,11.362,11.3095,11.3606,11.3512,11.2795,11.3078,11.2716,11.1996,11.1804,11.1598,11.1522,11.1522,11.1522,11.1478,11.1224,11.1208,11.1468,12.189,12.1695,12.15,12.2006,12.1617,12.1284,12.1413,12.1679,12.1994,12.211,12.2483,12.3011,12.3401,12.2581,12.2308,12.2581,12.0707,11.9692,12.0005,11.9302,11.8716,11.8287,11.8599,11.8795,11.8795,11.9302,11.9497,11.9497,12.0005,12.0005,11.9692,11.8716,11.8482,11.8912,11.7584,11.7311,11.7701,11.7819,11.8014,11.8404,11.8912,11.9614,12.02,12.02,12.0512,12.0707,11.981,11.899,11.8287,11.8287,11.8287,11.8287,11.8287,11.9107,11.9888,11.9107,11.9419,11.9888,11.9107,11.8599,11.8287,11.8287,11.8287,11.8482,11.9185,12.0395,12.1683,12.2581,12.3089,12.3401,12.3401,12.3401,12.3089,12.2191,12.2503,12.2503,12.1605,12.0785,11.9888,11.8912,11.8912,11.8795,11.8287,11.8287,11.8287,11.8287,11.7116,11.6218,11.571,11.45,11.3602,11.3095,11.3095,11.3095,11.3095,11.3385,11.362,11.362,11.4217,11.3905,11.2918,11.3516,11.3226,11.2297,11.2389,11.2112,11.1732,11.1491,11.1522,11.1522,11.1522,11.1522,11.1478,11.1101,11.1315,11.1727]},{"header":{"parameterUnit":"m.s-1","parameterCategory":1,"la1":30.6,"la2":28.766,"lo1":-90.7593,"lo2":-88.6598,"dx":0.0162,"dy":0.0183,"nx":116,"ny":114,"refTime":"2023-01-31T18:00:00:Z","depth":0,"parameterNumber":3,"parameterNumberName":"V-component_of_WINDS"},"data":[0.0,0.0,0.0,0.0,0.0,0.0,0.0,0.0,0.0,0.0,0.0,0.0,0.0,0.0,0.0,0.0,0.0,0.0,0.0,0.0,0.0,0.0,0.0,0.0,0.0,0.0,0.0,0.0,0.0,0.0,0.0,0.0,0.0,0.0,0.0,0.0,0.0,0.0,0.0,0.0,0.0,0.0,0.0,0.0,0.0,0.0,0.0,0.0,0.0,0.0,0.0,0.0,0.0,0.0,0.0,0.0,0.0,0.0,0.0,0.0,0.0,0.0,0.0,0.0,0.0,0.0,0.0,0.0,0.0,0.0,0.0,0.0,0.0,0.0,0.0,0.0,0.0,0.0,0.0,0.0,0.0,0.0,0.0,0.0,0.0,0.0,0.0,0.0,0.0,0.0,0.0,0.0,0.0,0.0,0.0,0.0,0.0,0.0,0.0,0.0,0.0,0.0,0.0,0.0,0.0,0.0,0.0,0.0,0.0,0.0,0.0,0.0,0.0,0.0,0.0,0.0,0.0,0.0,0.0,0.0,0.0,0.0,0.0,0.0,0.0,0.0,0.0,0.0,0.0,0.0,0.0,0.0,0.0,0.0,0.0,0.0,0.0,0.0,0.0,0.0,0.0,0.0,0.0,0.0,0.0,0.0,0.0,0.0,0.0,0.0,0.0,0.0,0.0,0.0,0.0,0.0,0.0,0.0,0.0,0.0,0.0,0.0,0.0,0.0,0.0,0.0,0.0,0.0,0.0,0.0,0.0,0.0,0.0,0.0,0.0,0.0,0.0,0.0,0.0,0.0,0.0,0.0,0.0,0.0,0.0,0.0,0.0,0.0,0.0,0.0,0.0,0.0,0.0,0.0,0.0,0.0,0.0,0.0,0.0,0.0,0.0,0.0,0.0,0.0,0.0,0.0,0.0,0.0,0.0,0.0,0.0,0.0,0.0,0.0,0.0,0.0,0.0,0.0,0.0,0.0,0.0,0.0,0.0,0.0,0.0,0.0,0.0,0.0,0.0,0.0,0.0,0.0,0.0,0.0,0.0,0.0,0.0,0.0,0.0,0.0,0.0,0.0,0.0,0.0,0.0,0.0,0.0,0.0,0.0,0.0,0.0,0.0,0.0,0.0,0.0,0.0,0.0,0.0,0.0,0.0,0.0,0.0,0.0,0.0,0.0,0.0,0.0,0.0,0.0,0.0,0.0,0.0,0.0,0.0,0.0,0.0,0.0,0.0,0.0,0.0,0.0,0.0,0.0,0.0,0.0,0.0,0.0,0.0,0.0,0.0,0.0,0.0,0.0,0.0,0.0,0.0,0.0,0.0,0.0,0.0,0.0,0.0,0.0,0.0,0.0,0.0,0.0,0.0,0.0,0.0,0.0,0.0,0.0,0.0,0.0,0.0,0.0,0.0,0.0,0.0,0.0,0.0,0.0,0.0,0.0,0.0,0.0,0.0,0.0,0.0,0.0,0.0,0.0,0.0,0.0,0.0,0.0,0.0,0.0,0.0,0.0,0.0,0.0,0.0,0.0,0.0,0.0,0.0,0.0,0.0,0.0,0.0,0.0,0.0,0.0,0.0,0.0,0.0,0.0,0.0,0.0,0.0,0.0,0.0,0.0,0.0,0.0,0.0,0.0,0.0,0.0,0.0,0.0,0.0,0.0,0.0,0.0,0.0,0.0,0.0,0.0,0.0,0.0,0.0,0.0,0.0,0.0,0.0,0.0,0.0,0.0,0.0,0.0,0.0,0.0,0.0,0.0,0.0,0.0,0.0,0.0,0.0,0.0,0.0,0.0,0.0,0.0,0.0,0.0,0.0,0.0,0.0,0.0,0.0,0.0,0.0,0.0,0.0,0.0,0.0,0.0,0.0,0.0,0.0,0.0,0.0,0.0,0.0,0.0,0.0,0.0,0.0,0.0,0.0,0.0,0.0,0.0,0.0,0.0,0.0,0.0,0.0,0.0,0.0,0.0,0.0,0.0,0.0,0.0,0.0,0.0,0.0,0.0,0.0,0.0,0.0,0.0,0.0,0.0,0.0,0.0,0.0,0.0,0.0,0.0,0.0,0.0,0.0,0.0,0.0,0.0,0.0,0.0,0.0,0.0,0.0,0.0,0.0,0.0,0.0,0.0,0.0,0.0,0.0,0.0,0.0,0.0,0.0,0.0,0.0,0.0,0.0,0.0,0.0,0.0,0.0,0.0,0.0,0.0,0.0,0.0,0.0,0.0,0.0,0.0,0.0,0.0,0.0,0.0,0.0,0.0,0.0,0.0,0.0,0.0,0.0,0.0,0.0,0.0,0.0,0.0,0.0,0.0,0.0,0.0,0.0,0.0,0.0,0.0,0.0,0.0,0.0,0.0,0.0,0.0,0.0,0.0,0.0,0.0,0.0,0.0,0.0,0.0,0.0,0.0,0.0,0.0,0.0,0.0,0.0,0.0,0.0,0.0,0.0,0.0,0.0,0.0,0.0,0.0,0.0,0.0,0.0,0.0,0.0,0.0,0.0,0.0,0.0,0.0,0.0,0.0,0.0,0.0,0.0,0.0,0.0,0.0,0.0,0.0,0.0,0.0,0.0,0.0,0.0,0.0,0.0,0.0,0.0,0.0,0.0,0.0,0.0,0.0,0.0,0.0,0.0,0.0,0.0,0.0,0.0,0.0,0.0,0.0,0.0,0.0,0.0,0.0,0.0,0.0,0.0,0.0,0.0,0.0,0.0,0.0,0.0,0.0,0.0,0.0,0.0,0.0,0.0,0.0,0.0,0.0,0.0,0.0,0.0,0.0,0.0,0.0,0.0,0.0,0.0,0.0,0.0,0.0,0.0,0.0,0.0,0.0,0.0,0.0,0.0,0.0,0.0,0.0,0.0,0.0,0.0,0.0,0.0,0.0,0.0,0.0,0.0,0.0,0.0,0.0,0.0,0.0,0.0,0.0,0.0,0.0,0.0,0.0,0.0,0.0,0.0,0.0,0.0,0.0,0.0,0.0,0.0,0.0,0.0,0.0,0.0,0.0,0.0,0.0,0.0,0.0,0.0,0.0,0.0,0.0,0.0,0.0,0.0,0.0,0.0,0.0,0.0,0.0,0.0,0.0,0.0,0.0,0.0,0.0,0.0,0.0,0.0,0.0,0.0,0.0,0.0,0.0,0.0,0.0,0.0,0.0,0.0,0.0,0.0,0.0,0.0,0.0,0.0,0.0,0.0,0.0,0.0,0.0,0.0,0.0,0.0,0.0,0.0,0.0,0.0,0.0,0.0,0.0,0.0,0.0,0.0,0.0,0.0,0.0,0.0,0.0,0.0,0.0,0.0,0.0,0.0,0.0,0.0,0.0,0.0,0.0,0.0,0.0,0.0,0.0,0.0,0.0,0.0,0.0,0.0,0.0,0.0,0.0,0.0,0.0,0.0,0.0,0.0,0.0,0.0,0.0,0.0,0.0,0.0,0.0,0.0,0.0,0.0,0.0,0.0,0.0,0.0,0.0,0.0,0.0,0.0,0.0,0.0,0.0,0.0,0.0,0.0,0.0,0.0,0.0,0.0,0.0,0.0,0.0,0.0,0.0,0.0,0.0,0.0,0.0,0.0,0.0,0.0,0.0,0.0,0.0,0.0,0.0,0.0,0.0,0.0,0.0,0.0,0.0,0.0,0.0,0.0,0.0,0.0,0.0,0.0,0.0,0.0,0.0,0.0,0.0,0.0,0.0,0.0,0.0,0.0,0.0,0.0,0.0,0.0,0.0,0.0,0.0,0.0,0.0,0.0,0.0,0.0,0.0,0.0,0.0,0.0,0.0,0.0,0.0,0.0,0.0,0.0,0.0,0.0,0.0,0.0,0.0,0.0,0.0,0.0,0.0,0.0,0.0,0.0,0.0,0.0,0.0,0.0,0.0,0.0,0.0,0.0,0.0,0.0,0.0,0.0,0.0,0.0,0.0,0.0,0.0,0.0,0.0,0.0,0.0,0.0,0.0,0.0,0.0,0.0,0.0,0.0,0.0,0.0,0.0,0.0,0.0,0.0,0.0,0.0,0.0,0.0,0.0,0.0,0.0,0.0,0.0,0.0,0.0,0.0,0.0,0.0,0.0,0.0,0.0,0.0,0.0,0.0,0.0,0.0,0.0,0.0,0.0,0.0,0.0,0.0,0.0,0.0,0.0,0.0,0.0,0.0,0.0,0.0,0.0,0.0,0.0,0.0,0.0,0.0,0.0,0.0,0.0,0.0,0.0,0.0,0.0,0.0,0.0,0.0,0.0,0.0,0.0,0.0,0.0,0.0,0.0,0.0,0.0,0.0,0.0,0.0,0.0,0.0,0.0,0.0,0.0,0.0,0.0,0.0,0.0,0.0,0.0,0.0,0.0,0.0,0.0,0.0,0.0,0.0,0.0,0.0,0.0,0.0,0.0,0.0,0.0,0.0,0.0,0.0,0.0,0.0,0.0,0.0,0.0,0.0,0.0,0.0,0.0,0.0,0.0,0.0,0.0,0.0,0.0,0.0,0.0,0.0,0.0,0.0,0.0,0.0,0.0,0.0,0.0,0.0,0.0,0.0,0.0,0.0,0.0,0.0,0.0,0.0,0.0,0.0,0.0,0.0,0.0,0.0,0.0,0.0,0.0,0.0,0.0,0.0,0.0,0.0,0.0,0.0,0.0,0.0,0.0,0.0,0.0,0.0,0.0,0.0,0.0,0.0,0.0,0.0,0.0,0.0,0.0,0.0,0.0,0.0,0.0,0.0,0.0,0.0,0.0,0.0,0.0,0.0,0.0,0.0,0.0,0.0,0.0,0.0,0.0,0.0,0.0,0.0,0.0,0.0,0.0,0.0,0.0,0.0,0.0,0.0,0.0,0.0,0.0,0.0,0.0,0.0,0.0,0.0,0.0,0.0,0.0,0.0,0.0,0.0,0.0,0.0,0.0,0.0,0.0,0.0,0.0,0.0,0.0,0.0,0.0,0.0,0.0,0.0,0.0,0.0,0.0,0.0,0.0,0.0,0.0,0.0,0.0,0.0,0.0,0.0,0.0,0.0,0.0,0.0,0.0,0.0,0.0,0.0,0.0,0.0,0.0,0.0,0.0,0.0,0.0,0.0,0.0,0.0,0.0,0.0,0.0,0.0,0.0,0.0,0.0,0.0,0.0,0.0,0.0,0.0,0.0,0.0,0.0,0.0,0.0,0.0,0.0,0.0,0.0,0.0,0.0,0.0,0.0,0.0,0.0,0.0,0.0,0.0,0.0,0.0,0.0,0.0,0.0,0.0,0.0,0.0,0.0,0.0,0.0,0.0,0.0,0.0,0.0,0.0,0.0,0.0,0.0,0.0,0.0,0.0,0.0,0.0,0.0,0.0,0.0,0.0,0.0,0.0,0.0,0.0,0.0,0.0,0.0,0.0,0.0,0.0,0.0,0.0,0.0,0.0,0.0,0.0,0.0,0.0,0.0,0.0,0.0,0.0,0.0,0.0,0.0,0.0,0.0,0.0,0.0,0.0,0.0,0.0,0.0,0.0,0.0,0.0,0.0,0.0,0.0,0.0,0.0,0.0,0.0,0.0,0.0,0.0,0.0,0.0,0.0,0.0,0.0,0.0,0.0,0.0,0.0,0.0,0.0,0.0,0.0,0.0,0.0,0.0,0.0,0.0,0.0,0.0,0.0,0.0,0.0,0.0,0.0,0.0,0.0,0.0,0.0,0.0,0.0,0.0,0.0,0.0,0.0,0.0,0.0,0.0,0.0,0.0,0.0,0.0,0.0,0.0,0.0,0.0,0.0,0.0,0.0,0.0,0.0,0.0,0.0,0.0,0.0,0.0,0.0,0.0,0.0,0.0,0.0,0.0,0.0,0.0,0.0,0.0,0.0,0.0,0.0,0.0,0.0,0.0,0.0,0.0,0.0,0.0,0.0,0.0,0.0,0.0,0.0,0.0,0.0,0.0,0.0,0.0,0.0,0.0,0.0,0.0,0.0,0.0,0.0,0.0,0.0,0.0,0.0,0.0,0.0,0.0,0.0,0.0,0.0,0.0,0.0,0.0,0.0,0.0,0.0,0.0,0.0,0.0,0.0,0.0,0.0,0.0,0.0,0.0,0.0,0.0,0.0,0.0,0.0,0.0,-0.6488,0.0,0.0,0.0,0.0,0.0,0.0,0.0,0.0,0.0,0.0,0.0,0.0,0.0,0.0,0.0,0.0,0.0,0.0,0.0,0.0,0.0,0.0,0.0,0.0,0.0,0.0,0.0,0.0,0.0,0.0,0.0,0.0,0.0,0.0,0.0,0.0,0.0,0.0,0.0,0.0,0.0,0.0,0.0,0.0,0.0,0.0,0.0,0.0,0.0,0.0,0.0,0.0,0.0,0.0,0.0,0.0,0.0,0.0,0.0,0.0,0.0,0.0,0.0,0.0,0.0,0.0,0.0,0.0,0.0,0.0,0.0,0.0,0.0,0.0,0.0,0.0,0.0,0.0,0.0,0.0,0.0,0.0,0.0,0.0,0.0,0.0,0.0,0.0,0.0,0.0,0.0,0.0,0.0,0.0,0.0,0.0,0.0,0.0,0.0,0.0,0.0,0.0,0.0,0.0,0.0,0.0,0.0,0.0,0.0,0.0,0.0,0.0,0.0,0.0,0.0,0.0,-0.6545,0.0,0.0,0.0,0.0,0.0,0.0,0.0,0.0,0.0,0.0,0.0,0.0,0.0,0.0,0.0,0.0,0.0,0.0,0.0,0.0,0.0,0.0,0.0,0.0,0.0,0.0,0.0,0.0,0.0,0.0,0.0,0.0,0.0,0.0,0.0,0.0,0.0,0.0,0.0,0.0,0.0,0.0,0.0,0.0,0.0,0.0,0.0,0.0,0.0,0.0,0.0,0.0,0.0,0.0,0.0,0.0,0.0,0.0,0.0,0.0,0.0,0.0,0.0,0.0,0.0,0.0,0.0,0.0,0.0,0.0,0.0,0.0,0.0,0.0,0.0,0.0,0.0,0.0,0.0,0.0,0.0,0.0,0.0,0.0,0.0,0.0,0.0,0.0,0.0,0.0,0.0,0.0,0.0,0.0,0.0,0.0,0.0,0.0,0.0,0.0,0.0,0.0,0.0,0.0,0.0,0.0,0.0,0.0,0.0,0.0,-0.6668,-0.6668,-0.6668,-0.6668,-0.6668,-0.6654,-0.6632,0.0,0.0,0.0,0.0,0.0,0.0,0.0,0.0,0.0,0.0,0.0,0.0,0.0,0.0,0.0,0.0,0.0,0.0,0.0,0.0,0.0,0.0,0.0,0.0,0.0,0.0,0.0,0.0,0.0,0.0,0.0,0.0,0.0,0.0,0.0,0.0,0.0,0.0,0.0,0.0,0.0,0.0,0.0,0.0,0.0,0.0,0.0,0.0,0.0,0.0,0.0,0.0,0.0,0.0,0.0,0.0,0.0,0.0,0.0,0.0,0.0,0.0,0.0,0.0,0.0,0.0,0.0,0.0,0.0,0.0,0.0,0.0,0.0,0.0,0.0,0.0,0.0,0.0,0.0,0.0,0.0,0.0,0.0,0.0,0.0,0.0,0.0,-0.3138,-0.3142,0.0,0.0,0.0,0.0,0.0,0.0,0.0,0.0,0.0,0.0,0.0,0.0,0.0,0.0,-0.6856,-0.6848,-0.687,-0.6714,-0.6714,-0.6741,-0.6793,-0.6793,-0.6793,-0.6793,-0.6793,0.0,-0.6635,-0.6627,0.0,0.0,0.0,0.0,0.0,0.0,0.0,0.0,0.0,0.0,0.0,0.0,0.0,0.0,0.0,0.0,0.0,0.0,0.0,0.0,0.0,0.0,0.0,0.0,0.0,0.0,0.0,0.0,0.0,0.0,0.0,0.0,0.0,0.0,0.0,0.0,0.0,0.0,0.0,0.0,0.0,0.0,0.0,0.0,0.0,0.0,0.0,0.0,0.0,0.0,0.0,0.0,0.0,0.0,0.0,0.0,0.0,0.0,0.0,0.0,0.0,0.0,0.0,0.0,0.0,0.0,0.0,0.0,0.0,0.0,0.0,0.0,0.0,0.0,0.0,0.0,0.0,0.0,0.0,0.0,0.0,0.0,0.0,0.0,0.0,-0.3149,-0.318,-0.3213,-0.3217,-0.3224,0.0,0.0,0.0,0.0,0.0,0.0,0.0,0.0,0.0,-0.6736,-0.6706,-0.6929,-0.7002,-0.679,-0.6804,-0.6828,-0.6828,-0.6842,-0.6869,-0.6869,-0.6869,-0.6869,-0.6869,-0.682,-0.6736,-0.67,-0.6687,-0.6681,0.0,0.0,0.0,0.0,0.0,-0.9885,0.0,0.0,0.0,0.0,0.0,0.0,0.0,0.0,0.0,0.0,0.0,0.0,0.0,0.0,0.0,0.0,0.0,0.0,0.0,0.0,0.0,0.0,0.0,0.0,0.0,0.0,0.0,0.0,0.0,0.0,0.0,0.0,0.0,0.0,0.0,0.0,0.0,0.0,0.0,0.0,0.0,0.0,0.0,0.0,0.0,0.0,0.0,0.0,0.0,0.0,0.0,0.0,0.0,0.0,0.0,0.0,0.0,0.0,0.0,0.0,0.0,0.0,0.0,0.0,0.0,0.0,0.0,0.0,0.0,0.0,0.0,0.0,0.0,0.0,0.0,0.0,0.0,-0.3182,0.0,-0.327,-0.3283,-0.3296,0.0,0.0,0.0,0.0,0.0,0.0,-0.4207,-0.5893,-0.6985,-0.7075,-0.682,-0.6848,-0.6954,-0.694,-0.6932,-0.6932,-0.6932,-0.6932,-0.6932,-0.6932,-0.6932,-0.6932,-0.6916,-0.6891,-0.6858,-0.6782,-0.6749,-0.6744,-0.6684,-0.666,-0.6864,-0.8725,-0.9346,-0.9979,0.0,0.0,0.0,0.0,0.0,0.0,0.0,0.0,0.0,0.0,0.0,0.0,0.0,0.0,0.0,0.0,0.0,0.0,0.0,0.0,0.0,0.0,0.0,0.0,0.0,0.0,0.0,0.0,0.0,0.0,0.0,0.0,0.0,0.0,0.0,0.0,0.0,0.0,0.0,0.0,0.0,0.0,0.0,0.0,0.0,0.0,0.0,0.0,0.0,0.0,0.0,0.0,0.0,0.0,0.0,0.0,0.0,0.0,0.0,0.0,0.0,0.0,0.0,0.0,0.0,0.0,0.0,0.0,0.0,0.0,0.0,0.0,0.0,0.0,0.0,0.0,0.0,0.0,0.0,-0.3276,-0.3302,0.0,0.0,0.0,0.0,-0.3321,-0.3373,-0.4241,-0.6526,-0.6891,-0.7204,-0.7428,-0.7207,-0.7014,-0.7085,-0.7022,-0.6992,-0.6992,-0.6992,-0.6992,-0.6992,-0.6992,-0.6992,-0.6992,-0.6935,-0.694,-0.6981,-0.6861,-0.6812,-0.6807,-0.6747,-0.6722,-0.6929,-0.9221,-1.0053,-1.0483,0.0,0.0,0.0,0.0,0.0,0.0,0.0,0.0,0.0,0.0,0.0,0.0,0.0,0.0,0.0,0.0,0.0,0.0,0.0,0.0,0.0,0.0,0.0,0.0,0.0,0.0,0.0,0.0,0.0,0.0,0.0,0.0,0.0,0.0,0.0,0.0,0.0,0.0,0.0,0.0,0.0,0.0,0.0,0.0,0.0,0.0,0.0,0.0,0.0,0.0,0.0,0.0,0.0,0.0,0.0,0.0,0.0,0.0,0.0,0.0,0.0,0.0,0.0,0.0,0.0,0.0,0.0,0.0,0.0,0.0,0.0,0.0,0.0,0.0,0.0,0.0,0.0,0.0,0.0,-0.3359,-0.3373,0.0,0.0,-0.3401,-0.4031,-0.5797,-0.5802,-0.6253,-0.6962,-0.6987,-0.7036,-0.7334,-0.7297,-0.7125,-0.7259,-0.7202,-0.721,-0.7286,-0.7251,-0.7251,-0.7286,-0.7245,-0.721,-0.7166,-0.7104,-0.7049,-0.7,-0.6954,-0.691,-0.6869,-0.6809,-0.6785,-0.6997,-0.8893,-0.9733,-0.9956,0.0,0.0,0.0,0.0,0.0,0.0,0.0,0.0,0.0,0.0,0.0,0.0,0.0,0.0,0.0,0.0,0.0,0.0,0.0,0.0,0.0,0.0,0.0,0.0,0.0,0.0,0.0,0.0,0.0,0.0,0.0,0.0,0.0,0.0,0.0,0.0,0.0,0.0,0.0,0.0,0.0,0.0,-0.3823,0.0,0.0,0.0,0.0,0.0,0.0,0.0,0.0,0.0,0.0,0.0,0.0,0.0,0.0,0.0,0.0,0.0,0.0,0.0,0.0,0.0,0.0,0.0,0.0,0.0,0.0,0.0,0.0,0.0,0.0,0.0,0.0,0.0,0.0,0.0,-0.3344,-0.3404,-0.342,-0.345,-0.3509,-0.3479,-0.4345,-0.6399,-0.7063,-0.7314,-0.737,-0.7169,-0.7215,-0.7294,-0.7259,-0.7308,-0.7447,-0.7393,-0.7398,-0.7474,-0.7439,-0.7439,-0.7474,-0.7433,-0.7384,-0.7322,-0.7264,-0.7188,-0.7117,-0.7055,-0.7006,-0.6962,-0.688,-0.6837,-0.703,-0.809,-0.8511,-0.873,0.0,0.0,0.0,0.0,0.0,0.0,0.0,0.0,0.0,0.0,0.0,0.0,0.0,0.0,0.0,0.0,0.0,0.0,0.0,0.0,0.0,0.0,0.0,0.0,0.0,0.0,0.0,0.0,0.0,0.0,0.0,0.0,0.0,0.0,0.0,0.0,0.0,0.0,0.0,0.0,0.0,0.0,-0.5837,0.0,0.0,0.0,0.0,0.0,0.0,0.0,0.0,0.0,0.0,0.0,0.0,0.0,0.0,0.0,0.0,0.0,0.0,0.0,0.0,0.0,0.0,0.0,0.0,0.0,0.0,0.0,0.0,0.0,0.0,0.0,0.0,0.0,-0.3231,-0.3284,-0.3347,-0.3408,-0.3444,-0.3702,-0.3766,-0.377,-0.423,-0.5169,-0.6621,-0.7573,-0.7514,-0.7679,-0.7775,-0.7775,-0.754,-0.7572,-0.7635,-0.7581,-0.7545,-0.7551,-0.7551,-0.7551,-0.7551,-0.7545,-0.751,-0.7452,-0.7393,-0.7363,-0.7343,-0.7166,-0.7098,-0.7085,-0.6957,-0.6872,-0.6818,-0.6818,-0.6818,-0.6818,0.0,0.0,0.0,0.0,0.0,0.0,0.0,0.0,0.0,0.0,0.0,0.0,0.0,0.0,0.0,0.0,0.0,0.0,0.0,0.0,0.0,0.0,0.0,0.0,0.0,0.0,0.0,0.0,0.0,0.0,0.0,0.0,0.0,0.0,0.0,0.0,0.0,0.0,0.0,0.0,0.0,0.0,-1.3343,0.0,0.0,0.0,0.0,0.0,0.0,0.0,0.0,0.0,0.0,0.0,0.0,0.0,0.0,0.0,0.0,0.0,0.0,0.0,0.0,0.0,0.0,0.0,0.0,0.0,0.0,0.0,0.0,0.0,0.0,0.0,0.0,-0.3257,-0.3262,-0.3335,-0.3418,-0.3718,-0.3756,-0.3811,-0.3896,-0.4572,-0.5508,-0.6092,-0.6995,-0.7688,-0.7523,-0.7537,-0.7559,-0.7602,-0.7602,-0.767,-0.7818,-0.7763,-0.7777,-0.7858,-0.7818,-0.7796,-0.7796,-0.7747,-0.7458,-0.6918,-0.7294,-0.7228,-0.6715,-0.7093,-0.7259,-0.7196,-0.6989,-0.6872,-0.6818,-0.6818,-0.6818,-0.6823,0.0,0.0,0.0,0.0,0.0,0.0,0.0,0.0,0.0,0.0,0.0,0.0,0.0,0.0,0.0,0.0,0.0,0.0,0.0,0.0,0.0,0.0,0.0,0.0,0.0,0.0,0.0,0.0,0.0,0.0,0.0,0.0,0.0,0.0,0.0,0.0,0.0,0.0,0.0,0.0,0.0,0.0,-1.7154,-1.3061,-1.011,-0.8364,-0.9036,-0.9415,-0.9445,-0.9343,0.0,0.0,0.0,0.0,0.0,0.0,0.0,0.0,0.0,0.0,0.0,0.0,0.0,0.0,0.0,0.0,0.0,0.0,0.0,0.0,0.0,0.0,0.0,0.0,-0.3285,-0.3337,-0.3366,-0.3416,-0.3701,-0.3796,-0.3837,-0.3896,-0.3772,-0.4471,-0.5206,-0.5317,-0.6499,-0.6982,-0.7044,-0.7526,-0.7782,-0.7818,-0.7818,-0.7867,-0.7973,-0.7687,-0.7452,-0.7519,-0.7486,-0.746,-0.7432,-0.7894,-0.76,0.0,-0.7452,-0.7389,-0.711,-0.7241,-0.7398,0.0,0.0,0.0,0.0,0.0,-0.7665,-0.7036,0.0,0.0,0.0,0.0,0.0,0.0,0.0,0.0,0.0,0.0,0.0,0.0,0.0,0.0,0.0,0.0,0.0,0.0,0.0,0.0,0.0,0.0,0.0,0.0,0.0,0.0,0.0,0.0,0.0,0.0,0.0,0.0,0.0,0.0,0.0,0.0,0.0,0.0,0.0,0.0,0.0,0.0,-1.8355,-1.9108,-1.7726,-1.5691,-1.7451,-1.8057,-1.7857,-1.7836,0.0,0.0,0.0,0.0,0.0,0.0,0.0,0.0,0.0,0.0,0.0,0.0,0.0,0.0,0.0,0.0,0.0,0.0,0.0,0.0,0.0,0.0,0.0,0.0,-0.4413,-0.4311,-0.4396,-0.4415,-0.4227,-0.3863,-0.3906,-0.3977,-0.3859,-0.4118,-0.4148,-0.396,-0.5231,-0.6,-0.6006,0.0,0.0,0.0,0.0,-0.8076,-0.8076,-0.7323,-0.7071,-0.7071,-0.7071,-0.7047,-0.6992,-0.7735,-0.7957,-0.7661,-0.7839,-0.7809,-0.7804,-0.7621,-0.751,-0.7447,-0.7308,-0.7153,-0.7213,-0.9247,-0.8542,0.0,0.0,0.0,0.0,0.0,0.0,0.0,0.0,0.0,0.0,0.0,0.0,0.0,0.0,0.0,0.0,0.0,0.0,0.0,0.0,0.0,0.0,0.0,0.0,0.0,0.0,0.0,0.0,0.0,0.0,0.0,0.0,0.0,0.0,0.0,0.0,0.0,0.0,0.0,0.0,0.0,0.0,0.0,-1.8239,-1.9074,-1.865,-1.7528,-1.6685,-1.6474,-1.6349,-1.6003,-1.5549,-1.5147,-1.5147,0.0,0.0,0.0,0.0,0.0,0.0,0.0,0.0,0.0,0.0,0.0,0.0,0.0,0.0,0.0,0.0,0.0,0.0,0.0,0.0,-1.0151,-0.9733,-0.9318,-0.801,-0.7854,-0.6728,-0.4173,-0.3779,-0.3851,-0.3925,-0.4969,-0.5523,-0.4816,-0.6057,-0.6564,-0.61,-0.683,0.0,-0.7254,-0.7291,-0.7318,-0.7318,-0.7106,-0.7125,-0.7125,0.0,0.0,-0.7047,-0.7756,-0.7503,-0.6524,-0.7381,-0.7587,-0.7128,-0.7444,-0.7572,-0.7496,-0.7278,-0.7147,-0.7076,-0.7535,-0.7454,-0.7112,0.0,0.0,0.0,0.0,0.0,0.0,0.0,0.0,0.0,0.0,0.0,0.0,0.0,0.0,0.0,0.0,0.0,0.0,0.0,0.0,0.0,0.0,0.0,0.0,0.0,0.0,0.0,0.0,0.0,0.0,0.0,0.0,0.0,0.0,0.0,0.0,0.0,0.0,0.0,0.0,0.0,0.0,-1.8089,-1.753,-1.6942,-1.6659,-1.6159,-1.5906,-1.5574,-1.5309,-1.5235,-1.5174,-1.5181,-1.5235,-1.5276,0.0,0.0,0.0,0.0,0.0,0.0,0.0,0.0,0.0,0.0,0.0,0.0,0.0,0.0,-1.7055,0.0,0.0,-1.4808,-1.2585,-1.1717,-1.0857,-1.0292,-0.9229,-0.7143,-0.4291,-0.3869,-0.3936,-0.4009,-0.455,-0.484,-0.4616,-0.586,-0.6365,-0.6158,-0.6622,-0.7118,-0.7145,-0.7145,-0.6887,-0.6633,-0.6633,-0.6365,-0.609,-0.6597,-0.6316,-0.6021,-0.6775,-0.6775,-0.6023,-0.6973,-0.7197,-0.6937,-0.7505,-0.7635,-0.7567,-0.742,-0.7286,-0.7398,-0.8475,-0.8155,-0.7174,0.0,0.0,0.0,0.0,0.0,0.0,0.0,0.0,0.0,0.0,0.0,0.0,0.0,0.0,0.0,0.0,0.0,0.0,0.0,0.0,0.0,0.0,0.0,0.0,0.0,0.0,0.0,0.0,0.0,0.0,0.0,0.0,0.0,0.0,0.0,0.0,0.0,0.0,0.0,0.0,0.0,0.0,-1.765,-1.5835,-1.52,-1.5288,-1.582,-1.5568,-1.5207,-1.518,-1.5282,-1.5187,-1.5215,-1.512,-1.5194,-1.5262,-1.5316,0.0,0.0,0.0,0.0,0.0,0.0,0.0,0.0,0.0,-1.5495,-1.6083,-1.7141,-1.7968,-1.7953,-1.5748,-1.4128,-1.4387,-1.3293,-1.2438,-1.1633,-0.9847,-0.7281,-0.4424,-0.3956,-0.3998,-0.4079,-0.4353,-0.4367,-0.4131,-0.5396,-0.6164,-0.5931,-0.641,-0.6936,-0.7012,-0.697,-0.6695,-0.6431,-0.6152,-0.5866,-0.5577,-0.5331,-0.5313,-0.5529,-0.5795,-0.6043,-0.6017,-0.6789,-0.7021,-0.7209,-0.7553,-0.7692,-0.7621,-0.7572,-0.7455,-0.7514,-0.9184,-0.8624,-0.7454,0.0,0.0,0.0,0.0,0.0,0.0,0.0,0.0,0.0,0.0,0.0,0.0,0.0,0.0,0.0,0.0,0.0,0.0,0.0,0.0,0.0,0.0,0.0,0.0,0.0,0.0,0.0,0.0,0.0,0.0,0.0,0.0,0.0,0.0,0.0,0.0,0.0,0.0,0.0,0.0,0.0,0.0,-1.6286,-1.5493,-1.5194,-1.5234,-1.5262,-1.5289,-1.5194,-1.5255,-1.5194,-1.5208,-1.5147,-1.52,-1.5404,-1.5786,0.0,-1.518,-1.5221,-1.5181,0.0,-1.5154,-1.5187,-1.5267,0.0,0.0,-1.6051,-1.6015,-1.7127,-1.7818,-1.7967,-1.7829,-1.7697,-1.7544,-1.7726,-1.6484,-1.2077,-1.1228,-0.9397,-0.4562,-0.4043,-0.4043,-0.4082,-0.5166,-0.5451,-0.4131,-0.5446,-0.5711,-0.439,-0.5673,-0.6168,-0.6143,-0.6137,-0.6388,-0.6894,-0.5911,-0.5927,-0.6947,-0.6476,-0.6469,-0.6936,-0.6344,-0.608,-0.6107,-0.6782,-0.7217,-0.7902,-0.7826,-0.7728,-0.763,-0.7621,-0.7537,-0.742,-0.7581,-0.7443,-0.7076,0.0,0.0,0.0,0.0,0.0,0.0,0.0,0.0,0.0,0.0,0.0,0.0,0.0,0.0,0.0,0.0,0.0,0.0,0.0,0.0,0.0,0.0,0.0,0.0,0.0,0.0,0.0,0.0,0.0,0.0,0.0,0.0,0.0,0.0,0.0,0.0,0.0,0.0,0.0,0.0,0.0,0.0,-1.6083,-1.5828,-1.5479,-1.5194,-1.5235,-1.5221,0.0,0.0,-1.5181,-1.5194,-1.5255,-1.5533,-1.5786,-1.6081,-1.573,0.0,-1.5221,0.0,0.0,0.0,-1.5535,-1.5696,-1.5668,-1.6259,-1.6817,-1.7183,-1.7468,-1.7946,-1.81,-1.8156,-1.8266,0.0,-1.7549,-1.5976,-1.4222,-1.1408,-0.8776,-0.6615,-0.5108,-0.4103,-0.4135,-0.4679,-0.4948,-0.4155,-0.5164,-0.541,-0.4644,-0.5161,-0.5677,-0.5686,-0.5686,-0.5419,-0.5392,-0.513,-0.5117,-0.5351,-0.5134,-0.5122,-0.5319,-0.51,-0.5113,-0.5609,-0.5776,-0.6473,-0.7445,-0.6863,-0.7044,-0.7728,-0.6699,-0.6886,-0.7537,-0.698,-0.6883,-0.6565,0.0,0.0,0.0,0.0,0.0,0.0,0.0,0.0,0.0,0.0,0.0,0.0,0.0,0.0,0.0,0.0,0.0,0.0,0.0,-1.4861,-1.5251,-1.5149,-1.5238,0.0,-1.5242,-1.5234,-1.5415,-1.6161,-1.6069,-1.6015,-1.6198,-1.6571,0.0,0.0,0.0,0.0,0.0,0.0,0.0,0.0,0.0,0.0,-1.6035,-1.6091,-1.5746,-1.5194,-1.5235,-1.5181,0.0,0.0,-1.5181,-1.5187,-1.5228,-1.5513,-1.5786,-1.5863,-1.5492,-1.5147,-1.512,0.0,0.0,-1.5335,-1.6117,-1.6543,-1.6607,-1.6937,-1.7426,-1.784,-1.7836,-1.8038,-1.8191,-1.8211,0.0,-1.7755,-1.6321,-1.4673,-1.3626,-1.0252,-0.7809,-0.7106,-0.5369,-0.4117,-0.4146,-0.4431,-0.445,-0.4187,-0.4671,-0.517,-0.4914,-0.5178,-0.5183,-0.52,-0.5192,-0.4919,-0.4644,-0.4877,-0.4853,-0.4573,-0.4353,-0.4338,-0.4538,-0.4348,-0.4613,-0.5086,-0.5021,-0.5741,-0.6978,-0.6165,-0.6611,-0.7309,-0.6503,-0.6464,-0.7138,-0.6587,-0.6287,-0.6453,0.0,0.0,0.0,0.0,0.0,0.0,0.0,0.0,0.0,0.0,0.0,0.0,0.0,0.0,0.0,0.0,0.0,0.0,0.0,-1.484,-1.5181,-1.5156,-1.5242,-1.5207,-1.5207,-1.5288,-1.5506,-1.6069,-1.6076,-1.6018,-1.6088,-1.6158,-1.6042,-1.6086,-1.6653,-1.6891,-1.692,-1.6252,-1.6137,-1.6252,-1.611,-1.6165,-1.6028,-1.6091,-1.5746,-1.5194,-1.5235,0.0,0.0,0.0,-1.5181,-1.5208,-1.516,-1.5214,0.0,-1.5207,-1.5296,0.0,0.0,0.0,-1.5367,-1.5936,-1.6925,-1.7938,-1.7925,-1.7843,-1.7926,-1.7998,-1.7846,-1.7901,-1.8057,-1.8213,-1.7491,-1.5204,-1.5206,-1.3558,-0.8683,-0.797,-0.7004,-0.4542,-0.4043,-0.4054,0.0,-0.4688,-0.501,-0.4218,-0.4769,-0.5023,-0.4173,-0.4957,-0.52,-0.5164,-0.5125,-0.5378,-0.6188,-0.4902,-0.4902,-0.6184,-0.4936,-0.4931,-0.6184,-0.5378,-0.5086,-0.5047,-0.5008,-0.5741,-0.6985,-0.6235,-0.6427,-0.6832,-0.6825,-0.6765,-0.6672,-0.5956,-0.6132,-0.6269,0.0,0.0,0.0,0.0,0.0,0.0,0.0,0.0,0.0,0.0,0.0,0.0,0.0,0.0,0.0,0.0,0.0,0.0,0.0,-1.447,-1.4808,-1.5156,-1.5153,-1.5451,-1.5842,-1.5753,-1.5883,-1.6036,-1.6546,-1.6488,-1.6083,-1.613,-1.6266,-1.6666,-1.6877,-1.6721,-1.6379,-1.6639,-1.6395,-1.6199,-1.6062,-1.6151,-1.5967,-1.5622,-1.5452,-1.5194,0.0,0.0,0.0,0.0,0.0,0.0,-1.5242,0.0,0.0,-1.5255,0.0,0.0,0.0,0.0,-1.664,-1.7037,-1.7692,-1.7882,-1.7847,-1.795,-1.8225,-1.8198,-1.7772,-1.765,-1.7901,-1.7989,-1.7914,-1.7384,-1.6172,-1.4391,-1.0996,-0.9066,-0.7063,-0.4264,-0.4048,0.0,0.0,0.0,0.0,-0.4215,-0.4471,-0.4457,-0.4173,-0.4452,-0.4442,-0.439,-0.4397,-0.4656,-0.4902,-0.439,-0.439,-0.4902,-0.4379,-0.439,-0.4936,-0.4621,-0.4324,-0.4293,-0.4282,-0.5016,-0.6241,-0.5491,-0.6239,-0.7478,-0.6169,-0.6148,-0.6868,-0.7002,-0.7436,-0.7665,0.0,0.0,0.0,0.0,0.0,0.0,0.0,0.0,0.0,0.0,0.0,0.0,0.0,0.0,0.0,0.0,0.0,0.0,0.0,0.0,-1.4598,-1.5264,-1.5133,-1.5458,-1.5842,-1.5712,-1.5794,-1.6088,-1.6189,-1.6279,-1.6182,-1.6131,-1.6254,-1.6764,-1.6654,-1.6522,-1.6361,-1.6876,-1.6682,-1.6118,-1.6342,-1.6237,-1.5683,-1.5341,-1.518,0.0,0.0,0.0,0.0,0.0,0.0,0.0,0.0,0.0,0.0,0.0,0.0,0.0,0.0,-1.6975,-1.7597,-1.7896,-1.7954,-1.795,-1.7968,-1.8211,-1.8218,-1.8145,-1.7717,-1.7412,-1.767,-1.767,-1.7545,-1.6859,-1.5901,-1.4455,-1.222,-1.0494,-0.8502,-0.578,-0.5553,0.0,0.0,0.0,0.0,-0.4211,-0.4211,-0.4197,-0.4173,-0.4202,-0.4191,-0.4135,-0.4148,-0.4148,-0.4131,-0.4131,-0.4131,-0.4131,-0.411,-0.4121,-0.4155,-0.4121,-0.4086,-0.4058,-0.4058,-0.4542,-0.5514,-0.5025,-0.5544,-0.6805,-0.5745,-0.6214,-0.7682,-0.8294,-0.973,-1.1209,0.0,0.0,0.0,0.0,0.0,0.0,0.0,0.0,0.0,0.0,0.0,0.0,0.0,0.0,0.0,0.0,0.0,0.0,0.0,0.0,0.0,-1.5118,-1.516,-1.5194,-1.52,-1.5155,-1.5428,-1.6015,-1.5435,-1.5435,-1.6029,-1.598,-1.6041,-1.6041,-1.6048,-1.6342,-1.6871,-1.6977,-1.6622,-1.6056,-1.676,-1.6236,-1.5222,-1.5261,0.0,0.0,0.0,0.0,0.0,0.0,0.0,0.0,0.0,0.0,0.0,0.0,0.0,-1.577,-1.748,-1.8388,-1.8616,-1.8045,-1.8122,-1.8376,-1.8287,-1.8199,-1.8131,-1.8247,-1.7684,-1.7209,0.0,0.0,-1.6466,-1.4448,-1.4532,-1.4062,-1.2362,-1.1743,-1.1012,0.0,0.0,0.0,0.0,0.0,0.0,-0.4739,0.0,-0.45,-0.418,-0.4204,-0.4193,-0.4135,-0.4131,-0.4131,-0.4131,-0.4131,-0.4131,-0.4131,-0.4131,-0.4131,-0.4131,-0.4131,-0.4114,-0.4086,-0.4086,-0.4324,-0.5052,-0.4326,-0.4578,-0.5052,-0.5811,-0.7004,-0.8879,-0.9614,-1.2806,-1.6199,0.0,0.0,0.0,0.0,0.0,0.0,0.0,0.0,0.0,0.0,0.0,0.0,0.0,0.0,0.0,0.0,0.0,0.0,0.0,0.0,0.0,0.0,0.0,0.0,0.0,0.0,0.0,0.0,0.0,-1.479,-1.5472,-1.5428,-1.5495,-1.5495,-1.54,-1.5466,-1.5703,-1.5629,-1.5506,-1.5433,0.0,-1.5931,-1.5215,0.0,0.0,0.0,0.0,0.0,0.0,0.0,0.0,0.0,0.0,0.0,-1.5227,0.0,0.0,-1.7358,-1.7732,-1.8152,-1.8283,-1.8129,-1.8356,-1.8479,-1.8165,-1.8124,-1.8002,-1.7704,-1.7229,-1.6809,0.0,0.0,0.0,-1.6769,-1.7768,0.0,-1.5358,-1.5296,0.0,0.0,0.0,-1.1296,-1.0486,-0.9271,0.0,0.0,-0.7383,-0.6325,-0.4208,-0.4215,-0.4202,-0.4162,-0.4142,-0.4131,-0.4131,-0.4131,-0.4131,-0.4131,-0.4131,-0.4131,-0.4131,-0.4131,-0.4114,-0.4086,-0.4086,-0.4588,-0.5091,-0.4845,-0.5369,-0.5895,-0.5355,-0.6846,-0.9336,-1.1033,-1.3494,-1.6485,0.0,0.0,0.0,0.0,0.0,0.0,0.0,0.0,0.0,0.0,0.0,0.0,0.0,0.0,0.0,0.0,0.0,0.0,0.0,0.0,0.0,0.0,0.0,0.0,0.0,0.0,0.0,0.0,0.0,0.0,0.0,-1.5174,-1.5241,-1.5247,-1.5129,-1.5162,-1.5162,0.0,0.0,0.0,0.0,0.0,0.0,0.0,0.0,0.0,0.0,0.0,0.0,0.0,0.0,-1.5142,-1.5261,-1.5347,-1.5676,-1.6259,0.0,-1.7876,-1.7932,-1.8121,-1.8441,-1.8369,-1.8308,-1.8321,-1.7968,-1.7894,-1.7758,-1.7236,-1.6768,0.0,0.0,0.0,0.0,0.0,0.0,0.0,-1.821,-1.8176,-1.7302,0.0,-1.4596,0.0,-1.1168,-1.0455,-0.9205,0.0,0.0,-0.5812,-0.4218,-0.4242,-0.4233,-0.4177,-0.4184,-0.4184,-0.4169,-0.4146,-0.4137,-0.4148,-0.4137,-0.4131,-0.4131,-0.4131,-0.4121,-0.4106,0.0,-0.436,-0.4616,-0.4616,-0.5654,-0.6954,-0.6929,-0.9191,-1.2458,-1.3911,-1.5879,-1.7832,0.0,0.0,0.0,0.0,0.0,0.0,0.0,0.0,0.0,0.0,0.0,0.0,0.0,0.0,0.0,0.0,0.0,0.0,0.0,0.0,0.0,0.0,0.0,0.0,0.0,0.0,0.0,0.0,0.0,0.0,0.0,0.0,0.0,0.0,0.0,0.0,0.0,0.0,0.0,0.0,0.0,0.0,0.0,0.0,0.0,0.0,0.0,0.0,0.0,0.0,-1.5294,-1.5354,-1.5658,-1.6051,-1.6646,-1.7654,-1.7939,-1.7988,-1.8107,-1.8273,-1.8362,-1.8355,-1.8443,-1.8375,-1.7806,-1.765,-1.7433,-1.6795,0.0,0.0,-1.5832,0.0,-1.6714,-1.7202,0.0,-1.9203,-2.0241,-2.0315,-1.9718,-1.7991,-1.7175,-1.5,-1.0021,-1.1137,-1.0121,-0.534,-0.4545,-0.4267,-0.424,-0.4289,-0.4274,-0.4187,-0.4236,-0.4247,-0.4211,-0.4162,-0.4148,-0.4166,-0.4142,-0.4131,-0.4131,-0.4131,-0.4131,-0.4131,0.0,0.0,-0.4131,-0.439,-0.5931,-0.7728,-0.8754,-1.1532,-1.5271,-1.5771,-1.7235,-1.8649,0.0,0.0,0.0,0.0,0.0,0.0,0.0,0.0,0.0,0.0,0.0,0.0,0.0,0.0,0.0,0.0,0.0,0.0,0.0,0.0,0.0,0.0,0.0,0.0,0.0,0.0,0.0,0.0,0.0,0.0,0.0,0.0,0.0,0.0,0.0,0.0,0.0,0.0,0.0,0.0,0.0,0.0,0.0,0.0,0.0,0.0,0.0,0.0,0.0,0.0,-1.5592,-1.6282,-1.7763,-1.7931,-1.7668,-1.8143,-1.829,-1.8121,-1.8321,-1.8568,-1.8498,-1.8498,-1.8511,-1.8409,-1.7935,-1.7629,0.0,0.0,0.0,-1.5961,-1.556,-1.6157,0.0,-1.7636,0.0,0.0,0.0,0.0,-2.0855,0.0,0.0,0.0,0.0,0.0,0.0,0.0,0.0,0.0,-0.4334,-0.4341,-0.4316,-0.4249,-0.4257,-0.4236,-0.418,-0.417,-0.4155,-0.4137,-0.4135,-0.4131,-0.4131,-0.4131,-0.4131,-0.4131,0.0,0.0,-0.4389,-0.6442,-0.6442,-0.5161,-0.7469,-0.9005,-0.9497,-0.9756,-1.1288,-1.3565,0.0,0.0,0.0,0.0,0.0,0.0,0.0,0.0,0.0,0.0,0.0,0.0,0.0,0.0,0.0,0.0,0.0,0.0,0.0,0.0,0.0,0.0,0.0,0.0,0.0,0.0,0.0,0.0,0.0,0.0,0.0,0.0,0.0,0.0,0.0,0.0,0.0,0.0,0.0,0.0,0.0,0.0,0.0,0.0,0.0,0.0,0.0,0.0,0.0,0.0,-1.5803,-1.6947,-1.831,-1.8536,-1.8216,-1.8392,-1.8232,-1.8218,-1.8658,-1.8606,-1.8674,-1.8742,-1.8654,-1.8355,-1.767,0.0,0.0,0.0,0.0,-1.5764,-1.5466,0.0,0.0,0.0,0.0,0.0,0.0,0.0,0.0,0.0,0.0,0.0,0.0,0.0,0.0,0.0,0.0,0.0,-0.4379,-0.4361,-0.4341,-0.4313,-0.4282,-0.4257,-0.4242,-0.4211,-0.4197,-0.4202,-0.417,-0.4152,-0.4152,-0.4137,-0.4131,-0.4131,-0.4131,0.0,-0.4131,-0.5415,-0.6188,-0.6442,-0.7728,-0.9005,-1.0288,-1.0288,-1.1058,-1.2079,0.0,0.0,0.0,0.0,0.0,0.0,0.0,0.0,0.0,0.0,0.0,0.0,0.0,0.0,0.0,0.0,0.0,0.0,0.0,0.0,0.0,0.0,0.0,0.0,0.0,0.0,0.0,0.0,0.0,0.0,0.0,0.0,0.0,0.0,0.0,0.0,0.0,0.0,0.0,0.0,0.0,0.0,0.0,0.0,0.0,0.0,0.0,0.0,0.0,0.0,-1.6124,-1.7198,-1.8074,-1.822,-1.8191,-1.8376,-1.8233,-1.8287,-1.8694,-1.885,-1.8918,-1.9006,-1.8816,-1.8355,-1.7487,-1.6985,0.0,0.0,0.0,0.0,0.0,0.0,0.0,0.0,0.0,0.0,0.0,0.0,0.0,0.0,0.0,0.0,0.0,0.0,0.0,0.0,0.0,0.0,0.0,-0.439,-0.4372,-0.4365,-0.4313,-0.4289,-0.4298,-0.4253,-0.4236,-0.4253,-0.4197,-0.4173,-0.4173,-0.4146,-0.4131,-0.4131,-0.4131,0.0,0.0,-0.4644,-0.5931,-0.7469,-0.798,-0.9262,-1.0548,-1.0548,-1.0548,-1.0288,0.0,0.0,0.0,0.0,0.0,0.0,0.0,0.0,0.0,0.0,0.0,0.0,0.0,0.0,0.0,0.0,0.0,0.0,0.0,0.0,0.0,0.0,0.0,0.0,0.0,0.0,0.0,0.0,0.0,0.0,0.0,0.0,0.0,0.0,0.0,0.0,0.0,0.0,0.0,0.0,0.0,0.0,0.0,0.0,0.0,0.0,0.0,0.0,0.0,0.0,0.0,-1.6206,-1.6632,-1.7209,-1.7704,-1.8023,0.0,0.0,-1.8884,-1.9169,-1.9345,-1.9217,-1.8959,-1.8552,-1.7772,0.0,0.0,0.0,-1.5716,-1.5716,0.0,0.0,0.0,0.0,0.0,0.0,0.0,0.0,0.0,0.0,0.0,0.0,0.0,0.0,0.0,0.0,0.0,0.0,0.0,-0.4448,-0.4421,-0.4397,-0.4365,-0.432,-0.4267,-0.4264,-0.4247,-0.4222,-0.4191,-0.4173,-0.4173,-0.4146,-0.4131,-0.4131,0.0,0.0,0.0,-0.6701,-0.6442,-0.4644,-0.7211,-0.6701,-0.4902,-0.4902,-0.4902,-0.4902,0.0,0.0,0.0,0.0,0.0,0.0,0.0,0.0,0.0,0.0,0.0,0.0,0.0,0.0,0.0,0.0,0.0,0.0,0.0,0.0,0.0,0.0,0.0,0.0,0.0,0.0,0.0,0.0,0.0,0.0,0.0,0.0,0.0,0.0,0.0,0.0,0.0,0.0,0.0,0.0,0.0,0.0,0.0,0.0,0.0,0.0,0.0,0.0,0.0,0.0,0.0,0.0,-1.5893,-1.6354,0.0,0.0,-1.7968,-1.8267,-1.8938,-1.9345,-1.9576,-1.961,-1.9257,-1.8708,-1.7948,0.0,0.0,-1.5961,-1.5811,-1.5832,-1.6042,0.0,0.0,0.0,0.0,0.0,0.0,0.0,0.0,0.0,0.0,0.0,0.0,0.0,0.0,0.0,0.0,0.0,0.0,-0.4448,-0.4414,-0.4347,-0.4352,-0.4334,-0.4292,-0.4292,-0.4285,-0.4271,-0.4222,-0.4211,-0.4226,-0.4159,-0.4142,-0.4155,0.0,0.0,0.0,-0.5161,-0.5161,-0.4131,-0.5419,-0.5161,-0.4131,-0.4131,-0.4131,-0.4131,0.0,0.0,0.0,0.0,0.0,0.0,0.0,0.0,0.0,0.0,0.0,0.0,0.0,0.0,0.0,0.0,0.0,0.0,0.0,0.0,0.0,0.0,0.0,0.0,0.0,0.0,0.0,0.0,0.0,0.0,0.0,0.0,0.0,0.0,0.0,0.0,0.0,0.0,0.0,0.0,0.0,0.0,0.0,0.0,0.0,0.0,0.0,0.0,0.0,0.0,0.0,0.0,0.0,0.0,0.0,0.0,-1.7609,-1.8057,-1.8905,-1.9434,-1.9752,-1.9854,-1.9434,-1.8796,0.0,0.0,-1.6564,-1.6137,-1.5981,-1.5995,-1.6232,-1.6327,-1.6503,-1.6917,0.0,-1.7297,0.0,0.0,0.0,0.0,0.0,0.0,0.0,0.0,0.0,0.0,0.0,0.0,0.0,-0.4446,-0.441,-0.4337,-0.4341,-0.4334,-0.4323,-0.4313,-0.4309,-0.4309,-0.4257,-0.424,-0.4247,-0.4177,-0.4155,-0.4173,0.0,0.0,0.0,-0.4146,-0.4137,-0.4131,-0.4142,-0.4146,-0.4146,-0.4152,-0.4152,-0.4146,0.0,0.0,0.0,0.0,0.0,0.0,0.0,0.0,0.0,0.0,0.0,0.0,0.0,0.0,0.0,0.0,0.0,0.0,0.0,0.0,0.0,0.0,0.0,0.0,0.0,0.0,0.0,0.0,0.0,0.0,0.0,0.0,0.0,0.0,0.0,0.0,0.0,0.0,0.0,0.0,0.0,0.0,0.0,0.0,0.0,0.0,0.0,0.0,0.0,0.0,0.0,0.0,0.0,0.0,0.0,0.0,-1.7283,-1.8023,-1.8782,-1.9413,-1.9875,-1.9875,-1.9434,-1.883,0.0,0.0,-1.6524,-1.6517,-1.6279,-1.6218,-1.6659,-1.6619,-1.6619,-1.6931,-1.6978,0.0,0.0,0.0,0.0,0.0,0.0,0.0,0.0,0.0,0.0,0.0,0.0,0.0,0.0,0.0,-0.4428,-0.4401,-0.4341,-0.4323,-0.4354,-0.4323,-0.4309,-0.4309,-0.4278,-0.4247,-0.4218,-0.4187,-0.4173,0.0,0.0,0.0,0.0,-0.4173,-0.4155,-0.4135,-0.4162,-0.4173,-0.4177,-0.4208,-0.4197,-0.4173,0.0,0.0,0.0,0.0,0.0,0.0,0.0,0.0,0.0,0.0,0.0,0.0,0.0,0.0,0.0,0.0,0.0,0.0,0.0,0.0,0.0,0.0,0.0,0.0,0.0,0.0,0.0,0.0,0.0,0.0,0.0,0.0,0.0,0.0,0.0,0.0,0.0,0.0,0.0,0.0,0.0,0.0,0.0,0.0,0.0,0.0,0.0,0.0,0.0,0.0,0.0,0.0,0.0,0.0,0.0,0.0,0.0,0.0,-1.7894,-1.8511,-1.8952,-1.8952,-1.8654,-1.8267,-1.788,0.0,-1.6646,-1.6544,-1.6368,-1.6341,-1.6686,-1.6625,-1.6653,-1.706,-1.7046,-1.7114,0.0,0.0,0.0,0.0,0.0,0.0,0.0,0.0,0.0,0.0,0.0,0.0,0.0,0.0,-0.4379,-0.4369,-0.4352,-0.4334,-0.4323,-0.4313,-0.4309,-0.4309,-0.4278,-0.4271,-0.4278,-0.4229,0.0,0.0,0.0,0.0,0.0,-0.4193,-0.4197,-0.4191,-0.4202,-0.4204,-0.4204,-0.4215,-0.5507,-0.703,0.0,0.0,0.0,0.0,0.0,0.0,0.0,0.0,0.0,0.0,0.0,0.0,0.0,0.0,0.0,0.0,0.0,0.0,0.0,0.0,0.0,0.0,0.0,0.0,0.0,0.0,0.0,0.0,0.0,0.0,0.0,0.0,0.0,0.0,0.0,0.0,0.0,0.0,0.0,0.0,0.0,0.0,0.0,0.0,0.0,0.0,0.0,0.0,0.0,0.0,0.0,0.0,0.0,0.0,0.0,0.0,0.0,0.0,0.0,-1.8002,-1.8389,-1.8498,-1.8267,0.0,0.0,0.0,0.0,-1.67,-1.6578,-1.653,-1.6714,-1.6625,-1.6632,-1.6971,-1.6998,-1.6855,0.0,0.0,0.0,0.0,0.0,0.0,0.0,0.0,0.0,0.0,0.0,0.0,0.0,0.0,-0.4383,-0.4372,-0.4352,-0.4334,-0.4327,-0.4316,-0.4309,-0.4309,-0.4289,-0.4285,-0.4292,-0.4253,0.0,0.0,0.0,0.0,0.0,-0.4229,-0.4229,-0.4218,-0.4233,-0.4236,-0.4236,-0.4249,-0.5279,-0.6796,0.0,0.0,0.0,0.0,0.0,0.0,0.0,0.0,0.0,0.0,0.0,0.0,0.0,0.0,0.0,0.0,0.0,0.0,0.0,0.0,0.0,0.0,0.0,0.0,0.0,0.0,0.0,0.0,0.0,0.0,0.0,0.0,0.0,0.0,0.0,0.0,0.0,0.0,0.0,0.0,0.0,0.0,0.0,0.0,0.0,0.0,0.0,0.0,0.0,0.0,0.0,0.0,0.0,0.0,0.0,0.0,0.0,0.0,0.0,0.0,0.0,0.0,0.0,0.0,0.0,0.0,0.0,0.0,0.0,0.0,0.0,-1.6632,-1.6564,-1.6754,-1.6668,-1.6035,0.0,0.0,0.0,0.0,0.0,0.0,0.0,0.0,0.0,0.0,0.0,0.0,0.0,0.0,0.0,-0.4397,-0.4341,-0.4323,-0.4352,-0.4323,-0.4309,-0.4309,-0.4309,-0.4296,-0.4267,-0.4267,0.0,0.0,0.0,0.0,0.0,-0.4267,-0.4249,-0.4229,-0.4257,-0.4267,-0.4271,-0.4298,-0.4271,-0.4486,0.0,0.0,0.0,0.0,0.0,0.0,0.0,0.0,0.0,0.0,0.0,0.0,0.0,0.0,0.0,0.0,0.0,0.0,0.0,0.0,0.0,0.0,0.0,0.0,0.0,0.0,0.0,0.0,0.0,0.0,0.0,0.0,0.0,0.0,0.0,0.0,0.0,0.0,0.0,0.0,0.0,0.0,0.0,0.0,0.0,0.0,0.0,0.0,0.0,0.0,0.0,0.0,0.0,0.0,0.0,0.0,-1.6056,0.0,0.0,0.0,0.0,0.0,0.0,0.0,0.0,0.0,0.0,0.0,0.0,0.0,0.0,0.0,-1.6517,-1.7005,-1.5357,-1.385,0.0,0.0,0.0,0.0,0.0,0.0,0.0,0.0,0.0,0.0,0.0,0.0,0.0,0.0,0.0,-0.4365,-0.433,-0.4313,-0.432,-0.4313,-0.4309,-0.4309,-0.4309,-0.4305,-0.4298,-0.4298,0.0,0.0,0.0,0.0,-0.4267,-0.4289,-0.4296,-0.4289,-0.4296,-0.4298,-0.4298,-0.4305,-0.5621,-0.7698,0.0,0.0,0.0,0.0,0.0,0.0,0.0,0.0,0.0,0.0,0.0,0.0,0.0,0.0,0.0,0.0,0.0,0.0,0.0,0.0,0.0,0.0,0.0,0.0,0.0,0.0,0.0,0.0,0.0,0.0,0.0,0.0,0.0,0.0,0.0,0.0,0.0,0.0,0.0,0.0,0.0,0.0,0.0,0.0,0.0,0.0,-1.5988,0.0,0.0,-1.5988,-1.6015,-1.6083,0.0,0.0,0.0,0.0,-1.6137,0.0,0.0,0.0,0.0,0.0,0.0,0.0,0.0,0.0,0.0,0.0,0.0,0.0,0.0,0.0,0.0,-1.5363,-1.3278,-1.1556,0.0,0.0,0.0,0.0,0.0,0.0,0.0,0.0,0.0,0.0,0.0,0.0,0.0,0.0,0.0,0.0,-0.4327,-0.4309,-0.4309,-0.4309,-0.4309,-0.4309,-0.4309,-0.4309,-0.4309,-0.4309,0.0,0.0,0.0,0.0,-0.4285,-0.4302,-0.4309,-0.4309,-0.4309,-0.4309,-0.4309,-0.4309,-0.6162,-0.8775,0.0,0.0,0.0,0.0,0.0,0.0,0.0,0.0,0.0,0.0,0.0,0.0,0.0,0.0,0.0,0.0,0.0,0.0,0.0,0.0,0.0,0.0,0.0,0.0,0.0,0.0,0.0,0.0,0.0,0.0,0.0,0.0,0.0,0.0,0.0,0.0,0.0,0.0,0.0,0.0,0.0,0.0,0.0,0.0,0.0,0.0,0.0,0.0,0.0,-1.6083,-1.6083,-1.6083,-1.6083,0.0,0.0,0.0,0.0,0.0,0.0,0.0,0.0,0.0,0.0,0.0,0.0,0.0,0.0,0.0,0.0,0.0,0.0,0.0,0.0,0.0,0.0,0.0,0.0,0.0,0.0,0.0,0.0,0.0,0.0,0.0,0.0,0.0,0.0,0.0,0.0,0.0,0.0,0.0,-0.4327,-0.4309,-0.4309,-0.4309,-0.4309,-0.4309,-0.4309,-0.4309,-0.4309,-0.4309,0.0,0.0,0.0,0.0,-0.4309,-0.4309,-0.4309,-0.4309,-0.4309,-0.4309,-0.4309,-0.4309,-0.6168,-0.8523,0.0,0.0,0.0,0.0,0.0,0.0,0.0,0.0,0.0,0.0,0.0,0.0,0.0,0.0,0.0,0.0,0.0,0.0,0.0,0.0,0.0,0.0,0.0,0.0,0.0,0.0,0.0,0.0,0.0,0.0,0.0,0.0,0.0,0.0,0.0,0.0,0.0,0.0,0.0,0.0,0.0,0.0,0.0,0.0,0.0,0.0,0.0,0.0,0.0,-1.6083,-1.6083,-1.6083,-1.6083,0.0,0.0,0.0,0.0,0.0,-1.6449,0.0,0.0,0.0,0.0,0.0,0.0,0.0,0.0,0.0,0.0,0.0,0.0,0.0,0.0,0.0,0.0,0.0,0.0,0.0,0.0,0.0,0.0,0.0,0.0,0.0,0.0,0.0,0.0,0.0,0.0,0.0,0.0,0.0,0.0,-0.4309,-0.4309,-0.4309,-0.4309,-0.4309,-0.4309,-0.4309,-0.4309,-0.4309,-0.4309,0.0,0.0,-0.4309,-0.4309,-0.4309,-0.4309,-0.4309,-0.4309,-0.4309,-0.4309,-0.4309,-0.6181,-0.8848,0.0,0.0,0.0,0.0,0.0,0.0,0.0,0.0,0.0,0.0,0.0,0.0,0.0,0.0,0.0,0.0,0.0,0.0,0.0,0.0,0.0,0.0,0.0,0.0,0.0,0.0,0.0,0.0,0.0,0.0,0.0,0.0,0.0,0.0,0.0,0.0,0.0,0.0,0.0,0.0,0.0,0.0,0.0,0.0,0.0,0.0,0.0,0.0,0.0,0.0,-1.6083,-1.6083,-1.6083,0.0,0.0,0.0,0.0,0.0,-1.6463,-1.6571,0.0,0.0,0.0,0.0,0.0,0.0,0.0,0.0,0.0,0.0,0.0,0.0,0.0,0.0,0.0,0.0,0.0,0.0,0.0,0.0,0.0,0.0,0.0,0.0,0.0,0.0,0.0,0.0,0.0,0.0,0.0,0.0,0.0,-0.4309,-0.4309,-0.4309,-0.4309,-0.4309,-0.4309,-0.4309,-0.4309,-0.4309,-0.4309,-0.4309,0.0,-0.4309,-0.4309,-0.4309,-0.4309,-0.4309,-0.4309,-0.4309,-0.4578,-0.5919,-0.7524,-0.9119,0.0,0.0,0.0,0.0,0.0,0.0,0.0,0.0,0.0,0.0,0.0,0.0,0.0,0.0,0.0,0.0,0.0,0.0,0.0,0.0,0.0,0.0,0.0,0.0,0.0,0.0,0.0,0.0,0.0,0.0,0.0,0.0,0.0,0.0,0.0,0.0,0.0,0.0,0.0,0.0,0.0,0.0,0.0,0.0,0.0,0.0,0.0,0.0,0.0,0.0,0.0,0.0,0.0,0.0,0.0,0.0,-1.6341,-1.6191,-1.6449,-1.6544,0.0,0.0,0.0,0.0,0.0,0.0,0.0,0.0,0.0,0.0,0.0,0.0,0.0,0.0,0.0,0.0,0.0,0.0,0.0,0.0,0.0,0.0,0.0,0.0,0.0,0.0,0.0,0.0,0.0,0.0,0.0,0.0,0.0,0.0,-0.4309,-0.4309,-0.4309,-0.4309,-0.4309,-0.4309,-0.4309,-0.4309,-0.4309,-0.4309,-0.4309,-0.4309,-0.4309,-0.4309,-0.4309,-0.4309,-0.4309,-0.4309,-0.4578,-0.7524,-0.805,-0.803,0.0,0.0,0.0,0.0,0.0,0.0,0.0,0.0,0.0,0.0,0.0,0.0,0.0,0.0,0.0,0.0,0.0,0.0,0.0,0.0,0.0,0.0,0.0,0.0,0.0,0.0,0.0,0.0,0.0,0.0,0.0,0.0,0.0,0.0,0.0,0.0,0.0,0.0,0.0,0.0,0.0,0.0,0.0,0.0,0.0,0.0,0.0,0.0,0.0,0.0,0.0,0.0,0.0,0.0,0.0,0.0,0.0,-1.6327,-1.6476,-1.6625,-1.6734,0.0,0.0,0.0,0.0,0.0,0.0,0.0,0.0,0.0,0.0,0.0,0.0,0.0,0.0,0.0,0.0,0.0,0.0,0.0,0.0,0.0,0.0,0.0,0.0,0.0,0.0,0.0,0.0,0.0,0.0,0.0,0.0,0.0,-0.4309,-0.4309,-0.4309,-0.4309,-0.4309,-0.4309,-0.4309,-0.4309,-0.4309,-0.4309,-0.4309,-0.4309,-0.4309,-0.4309,-0.4309,-0.4309,-0.4309,-0.4309,-0.4578,-0.7524,-0.6963,-0.5335,0.0,0.0,0.0,0.0,0.0,0.0,0.0,0.0,0.0,0.0,0.0,0.0,0.0,0.0,0.0,0.0,0.0,0.0,0.0,0.0,0.0,0.0,0.0,0.0,0.0,0.0,0.0,0.0,0.0,0.0,0.0,0.0,0.0,0.0,0.0,0.0,0.0,0.0,0.0,0.0,0.0,0.0,0.0,0.0,0.0,0.0,0.0,0.0,0.0,0.0,-1.6083,0.0,0.0,0.0,0.0,0.0,0.0,-1.6198,-1.6347,-1.6497,-1.6632,-1.6727,0.0,0.0,0.0,0.0,0.0,0.0,0.0,0.0,0.0,0.0,0.0,0.0,0.0,0.0,0.0,0.0,0.0,0.0,0.0,0.0,0.0,0.0,0.0,0.0,0.0,0.0,0.0,0.0,0.0,0.0,0.0,0.0,-0.4309,-0.4309,-0.4309,-0.4309,-0.4309,-0.4309,-0.4309,-0.4309,-0.4309,-0.4309,-0.4309,-0.4309,-0.4309,-0.4309,-0.4309,-0.4309,-0.4309,-0.4309,-0.4309,-0.5653,-0.5105,-0.5093,0.0,0.0,0.0,0.0,0.0,0.0,0.0,0.0,0.0,0.0,0.0,0.0,0.0,0.0,0.0,0.0,0.0,0.0,0.0,0.0,0.0,0.0,0.0,0.0,0.0,0.0,0.0,0.0,0.0,0.0,0.0,0.0,0.0,0.0,0.0,0.0,0.0,0.0,0.0,0.0,0.0,0.0,0.0,0.0,0.0,0.0,0.0,0.0,0.0,0.0,0.0,0.0,0.0,0.0,0.0,0.0,0.0,0.0,-1.6212,-1.6341,-1.649,-1.6639,0.0,0.0,0.0,0.0,0.0,0.0,0.0,0.0,0.0,0.0,0.0,0.0,0.0,0.0,0.0,0.0,0.0,0.0,0.0,0.0,0.0,0.0,0.0,0.0,0.0,0.0,0.0,0.0,0.0,0.0,0.0,0.0,-0.4309,-0.4309,-0.4309,-0.4309,-0.4309,-0.4309,-0.4309,-0.4309,-0.4309,-0.4309,-0.4309,-0.4309,-0.4309,-0.4309,-0.4309,-0.4309,-0.4309,-0.4309,-0.4309,-0.4309,-0.4302,-0.5097,0.0,0.0,0.0,0.0,0.0,0.0,0.0,0.0,0.0,0.0,0.0,0.0,0.0,0.0,0.0,0.0,0.0,0.0,0.0,0.0,0.0,0.0,0.0,0.0,0.0,0.0,0.0,0.0,0.0,0.0,0.0,0.0,0.0,0.0,0.0,0.0,0.0,0.0,0.0,0.0,0.0,0.0,0.0,0.0,0.0,0.0,0.0,0.0,0.0,0.0,0.0,0.0,0.0,0.0,0.0,0.0,-1.6198,-1.6083,-1.6083,-1.6191,-1.6341,0.0,0.0,0.0,0.0,0.0,0.0,0.0,0.0,0.0,0.0,0.0,0.0,0.0,0.0,0.0,0.0,0.0,0.0,0.0,0.0,0.0,0.0,0.0,0.0,0.0,0.0,0.0,0.0,0.0,0.0,0.0,0.0,0.0,-0.4309,-0.4309,-0.4309,-0.4309,-0.4309,-0.4309,-0.4309,-0.4309,-0.4309,-0.4309,-0.4309,-0.4309,-0.4309,-0.4309,-0.4309,-0.4309,-0.4309,-0.4309,-0.4309,-0.4309,-0.4292,-0.4802,0.0,0.0,0.0,0.0,0.0,0.0,0.0,0.0,0.0,0.0,0.0,0.0,0.0,0.0,0.0,0.0,0.0,0.0,0.0,0.0,0.0,0.0,0.0,0.0,0.0,0.0,0.0,0.0,0.0,0.0,0.0,0.0,0.0,0.0,0.0,0.0,0.0,0.0,0.0,0.0,0.0,0.0,0.0,0.0,0.0,0.0,0.0,0.0,0.0,0.0,0.0,0.0,0.0,0.0,0.0,-1.2216,-1.1747,-1.1864,-1.3467,0.0,0.0,0.0,0.0,0.0,0.0,0.0,0.0,0.0,0.0,0.0,0.0,0.0,0.0,0.0,0.0,0.0,0.0,0.0,0.0,0.0,0.0,0.0,0.0,0.0,0.0,0.0,0.0,0.0,0.0,0.0,0.0,0.0,0.0,0.0,-0.4309,-0.4309,-0.4309,-0.4309,-0.4309,-0.4309,-0.4309,-0.4309,-0.4309,-0.4309,-0.4309,-0.4309,-0.4309,-0.4309,-0.4309,-0.4309,-0.4309,-0.4309,-0.4309,-0.4309,-0.4302,-0.5101,0.0,0.0,0.0,0.0,0.0,0.0,0.0,0.0,0.0,0.0,0.0,0.0,0.0,0.0,0.0,0.0,0.0,0.0,0.0,0.0,0.0,0.0,0.0,0.0,0.0,-0.4894,-0.6693,0.0,0.0,0.0,0.0,0.0,0.0,0.0,0.0,0.0,0.0,0.0,0.0,0.0,0.0,0.0,0.0,0.0,0.0,0.0,0.0,0.0,0.0,0.0,0.0,0.0,0.0,0.0,0.0,-1.0172,-0.9702,-1.0028,0.0,0.0,0.0,0.0,0.0,0.0,0.0,0.0,0.0,0.0,0.0,0.0,0.0,0.0,0.0,0.0,0.0,0.0,0.0,0.0,0.0,0.0,0.0,0.0,0.0,0.0,0.0,0.0,0.0,0.0,0.0,0.0,0.0,0.0,0.0,0.0,-0.4309,-0.4309,-0.4309,-0.4309,-0.4309,-0.4309,-0.4309,-0.4309,-0.4309,-0.4309,-0.4309,-0.4309,-0.4309,-0.4309,-0.4309,-0.4309,-0.4296,-0.4298,-0.4309,-0.4296,-0.4298,-0.5114,0.0,0.0,0.0,0.0,0.0,0.0,0.0,0.0,0.0,0.0,0.0,0.0,0.0,0.0,0.0,0.0,0.0,0.0,0.0,0.0,0.0,0.0,0.0,0.0,0.0,0.0,0.0,0.0,0.0,0.0,0.0,0.0,0.0,0.0,0.0,0.0,0.0,0.0,0.0,0.0,0.0,0.0,0.0,0.0,0.0,0.0,0.0,0.0,0.0,0.0,0.0,0.0,0.0,0.0,0.0,-0.9128,-0.9067,0.0,0.0,0.0,0.0,0.0,0.0,0.0,0.0,0.0,0.0,0.0,0.0,0.0,0.0,0.0,0.0,0.0,0.0,0.0,0.0,0.0,0.0,0.0,0.0,0.0,0.0,0.0,0.0,0.0,0.0,0.0,0.0,0.0,0.0,0.0,0.0,0.0,-0.4309,-0.4309,-0.4309,0.0,-0.4309,-0.4309,-0.4305,-0.4309,-0.4309,-0.4309,-0.4309,-0.4309,-0.4305,-0.4305,-0.4302,-0.4298,-0.4274,-0.4281,-0.4302,-0.4278,-0.4285,-0.5114,0.0,0.0,0.0,0.0,0.0,0.0,0.0,0.0,0.0,0.0,0.0,0.0,0.0,0.0,0.0,0.0,0.0,0.0,0.0,0.0,0.0,0.0,0.0,0.0,0.0,0.0,0.0,0.0,0.0,0.0,0.0,0.0,0.0,0.0,0.0,0.0,0.0,0.0,0.0,0.0,0.0,0.0,0.0,0.0,0.0,0.0,0.0,0.0,0.0,0.0,0.0,0.0,0.0,-0.7077,-0.6898,-0.506,-0.4663,0.0,0.0,0.0,0.0,0.0,0.0,0.0,0.0,0.0,0.0,0.0,0.0,0.0,0.0,0.0,0.0,0.0,0.0,0.0,0.0,0.0,0.0,0.0,0.0,0.0,0.0,0.0,0.0,0.0,0.0,0.0,0.0,0.0,0.0,0.0,0.0,-0.4309,-0.4309,-0.4309,-0.4309,0.0,-0.4309,-0.4296,-0.4274,-0.4298,-0.4309,-0.4309,-0.4309,-0.4296,-0.4274,-0.4274,-0.426,-0.424,-0.4257,-0.4267,-0.4274,-0.4292,-0.4302,-0.5114,0.0,0.0,0.0,0.0,0.0,0.0,0.0,0.0,0.0,0.0,0.0,0.0,0.0,0.0,0.0,0.0,0.0,0.0,0.0,0.0,0.0,0.0,0.0,0.0,0.0,0.0,0.0,0.0,0.0,0.0,0.0,0.0,0.0,0.0,0.0,0.0,0.0,0.0,0.0,0.0,0.0,0.0,0.0,0.0,0.0,0.0,0.0,0.0,0.0,0.0,0.0,0.0,0.0,0.0,-0.4647,-0.3653,-0.3253,0.0,0.0,0.0,0.0,0.0,0.0,0.0,0.0,0.0,0.0,0.0,0.0,0.0,0.0,0.0,0.0,0.0,0.0,0.0,0.0,0.0,0.0,0.0,0.0,0.0,0.0,0.0,0.0,0.0,0.0,0.0,0.0,0.0,0.0,0.0,-0.4302,-0.4302,-0.4289,-0.4302,-0.4296,-0.4267,-0.4281,-0.4278,-0.4264,-0.4281,-0.4296,-0.4309,-0.4296,-0.4289,-0.4285,-0.4253,-0.4249,-0.426,-0.4233,-0.4247,-0.4281,-0.4253,-0.5068,-0.6985,0.0,0.0,0.0,0.0,0.0,0.0,0.0,0.0,0.0,0.0,0.0,0.0,0.0,0.0,0.0,0.0,0.0,0.0,0.0,0.0,0.0,0.0,0.0,0.0,0.0,0.0,0.0,0.0,0.0,0.0,0.0,0.0,0.0,0.0,0.0,0.0,0.0,0.0,0.0,0.0,0.0,0.0,0.0,0.0,0.0,0.0,0.0,0.0,0.0,0.0,0.0,0.0,0.0,0.0,-0.3205,-0.3254,-0.3254,-0.3262,0.0,0.0,0.0,0.0,0.0,0.0,0.0,0.0,0.0,0.0,0.0,0.0,0.0,0.0,0.0,0.0,0.0,0.0,0.0,0.0,0.0,0.0,0.0,0.0,0.0,0.0,0.0,0.0,0.0,0.0,0.0,0.0,-0.4278,-0.4292,-0.4302,-0.4292,-0.4257,-0.4285,-0.4274,-0.4218,-0.424,-0.4249,-0.4257,-0.4249,-0.4267,-0.4298,-0.4271,-0.4267,-0.4281,-0.4233,-0.4236,-0.4271,-0.4208,-0.449,-0.5089,-0.4483,-0.6091,-0.9125,0.0,0.0,0.0,0.0,0.0,0.0,0.0,0.0,0.0,0.0,0.0,0.0,0.0,0.0,0.0,0.0,0.0,0.0,0.0,0.0,0.0,0.0,0.0,0.0,0.0,0.0,0.0,0.0,0.0,0.0,0.0,0.0,0.0,0.0,0.0,0.0,0.0,0.0,0.0,0.0,0.0,0.0,0.0,0.0,0.0,0.0,0.0,0.0,0.0,0.0,0.0,0.0,0.0,0.0,0.0,0.0,0.0,0.0,0.0,0.0,0.0,0.0,0.0,0.0,0.0,0.0,0.0,0.0,0.0,0.0,0.0,0.0,0.0,0.0,0.0,0.0,0.0,0.0,0.0,0.0,0.0,0.0,0.0,0.0,0.0,0.0,0.0,0.0,0.0,-0.4292,-0.4281,-0.4233,-0.4281,-0.4281,-0.4225,-0.4253,-0.4253,-0.4218,-0.4197,-0.4197,-0.4222,-0.4197,-0.4215,-0.4267,-0.424,-0.4211,-0.4191,-0.4184,-0.417,-0.4159,-0.4197,-0.5797,-0.7666,-0.5076,-0.6172,-0.9125,0.0,0.0,0.0,0.0,0.0,0.0,0.0,0.0,0.0,0.0,0.0,0.0,0.0,0.0,0.0,0.0,0.0,0.0,0.0,0.0,0.0,0.0,0.0,0.0,0.0,0.0,0.0,0.0,0.0,0.0,0.0,-0.3116,-0.4174,0.0,0.0,0.0,0.0,0.0,0.0,0.0,0.0,0.0,0.0,0.0,0.0,0.0,0.0,0.0,0.0,0.0,0.0,0.0,0.0,0.0,0.0,0.0,0.0,0.0,0.0,0.0,0.0,0.0,0.0,0.0,0.0,0.0,0.0,0.0,0.0,0.0,0.0,0.0,0.0,0.0,0.0,0.0,0.0,0.0,0.0,0.0,0.0,0.0,0.0,0.0,0.0,0.0,0.0,0.0,-0.4264,-0.4278,-0.4264,-0.4218,-0.4242,-0.4236,-0.4193,-0.4222,-0.4222,-0.4193,-0.4162,-0.4166,-0.4191,-0.4162,-0.4184,-0.4236,-0.4208,-0.4193,-0.4197,-0.4162,-0.4162,-0.418,-0.4173,-0.4986,-0.6091,-0.4762,-0.7182,-1.1266,0.0,0.0,0.0,0.0,0.0,0.0,0.0,0.0,0.0,0.0,0.0,0.0,0.0,0.0,0.0,0.0,0.0,0.0,0.0,0.0,0.0,0.0,0.0,0.0,0.0,0.0,0.0,0.0,0.0,0.0,-0.311,-0.3148,-0.3217,0.0,-0.3232,0.0,0.0,0.0,0.0,0.0,0.0,0.0,0.0,0.0,0.0,0.0,0.0,0.0,0.0,0.0,0.0,0.0,0.0,0.0,0.0,0.0,0.0,0.0,0.0,0.0,0.0,0.0,0.0,0.0,0.0,0.0,0.0,0.0,0.0,0.0,0.0,0.0,0.0,0.0,0.0,0.0,0.0,0.0,0.0,0.0,0.0,0.0,0.0,0.0,0.0,0.0,0.0,0.0,-0.4264,-0.4264,-0.4247,-0.4208,-0.4215,-0.4202,-0.4162,-0.4184,-0.4184,-0.4162,-0.4142,-0.4142,-0.4162,-0.4142,-0.4155,-0.4193,-0.4173,-0.4177,-0.4193,-0.4148,-0.4155,-0.4193,-0.4944,-0.5759,-0.6362,-0.6321,-0.9538,-1.3934,0.0,0.0,0.0,0.0,0.0,0.0,0.0,0.0,0.0,0.0,0.0,0.0,0.0,0.0,0.0,0.0,0.0,0.0,0.0,0.0,0.0,0.0,0.0,0.0,0.0,0.0,0.0,0.0,0.0,0.0,-0.3142,-0.32,-0.329,-0.34,-0.3281,-0.3261,-0.3309,0.0,0.0,0.0,0.0,0.0,0.0,0.0,0.0,0.0,0.0,0.0,0.0,0.0,0.0,0.0,0.0,0.0,0.0,0.0,0.0,0.0,0.0,0.0,0.0,0.0,0.0,0.0,0.0,0.0,0.0,0.0,0.0,0.0,0.0,0.0,0.0,0.0,0.0,0.0,0.0,0.0,0.0,0.0,0.0,0.0,0.0,0.0,0.0,0.0,0.0,0.0,-0.4264,-0.4264,-0.4236,-0.4177,-0.4204,-0.4191,-0.4135,-0.4135,-0.4135,-0.4135,-0.4131,-0.4131,-0.4135,-0.4131,-0.4131,-0.4135,-0.4135,-0.4135,-0.4135,-0.4131,-0.4135,-0.44,-0.7064,-0.9989,-1.2367,-1.2531,-1.4463,-1.6875,0.0,0.0,0.0,0.0,0.0,0.0,0.0,0.0,0.0,0.0,0.0,0.0,0.0,0.0,0.0,0.0,0.0,0.0,0.0,0.0,0.0,0.0,0.0,0.0,0.0,0.0,0.0,0.0,0.0,-0.3054,-0.3115,-0.3194,-0.3284,-0.338,-0.3317,-0.3311,-0.3341,-0.3202,0.0,0.0,0.0,0.0,0.0,0.0,0.0,0.0,0.0,0.0,0.0,0.0,0.0,0.0,0.0,0.0,0.0,0.0,0.0,0.0,0.0,0.0,0.0,0.0,0.0,0.0,0.0,0.0,0.0,0.0,0.0,0.0,0.0,0.0,0.0,0.0,0.0,0.0,0.0,0.0,0.0,0.0,0.0,0.0,0.0,0.0,0.0,0.0,0.0,0.0,-0.4208,-0.4225,-0.4208,-0.4148,-0.4155,-0.4152,-0.4131,-0.4131,-0.4131,-0.4131,-0.4131,-0.4131,-0.4131,-0.4131,-0.4131,-0.4131,-0.4131,-0.4131,-0.4131,-0.4131,-0.4131,-0.4135,-0.5192,-0.6252,-0.759,-0.9507,-1.1946,-1.465,0.0,0.0,0.0,0.0,0.0,0.0,0.0,0.0,0.0,0.0,0.0,0.0,0.0,0.0,0.0,0.0,0.0,0.0,0.0,0.0,0.0,0.0,0.0,0.0,0.0,0.0,0.0,0.0,0.0,0.0,0.0,0.0,-0.3254,-0.3351,-0.333,0.0,0.0,0.0,0.0,-0.3212,0.0,0.0,-0.3157,0.0,0.0,0.0,0.0,0.0,0.0,0.0,0.0,0.0,0.0,0.0,0.0,0.0,0.0,0.0,0.0,0.0,0.0,0.0,0.0,0.0,0.0,0.0,0.0,0.0,0.0,0.0,0.0,0.0,0.0,0.0,0.0,0.0,0.0,0.0,0.0,0.0,0.0,0.0,0.0,0.0,0.0,0.0,0.0,0.0,-0.4177,-0.4211,-0.4208,-0.4148,-0.4135,-0.4131,-0.4131,-0.4131,-0.4131,-0.4131,-0.4131,-0.4131,-0.4131,-0.4131,-0.4131,-0.4131,-0.4131,-0.4131,-0.4131,-0.4131,-0.4131,-0.4131,-0.5175,-0.6225,-0.7297,-1.0251,-1.3217,-1.5928,0.0,0.0,0.0,0.0,0.0,0.0,0.0,0.0,0.0,0.0,0.0,0.0,0.0,0.0,0.0,0.0,0.0,0.0,0.0,0.0,0.0,0.0,0.0,0.0,0.0,0.0,0.0,0.0,0.0,0.0,0.0,0.0,-0.3204,0.0,-0.3318,-0.3385,-0.349,0.0,0.0,-0.3356,0.0,-0.3247,-0.3275,0.0,0.0,0.0,-0.324,-0.323,0.0,0.0,0.0,0.0,0.0,0.0,0.0,0.0,0.0,0.0,0.0,0.0,0.0,0.0,0.0,0.0,0.0,0.0,0.0,0.0,0.0,0.0,0.0,0.0,0.0,0.0,0.0,0.0,0.0,0.0,0.0,0.0,0.0,0.0,0.0,0.0,0.0,0.0,0.0,-0.4236,-0.4177,-0.4229,-0.4233,-0.4177,-0.4146,-0.4131,-0.4131,-0.4131,-0.4131,-0.4131,-0.4131,-0.4131,-0.4131,-0.4131,-0.4131,-0.4131,-0.4131,-0.4131,-0.4131,-0.4131,-0.4131,-0.439,-0.7273,-1.0141,-1.3021,-1.5836,-1.8827,-2.1224,0.0,0.0,0.0,0.0,0.0,0.0,0.0,0.0,0.0,0.0,0.0,0.0,0.0,0.0,0.0,0.0,0.0,0.0,0.0,0.0,0.0,0.0,0.0,0.0,0.0,0.0,0.0,0.0,0.0,0.0,0.0,0.0,0.0,0.0,-0.326,-0.3307,-0.3336,-0.3288,0.0,0.0,0.0,-0.3217,0.0,0.0,0.0,0.0,0.0,-0.323,0.0,0.0,-0.3205,-0.3189,0.0,0.0,0.0,0.0,0.0,0.0,-0.324,0.0,0.0,0.0,0.0,0.0,0.0,0.0,0.0,0.0,0.0,0.0,0.0,0.0,0.0,0.0,0.0,0.0,0.0,0.0,0.0,0.0,0.0,0.0,0.0,0.0,0.0,0.0,-0.4218,-0.4236,-0.4177,-0.4191,-0.4191,-0.4173,-0.4146,-0.4131,-0.4131,-0.4131,-0.4131,-0.4131,-0.4131,-0.4131,-0.4131,-0.4131,-0.4131,-0.4131,-0.4131,-0.4131,-0.4131,-0.4131,-0.5161,-0.6959,-0.5688,-0.8294,-1.275,-1.3651,-1.5852,-1.8576,0.0,0.0,0.0,0.0,0.0,0.0,0.0,0.0,0.0,0.0,0.0,0.0,0.0,0.0,0.0,0.0,0.0,0.0,0.0,0.0,0.0,0.0,0.0,0.0,0.0,0.0,0.0,0.0,0.0,0.0,0.0,0.0,0.0,0.0,0.0,0.0,0.0,0.0,0.0,0.0,-0.326,0.0,0.0,-0.3287,-0.3287,0.0,0.0,0.0,-0.3303,-0.3291,-0.3276,0.0,0.0,0.0,0.0,0.0,0.0,0.0,0.0,0.0,0.0,0.0,0.0,0.0,0.0,-0.3583,0.0,0.0,0.0,0.0,0.0,0.0,0.0,0.0,0.0,0.0,0.0,0.0,0.0,0.0,0.0,0.0,0.0,0.0,0.0,0.0,-0.4215,-0.4249,-0.4211,-0.4187,-0.4173,-0.4173,-0.4146,-0.4131,-0.4131,-0.4131,-0.4131,-0.4131,-0.4131,-0.4131,-0.4131,-0.4131,-0.4131,-0.4131,-0.4131,-0.4131,-0.4131,-0.5414,-0.6188,-0.6442,-0.4644,-0.7488,-1.2433,-1.2779,-1.5203,-1.8943,0.0,0.0,0.0,0.0,0.0,0.0,0.0,0.0,0.0,0.0,0.0,0.0,0.0,0.0,0.0,0.0,0.0,0.0,0.0,0.0,0.0,0.0,0.0,0.0,0.0,0.0,0.0,0.0,0.0,0.0,0.0,0.0,0.0,0.0,0.0,0.0,0.0,0.0,0.0,-0.3269,-0.331,-0.3345,0.0,0.0,-0.3381,0.0,-0.3381,-0.3399,-0.3416,-0.3382,0.0,0.0,0.0,0.0,0.0,0.0,-0.3251,0.0,0.0,0.0,0.0,0.0,0.0,0.0,-0.3517,-0.3544,-0.3572,0.0,0.0,0.0,0.0,0.0,0.0,0.0,0.0,0.0,0.0,0.0,0.0,0.0,0.0,0.0,0.0,0.0,-0.4173,-0.4142,-0.4215,-0.426,-0.426,-0.4204,-0.4173,-0.4173,-0.4146,-0.4131,-0.4131,-0.4131,-0.4131,-0.4131,-0.4131,-0.4131,-0.4131,-0.4131,-0.4131,-0.4131,-0.4131,-0.4389,-0.4644,-0.6959,-0.6442,-0.4644,-0.4644,-0.7986,-1.2877,-1.2704,-1.6114,-2.0845,0.0,0.0,0.0,0.0,0.0,0.0,0.0,0.0,0.0,0.0,0.0,0.0,0.0,0.0,0.0,0.0,0.0,0.0,0.0,0.0,0.0,0.0,0.0,0.0,0.0,0.0,0.0,0.0,0.0,0.0,0.0,0.0,0.0,0.0,0.0,0.0,0.0,0.0,0.0,-0.3215,-0.3317,0.0,0.0,-0.3467,-0.3476,-0.3476,-0.3476,-0.348,-0.3476,0.0,-0.3386,-0.3355,0.0,0.0,0.0,0.0,0.0,0.0,0.0,0.0,0.0,0.0,0.0,0.0,-0.337,-0.3407,-0.3467,0.0,0.0,0.0,0.0,0.0,0.0,0.0,0.0,0.0,0.0,0.0,0.0,0.0,0.0,0.0,0.0,0.0,-0.4233,-0.4204,-0.4218,-0.4229,-0.4229,-0.4193,-0.4173,-0.4173,-0.4146,-0.4131,-0.4131,-0.4131,-0.4131,-0.4131,-0.4131,-0.4131,-0.4131,-0.4131,-0.4131,-0.4131,-0.4131,-0.5414,-0.7211,-0.5673,-0.5931,-0.7469,-0.7469,-1.0844,-1.5551,-1.35,-1.6224,-2.1109,0.0,0.0,0.0,0.0,0.0,0.0,0.0,0.0,0.0,0.0,0.0,0.0,0.0,0.0,0.0,0.0,0.0,0.0,0.0,0.0,0.0,0.0,0.0,0.0,0.0,0.0,0.0,0.0,0.0,0.0,0.0,0.0,0.0,0.0,0.0,0.0,0.0,0.0,-0.3168,-0.3219,-0.3324,0.0,-0.344,-0.3484,-0.3502,-0.3502,-0.3502,-0.3502,-0.3499,-0.3483,-0.3449,0.0,0.0,-0.3333,-0.3321,0.0,-0.331,-0.3302,0.0,0.0,0.0,-0.3336,0.0,0.0,0.0,-0.3378,-0.3415,0.0,0.0,0.0,0.0,0.0,0.0,0.0,0.0,0.0,0.0,0.0,0.0,0.0,0.0,0.0,0.0,0.0,-0.4218,-0.4218,-0.4218,-0.4211,-0.4197,-0.418,-0.4166,-0.4152,-0.4137,-0.4131,-0.4131,-0.4131,-0.4131,-0.4131,-0.4131,-0.4131,-0.4131,-0.4131,-0.4131,-0.4131,-0.4114,-0.5654,-0.8237,-0.821,-0.8981,-1.0029,-0.7187,-1.0538,-1.6265,-1.339,-1.6071,-2.098,0.0,0.0,0.0,0.0,0.0,0.0,0.0,0.0,0.0,0.0,0.0,0.0,0.0,0.0,0.0,0.0,0.0,0.0,0.0,0.0,0.0,0.0,0.0,-0.2916,0.0,0.0,0.0,0.0,0.0,0.0,0.0,0.0,0.0,0.0,0.0,0.0,0.0,0.0,0.0,-0.3247,0.0,-0.3386,-0.3411,-0.3478,-0.3502,-0.3502,-0.3516,-0.352,-0.352,-0.3534,0.0,-0.3459,-0.3416,-0.3407,0.0,0.0,0.0,0.0,0.0,0.0,0.0,0.0,0.0,-0.3371,0.0,0.0,0.0,-0.3464,0.0,0.0,0.0,0.0,0.0,0.0,0.0,0.0,0.0,0.0,0.0,0.0,0.0,0.0,0.0,0.0,-0.417,-0.4208,-0.4202,-0.4184,-0.4166,-0.4166,-0.4155,-0.4131,-0.4131,-0.4131,-0.4131,-0.4131,-0.4131,-0.4131,-0.4131,-0.4131,-0.4131,-0.4124,-0.4124,-0.4128,-0.4093,-0.5882,-0.8999,-1.0716,-1.2253,-1.2587,-0.8175,-1.0486,-1.6211,-1.4046,-1.6456,-2.0858,0.0,0.0,0.0,0.0,0.0,0.0,0.0,0.0,0.0,0.0,0.0,0.0,0.0,0.0,0.0,0.0,0.0,0.0,-0.2953,0.0,0.0,0.0,0.0,0.0,-0.2916,0.0,0.0,0.0,0.0,0.0,0.0,0.0,0.0,0.0,-0.3084,0.0,0.0,0.0,-0.3217,0.0,-0.337,-0.3393,0.0,-0.3469,-0.3502,-0.3509,-0.3562,-0.358,-0.3572,0.0,-0.3502,-0.3483,0.0,-0.339,0.0,0.0,0.0,0.0,0.0,0.0,0.0,0.0,-0.3483,0.0,0.0,0.0,-0.3434,-0.339,0.0,0.0,0.0,0.0,0.0,0.0,0.0,0.0,0.0,0.0,0.0,0.0,0.0,0.0,0.0,0.0,-0.4117,-0.4173,-0.4131,-0.411,-0.4135,-0.4135,-0.4135,-0.4131,-0.4131,-0.4131,-0.4131,-0.4131,-0.4131,-0.4131,-0.4131,-0.4131,-0.4131,-0.4103,-0.4106,-0.4128,-0.4072,-0.6871,-1.1563,-0.944,-1.1494,-1.5924,-1.5042,-1.5638,-1.6587,-1.6211,-1.8189,-2.1157,0.0,0.0,0.0,0.0,0.0,0.0,0.0,0.0,0.0,0.0,0.0,0.0,0.0,0.0,0.0,0.0,0.0,0.0,0.0,0.0,0.0,0.0,0.0,0.0,0.0,0.0,0.0,0.0,-0.2979,0.0,0.0,0.0,0.0,0.0,-0.3092,0.0,-0.3176,0.0,0.0,0.0,0.0,0.0,0.0,-0.3499,-0.3555,-0.3555,-0.358,-0.3589,-0.3583,0.0,-0.3527,0.0,0.0,0.0,0.0,0.0,0.0,0.0,0.0,0.0,0.0,0.0,0.0,0.0,0.0,0.0,-0.3429,0.0,0.0,0.0,0.0,0.0,0.0,0.0,0.0,0.0,0.0,0.0,0.0,0.0,0.0,0.0,0.0,0.0,0.0,0.0,0.0,-0.4072,-0.4103,-0.4121,-0.4131,-0.4131,-0.4131,-0.4131,-0.4131,-0.4131,-0.4131,-0.4131,-0.4131,-0.4131,-0.4131,-0.4117,-0.411,-0.4103,-0.4058,-0.7102,-1.2253,-1.0897,-1.3728,-1.8727,-1.8603,-1.7691,-1.6597,-1.6489,-1.8441,-2.1089,0.0,0.0,0.0,0.0,0.0,0.0,0.0,0.0,0.0,0.0,0.0,0.0,-0.3183,-0.3161,0.0,0.0,0.0,-0.3288,0.0,0.0,0.0,0.0,0.0,0.0,0.0,0.0,0.0,0.0,0.0,0.0,0.0,0.0,0.0,0.0,0.0,-0.3174,-0.3245,0.0,0.0,-0.333,-0.3382,-0.3405,-0.3419,-0.3534,-0.3587,-0.3604,-0.3611,-0.3611,-0.36,-0.3576,-0.3576,0.0,-0.3562,0.0,0.0,0.0,0.0,0.0,-0.352,0.0,0.0,0.0,0.0,0.0,0.0,0.0,0.0,0.0,0.0,0.0,0.0,0.0,0.0,0.0,0.0,0.0,0.0,0.0,0.0,0.0,0.0,0.0,0.0,0.0,0.0,0.0,-0.3988,-0.4005,-0.4068,-0.4093,-0.4113,-0.4131,-0.4131,-0.4131,-0.4131,-0.4131,-0.4131,-0.4131,-0.4131,-0.4128,-0.4117,-0.4117,-0.4103,-0.4072,-0.4808,-0.7843,-1.2445,-1.3138,-1.5745,-1.9509,-2.0171,-1.8746,-1.6861,-1.75,-1.9201,-2.1055,0.0,-0.2874,0.0,0.0,0.0,0.0,0.0,0.0,0.0,0.0,0.0,0.0,0.0,0.0,0.0,0.0,0.0,-0.3185,-0.3182,0.0,-0.3022,0.0,0.0,0.0,0.0,0.0,0.0,0.0,0.0,0.0,0.0,0.0,0.0,0.0,0.0,-0.3243,-0.328,-0.3369,-0.3423,-0.3454,-0.3486,-0.3549,-0.3618,0.0,-0.3583,-0.3639,-0.3667,0.0,0.0,-0.3632,-0.3652,0.0,0.0,0.0,0.0,0.0,0.0,0.0,0.0,0.0,0.0,0.0,0.0,0.0,0.0,0.0,-0.3516,0.0,0.0,0.0,0.0,0.0,0.0,0.0,0.0,0.0,0.0,0.0,0.0,0.0,0.0,0.0,0.0,0.0,0.0,-0.39,-0.3855,-0.3887,-0.4034,-0.4043,-0.4072,-0.4128,-0.4131,-0.4131,-0.4131,-0.4131,-0.4131,-0.4131,-0.4131,-0.4117,-0.4086,-0.4086,-0.4072,-0.4041,-0.6805,-0.9607,-1.2458,-1.5245,-1.6331,-1.6689,-1.9509,-1.8826,-1.7124,-1.9561,-2.0824,-2.1197,0.0,0.0,0.0,0.0,0.0,0.0,0.0,-0.2991,0.0,0.0,0.0,0.0,0.0,0.0,-0.4227,0.0,0.0,-0.4592,-0.4509,-0.4011,0.0,0.0,0.0,-0.304,0.0,0.0,0.0,0.0,0.0,0.0,0.0,0.0,0.0,0.0,0.0,-0.324,0.0,0.0,0.0,0.0,0.0,-0.3628,-0.3716,0.0,0.0,-0.3667,-0.3677,-0.3674,0.0,-0.3667,-0.3674,-0.3677,-0.3656,-0.3656,-0.366,-0.3643,-0.3663,0.0,0.0,0.0,-0.3772,-0.3649,0.0,0.0,0.0,0.0,0.0,0.0,0.0,0.0,0.0,0.0,0.0,0.0,0.0,0.0,0.0,0.0,0.0,0.0,0.0,0.0,0.0,0.0,0.0,-0.3838,-0.3793,-0.3813,0.0,-0.397,-0.4009,-0.4068,-0.409,-0.411,-0.4131,-0.4131,-0.4131,-0.4131,-0.4131,-0.4124,-0.4114,-0.4097,-0.4068,-0.4041,-0.68,-0.9571,-1.2374,-1.522,-1.7356,-1.9267,-2.0024,-2.0117,-1.9465,-2.0453,-2.079,-2.0892,-0.2915,0.0,0.0,0.0,0.0,0.0,0.0,0.0,0.0,0.0,-0.3895,0.0,0.0,0.0,-0.5063,0.0,-0.5313,-0.499,-0.4828,-0.4157,0.0,0.0,-0.3157,0.0,0.0,0.0,0.0,0.0,0.0,-0.308,0.0,0.0,0.0,0.0,0.0,0.0,0.0,0.0,-0.3495,0.0,0.0,-0.3677,0.0,0.0,-0.3688,0.0,0.0,-0.3705,-0.3699,-0.3708,-0.3712,-0.3712,-0.3712,-0.3712,-0.3712,-0.3701,-0.3726,-0.3754,-0.3733,-0.3793,0.0,0.0,-0.3723,0.0,0.0,0.0,0.0,0.0,0.0,0.0,0.0,0.0,0.0,0.0,0.0,0.0,0.0,0.0,0.0,0.0,0.0,0.0,0.0,0.0,-0.3677,-0.3748,-0.3715,-0.3748,0.0,0.0,-0.3956,-0.4037,-0.4068,-0.4099,-0.4131,-0.4131,-0.4131,-0.4131,-0.4121,-0.411,-0.4099,-0.5108,-0.5072,-0.4279,-0.9106,-1.1368,-1.2571,-1.6206,-1.8856,-2.0471,-2.0471,-2.0051,-1.9401,-2.0432,-2.0682,-2.0682,0.0,0.0,0.0,0.0,-0.2916,0.0,0.0,0.0,-0.397,0.0,-0.4832,-0.5162,-0.5256,-0.534,-0.5409,-0.5456,0.0,0.0,-0.4505,-0.3881,0.0,0.0,-0.327,-0.3284,0.0,0.0,0.0,0.0,0.0,0.0,0.0,0.0,0.0,0.0,-0.3235,0.0,-0.3371,-0.3491,-0.358,-0.3639,-0.3674,-0.3705,-0.373,-0.373,0.0,-0.3775,-0.3772,-0.3754,-0.3737,-0.3764,-0.3775,-0.3775,-0.3775,-0.3775,-0.3772,-0.3739,-0.3775,-0.381,-0.3754,-0.3803,-0.3855,-0.3795,0.0,0.0,0.0,0.0,-0.3748,0.0,0.0,0.0,0.0,0.0,0.0,0.0,0.0,0.0,0.0,0.0,0.0,0.0,0.0,0.0,0.0,-0.3589,-0.3604,-0.3632,-0.3636,-0.3684,0.0,0.0,-0.3911,-0.403,-0.4065,-0.4099,-0.4131,-0.4131,-0.4131,-0.4131,-0.4103,-0.4072,-0.4297,-0.686,-0.6828,-0.4753,-1.2728,-1.4769,-1.2571,-1.7989,-2.0329,-2.0329,-2.0071,-1.8375,-1.6445,-1.9007,-2.0278,-2.0298,-0.2921,0.0,0.0,0.0,0.0,-0.2945,0.0,0.0,0.0,0.0,-0.4963,-0.5547,-0.6168,-0.575,-0.5782,-0.6299,-0.5837,0.0,0.0,0.0,0.0,-0.3468,-0.343,-0.34,-0.3377,-0.3303,0.0,-0.3242,0.0,0.0,-0.3164,0.0,0.0,0.0,0.0,0.0,-0.334,-0.3463,-0.3572,-0.3674,-0.3726,-0.3768,0.0,0.0,-0.3779,-0.3803,-0.3779,-0.3782,-0.3795,-0.3803,-0.382,-0.3838,-0.3838,-0.3838,-0.3835,-0.3827,-0.3869,-0.3911,-0.3898,-0.396,-0.4012,-0.3953,-0.3925,-0.3898,0.0,0.0,0.0,0.0,0.0,0.0,0.0,0.0,0.0,0.0,0.0,0.0,0.0,0.0,0.0,0.0,0.0,0.0,-0.3589,-0.3589,-0.3604,-0.3632,-0.3614,-0.3636,0.0,0.0,0.0,-0.3936,-0.4012,-0.4079,-0.4131,-0.4131,-0.4131,-0.4131,-0.4124,-0.5139,-0.7168,-0.7904,-0.7877,-0.735,-1.3728,-1.4705,-1.2571,-1.7989,-2.0329,-2.0071,-1.8037,-1.557,-1.3368,-1.4131,-1.5663,-1.7471,0.0,0.0,0.0,0.0,0.0,0.0,-0.3515,0.0,0.0,-0.4691,0.0,0.0,-0.6441,-0.657,-0.6649,-0.7105,-0.6393,0.0,0.0,0.0,0.0,-0.3569,-0.3544,-0.352,-0.349,-0.3414,0.0,-0.3315,0.0,0.0,-0.3206,0.0,0.0,0.0,0.0,-0.3285,0.0,-0.3472,-0.3604,-0.3705,-0.3737,0.0,0.0,-0.3793,-0.3803,-0.3817,-0.381,-0.382,-0.3835,-0.3835,-0.3855,-0.388,-0.388,-0.3887,-0.39,-0.3915,-0.3953,-0.3988,-0.3988,-0.4037,-0.4075,-0.4026,-0.4012,-0.3988,-0.3915,-0.3925,-0.3925,0.0,0.0,0.0,0.0,0.0,0.0,0.0,0.0,0.0,0.0,0.0,0.0,0.0,0.0,0.0,-0.3611,-0.3596,-0.3596,-0.3614,-0.36,-0.3611,0.0,0.0,0.0,-0.39,-0.4019,-0.4097,-0.4131,-0.4155,-0.4155,-0.4131,-0.4117,-0.5649,-0.8196,-0.9434,-0.9919,-1.0176,-1.5803,-1.5987,-1.232,-1.672,-1.775,-1.6447,-1.3751,-1.2524,-1.2027,-0.9515,-1.1314,-1.4912,0.0,0.0,0.0,0.0,0.0,0.0,0.0,-0.4543,0.0,-0.543,0.0,-0.676,0.0,-0.7389,-0.7531,0.0,0.0,-0.6143,0.0,-0.4873,0.0,-0.3611,-0.3636,-0.3636,-0.3604,-0.3538,0.0,0.0,0.0,0.0,0.0,0.0,0.0,0.0,0.0,0.0,0.0,-0.3509,-0.3643,0.0,-0.3726,-0.375,-0.3782,-0.3806,-0.382,-0.3827,-0.3859,-0.3869,-0.3866,-0.3866,-0.3883,-0.3911,-0.3915,-0.3936,-0.396,-0.3992,-0.4023,-0.4048,-0.4048,-0.4068,-0.4086,-0.4058,-0.4072,-0.4072,-0.3992,-0.3974,-0.3963,-0.3936,-0.3887,0.0,0.0,0.0,0.0,0.0,0.0,0.0,0.0,0.0,0.0,0.0,0.0,0.0,0.0,0.0,0.0,0.0,0.0,0.0,0.0,0.0,0.0,-0.3891,-0.4037,0.0,-0.4137,0.0,-0.4191,-0.4142,-0.411,-0.5624,-0.8416,-1.0952,-1.2225,-1.2483,-1.7674,-1.7074,-1.2341,-1.4695,-1.393,-1.1345,-0.9207,-0.9471,-1.0694,-0.6164,-0.7713,-1.2574,0.0,0.0,0.0,0.0,0.0,0.0,0.0,-0.5997,-0.6069,-0.6415,-0.7105,0.0,-0.7539,-0.7353,-0.6887,-0.6376,-0.5645,0.0,0.0,0.0,0.0,-0.3708,-0.3733,-0.3723,-0.3667,-0.3558,-0.3495,0.0,0.0,0.0,0.0,0.0,0.0,0.0,0.0,0.0,-0.3399,-0.3558,0.0,-0.3656,-0.3733,-0.3782,-0.381,-0.3813,-0.3831,-0.3859,-0.3914,-0.3918,-0.3898,-0.3898,-0.3918,-0.3947,-0.397,-0.3981,-0.3992,-0.4023,-0.4054,-0.4079,-0.4079,-0.4099,-0.4121,-0.4117,-0.4121,-0.4121,-0.4103,-0.4099,-0.409,-0.4061,-0.4048,-0.4009,-0.3915,0.0,0.0,0.0,0.0,0.0,0.0,0.0,0.0,0.0,0.0,0.0,0.0,0.0,0.0,0.0,0.0,0.0,0.0,0.0,0.0,0.0,-0.3953,0.0,0.0,0.0,-0.4187,-0.4204,-0.4173,-0.5692,-0.8224,-1.1036,-1.2319,-1.2574,-1.5663,-1.5337,-1.218,-1.2703,-1.1179,-0.8644,-0.841,-0.7145,-0.5611,-0.6887,-0.8131,-0.9115,0.0,0.0,0.0,0.0,0.0,0.0,0.0,-0.7026,0.0,-0.6836,-0.6994,-0.7348,-0.7322,-0.7445,-0.7511,-0.6954,-0.6706,-0.6169,0.0,-0.5117,-0.4846,-0.4299,-0.4041,0.0,-0.373,0.0,-0.3555,0.0,0.0,0.0,0.0,0.0,0.0,0.0,0.0,-0.3265,0.0,0.0,0.0,-0.3667,-0.3739,-0.3806,-0.3862,-0.3862,-0.3891,-0.3932,-0.3963,-0.3974,-0.3974,-0.3974,-0.3994,-0.4023,-0.4037,-0.4041,-0.4048,-0.4079,-0.4097,-0.411,-0.411,-0.4121,-0.4128,-0.411,-0.4106,-0.4106,-0.4106,-0.4106,-0.4103,-0.409,-0.4086,-0.4048,-0.3925,-0.3806,0.0,0.0,0.0,0.0,0.0,0.0,0.0,0.0,0.0,0.0,0.0,0.0,0.0,0.0,0.0,0.0,0.0,0.0,0.0,0.0,0.0,0.0,0.0,0.0,0.0,-0.4173,-0.4173,-0.6227,-1.0288,-1.1574,-1.3103,-1.4391,-1.5934,-1.407,-0.9919,-0.8656,-0.7149,-0.5895,-0.6127,-0.536,-0.4341,-0.7133,-0.9145,-1.0648,0.0,-0.4301,0.0,0.0,-0.5968,0.0,0.0,-0.7553,-0.7648,-0.7256,-0.712,-0.7172,-0.7091,-0.7777,-0.8126,-0.7782,-0.7764,-0.7478,-0.6669,-0.6141,-0.5381,-0.4625,-0.4096,-0.3817,-0.3782,-0.3699,0.0,0.0,0.0,0.0,0.0,0.0,0.0,0.0,0.0,0.0,0.0,0.0,-0.3565,-0.3694,-0.3764,-0.3835,-0.3904,-0.3911,-0.3947,-0.3994,-0.4003,-0.4023,-0.405,-0.4058,-0.4068,-0.4079,-0.4082,-0.4086,-0.4093,-0.4128,-0.4142,-0.4142,-0.4148,-0.4148,-0.4142,-0.411,-0.4103,-0.4103,-0.4097,-0.4097,-0.4097,-0.4097,-0.409,-0.405,-0.3936,-0.3838,0.0,0.0,0.0,0.0,0.0,0.0,0.0,0.0,0.0,0.0,0.0,0.0,0.0,0.0,0.0,-0.3589,-0.3589,-0.367,0.0,0.0,0.0,-0.4068,-0.4097,0.0,-0.4211,0.0,-0.4166,-0.6746,-1.1314,-1.1314,-1.2847,-1.5418,-1.4897,-1.1792,-0.7149,-0.5117,-0.411,-0.4128,-0.4097,-0.4086,-0.4341,-0.7133,-0.9912,-1.2694,0.0,0.0,0.0,0.0,0.0,0.0,0.0,-0.7987,-0.8117,-0.8041,-0.8098,-0.8139,-0.8126,-0.8153,-0.7904,-0.7387,-0.7335,-0.6513,-0.519,-0.5213,-0.4686,-0.4108,-0.3883,-0.3869,-0.3813,-0.375,-0.3659,0.0,0.0,0.0,0.0,0.0,0.0,0.0,0.0,0.0,0.0,-0.3531,-0.3632,-0.373,-0.3817,-0.3873,-0.3907,-0.3936,-0.3967,-0.3998,-0.4026,-0.4054,-0.4086,-0.4113,-0.409,-0.405,-0.4079,-0.4086,-0.4097,-0.4152,-0.417,-0.4177,-0.4204,-0.4211,-0.4204,-0.4173,-0.4166,-0.4159,-0.4131,-0.4128,-0.4128,-0.4128,-0.4103,-0.4058,-0.3963,-0.3936,-0.3893,0.0,0.0,0.0,0.0,0.0,0.0,0.0,0.0,0.0,0.0,0.0,0.0,0.0,0.0,-0.3589,-0.3589,-0.3649,-0.3712,-0.3775,0.0,-0.4016,-0.4124,-0.4162,0.0,-0.4211,-0.4184,-0.5711,-0.8497,-0.8497,-1.0032,-1.2599,-1.0032,-0.7211,-0.4383,-0.4128,-0.4128,-0.4128,-0.4097,-0.4086,-0.4341,-0.7133,-0.9876,-1.2605,0.0,0.0,0.0,0.0,0.0,0.0,0.0,-0.8049,-0.8134,-0.8175,-0.8202,-0.8215,-0.8215,-0.8215,-0.7959,-0.7192,-0.7145,-0.6853,-0.5831,-0.5272,-0.4982,-0.4712,-0.417,-0.3883,-0.3842,-0.3786,-0.3701,0.0,0.0,0.0,0.0,0.0,0.0,0.0,0.0,-0.3395,-0.3524,-0.3589,-0.3681,-0.3788,-0.3876,-0.3943,-0.3988,-0.3998,-0.4043,-0.4099,-0.4097,-0.4124,-0.4166,-0.418,-0.4146,-0.4097,-0.411,-0.4114,-0.4117,-0.4142,-0.4159,-0.4173,-0.4166,-0.418,-0.4184,-0.4155,-0.4148,-0.4146,-0.4135,-0.4131,-0.4131,-0.4131,-0.4106,-0.4075,-0.4037,-0.3988,-0.3938,0.0,0.0,0.0,0.0,0.0,0.0,0.0,0.0,0.0,0.0,0.0,0.0,0.0,0.0,0.0,-0.3589,-0.3649,-0.3708,-0.3768,0.0,-0.3992,-0.4075,-0.4142,-0.417,-0.4166,-0.417,-0.5711,-0.8237,-0.8237,-0.8748,-0.9778,-0.6959,-0.5161,-0.4131,-0.411,-0.4114,-0.4128,-0.4079,-0.5095,-0.6924,-0.9688,-1.247,-1.5042,-0.6557,0.0,-0.6837,0.0,-0.7657,-0.7769,-0.8055,-0.8117,-0.8161,-0.8237,-0.8251,-0.8251,-0.8251,-0.8251,-0.7993,-0.7483,-0.7444,-0.7173,-0.6168,-0.5562,-0.5267,-0.4779,-0.4203,0.0,-0.3873,-0.3831,-0.3761,-0.3663,-0.3589,0.0,0.0,0.0,0.0,0.0,-0.3388,-0.348,-0.3618,-0.366,-0.3744,-0.3862,-0.3936,-0.3994,-0.4041,-0.405,-0.4093,-0.4146,-0.4124,-0.4148,-0.4193,-0.4193,-0.4166,-0.4131,-0.4142,-0.4146,-0.4146,-0.4146,-0.4159,-0.417,-0.4159,-0.4169,-0.418,-0.4152,-0.4146,-0.4142,-0.4135,-0.4131,-0.4131,-0.4131,-0.4114,-0.4097,-0.4086,-0.4034,-0.3988,0.0,0.0,0.0,0.0,0.0,0.0,0.0,0.0,-0.3674,-0.3628,0.0,0.0,0.0,0.0,0.0,0.0,-0.3649,0.0,0.0,0.0,0.0,0.0,-0.4121,-0.4152,-0.4131,-0.4152,-0.5701,-0.8237,-0.8237,-0.7728,-0.6959,-0.4903,-0.4131,-0.4131,-0.4106,-0.411,-0.4128,-0.4845,-0.6382,-0.8745,-1.2266,-1.4833,-1.6706,-0.7398,-0.7439,-0.7537,-0.7839,-0.7943,-0.8022,-0.8147,-0.8215,-0.8251,-0.8251,-0.8251,-0.8251,-0.8251,-0.8251,-0.8251,-0.8251,-0.8251,-0.7716,-0.6131,-0.6084,-0.5532,0.0,0.0,-0.3936,-0.3904,-0.3904,-0.3844,-0.3726,0.0,0.0,-0.341,0.0,-0.3397,-0.346,-0.3549,-0.3621,-0.3684,-0.3744,-0.3838,-0.3949,-0.3981,-0.4012,-0.4043,-0.4075,-0.4086,-0.4086,-0.4086,-0.4106,-0.4131,-0.4131,-0.4131,-0.4135,-0.4162,-0.4173,-0.4173,-0.4173,-0.4173,-0.418,-0.4208,-0.4218,-0.4211,-0.418,-0.4173,-0.4166,-0.4137,-0.4131,-0.4131,-0.4131,-0.4131,-0.4121,-0.4093,-0.4086,-0.4054,-0.3963,0.0,0.0,0.0,0.0,0.0,0.0,-0.3726,-0.3692,-0.36,-0.3589,0.0,0.0,0.0,0.0,0.0,0.0,0.0,-0.3768,-0.3887,0.0,-0.4041,-0.4099,-0.4131,-0.4131,-0.4131,-0.5415,-0.8237,-0.8237,-0.6701,-0.4131,-0.4131,-0.4131,-0.4131,-0.4131,-0.4131,-0.439,-0.7211,-0.8237,-0.8748,-1.4391,-1.644,-1.6706,-0.7002,-0.7026,-0.7064,-0.7192,-0.7722,-0.8014,-0.809,-0.8153,-0.821,-0.8245,-0.8251,-0.8251,-0.8251,-0.8251,-0.798,0.0,-0.7424,-0.6906,0.0,-0.5322,-0.5043,-0.4026,-0.3998,-0.3956,-0.3904,-0.3904,-0.3866,-0.3788,0.0,0.0,0.0,-0.3524,-0.3531,-0.3551,-0.3621,-0.3699,-0.3775,-0.3813,-0.3891,-0.3985,-0.4012,-0.4058,-0.4106,-0.4135,-0.4159,-0.4177,-0.4177,-0.4184,-0.4191,-0.4191,-0.4191,-0.4187,-0.4177,-0.4159,-0.4146,-0.4146,-0.4159,-0.417,-0.4162,-0.4173,-0.418,-0.4152,-0.4146,-0.4142,-0.4135,-0.4131,-0.4131,-0.4131,-0.4131,-0.4128,-0.4117,-0.4117,-0.4093,-0.4023,0.0,0.0,0.0,0.0,0.0,0.0,0.0,-0.3705,0.0,-0.3632,0.0,0.0,0.0,0.0,0.0,0.0,0.0,0.0,-0.3898,0.0,-0.4041,-0.4079,-0.411,-0.4131,-0.411,-0.4624,-0.5415,-0.5415,-0.4903,-0.4131,-0.4131,-0.4131,-0.4131,-0.411,-0.5135,-0.6695,-0.5895,-0.8716,-1.3884,-1.3624,-1.5924,-1.9255,-0.714,-0.7419,-0.7457,-0.7537,-0.7803,-0.8076,-0.8134,-0.8175,-0.821,-0.8245,-0.8251,-0.8251,-0.8251,-0.8251,0.0,-0.7687,-0.7432,0.0,-0.5634,-0.5346,-0.4816,-0.4058,-0.403,-0.3988,-0.3938,0.0,0.0,-0.3848,-0.3795,-0.3733,-0.3656,-0.3645,-0.3652,-0.3677,-0.3726,-0.3786,-0.3851,-0.388,-0.3932,-0.3998,-0.4026,-0.4068,-0.4117,-0.4146,-0.4169,-0.4187,-0.4187,-0.4187,-0.4187,-0.4187,-0.4187,-0.4184,-0.4162,-0.4146,-0.4131,-0.4131,-0.4152,-0.4166,-0.4137,-0.4152,-0.4166,-0.4137,-0.4131,-0.4131,-0.4131,-0.4131,-0.4131,-0.4131,-0.4131,-0.4131,-0.4131,-0.4131,-0.4113,-0.4065,0.0,-0.4012,0.0,0.0,0.0,0.0,0.0,0.0,0.0,-0.3674,0.0,0.0,0.0,0.0,0.0,0.0,0.0,-0.3831,-0.3918,0.0,-0.4041,-0.4082,-0.4106,-0.4114,-0.4106,-0.4114,-0.4131,-0.4131,-0.4131,-0.4131,-0.4131,-0.4124,-0.4114,-0.4106,-0.5639,-0.8202,-0.7424,-1.1018,-1.644,-1.5663,-1.746,-2.0539,-0.7648,-0.7951,0.0,0.0,-0.8166,0.0,-0.8237,-0.8251,-0.8251,-0.8251,-0.8251,-0.8251,-0.8251,-0.8251,-0.8251,-0.8251,0.0,0.0,0.0,-0.5383,-0.4853,-0.4086,-0.4058,-0.403,-0.3994,-0.3994,-0.3967,-0.3907,-0.3827,-0.3786,-0.3779,-0.375,-0.3768,-0.382,-0.3848,-0.3876,-0.3907,-0.3936,-0.3963,-0.3998,-0.4026,-0.4061,-0.4093,-0.4124,-0.4135,-0.4135,-0.4135,-0.4131,-0.4131,-0.4131,-0.4131,-0.4131,-0.4131,-0.4131,-0.4131,-0.4131,-0.4148,-0.4166,-0.4142,-0.4152,-0.4166,-0.4142,-0.4131,-0.4131,-0.4131,-0.4131,-0.4131,-0.4131,-0.4131,-0.4131,-0.4131,-0.4131,-0.4121,-0.409,-0.4058,-0.4016,-0.3949,0.0,0.0,0.0,0.0,0.0,0.0,-0.3712,-0.3705,0.0,0.0,0.0,0.0,0.0,-0.3775,-0.3859,-0.3949,-0.4009,-0.4041,-0.4099,-0.4114,-0.4086,-0.4117,-0.4131,-0.4131,-0.4131,-0.4131,-0.4131,-0.4128,-0.411,-0.4341,-0.4371,-0.6158,-0.8913,-1.1277,-1.4131,-1.695,-1.9255,-2.0285,-2.0539,0.0,0.0,-0.7306,-0.733,-0.7885,-0.8175,-0.8188,-0.8224,-0.8251,-0.8251,-0.8251,-0.8251,-0.8251,-0.8251,-0.7993,-0.7481,-0.7223,-0.669,-0.5374,-0.5135,-0.4877,-0.4086,-0.4079,-0.405,-0.3994,-0.3994,-0.3978,-0.3938,-0.3943,-0.3918,-0.3873,-0.3866,-0.3859,-0.3848,-0.3855,-0.3876,-0.3904,-0.3911,-0.3947,-0.3998,-0.4026,-0.4072,-0.4124,-0.4152,-0.4162,-0.4162,-0.4162,-0.4148,-0.4131,-0.4131,-0.4131,-0.4131,-0.4131,-0.4131,-0.4131,-0.4131,-0.4135,-0.4146,-0.4159,-0.4152,-0.4146,-0.4159,-0.4148,-0.4131,-0.4131,-0.4131,-0.4131,-0.4131,-0.4131,-0.4131,-0.4131,-0.4131,-0.4113,-0.4061,-0.4026,-0.397,-0.3862,-0.3831,0.0,0.0,-0.3764,-0.3786,-0.3786,-0.3771,-0.3764,0.0,0.0,0.0,0.0,-0.3835,-0.3873,-0.3893,-0.396,-0.4009,-0.4041,-0.4079,-0.4093,-0.4086,-0.4117,-0.4131,-0.4131,-0.4131,-0.4131,-0.4131,-0.4106,-0.5113,-0.7137,-0.7149,-0.9936,-1.4243,-1.2813,-1.5158,-1.9255,-1.7975,-1.8746,-2.0539,-0.7052,-0.7335,-0.7616,-0.7641,-0.7925,-0.8202,-0.8202,-0.8232,-0.8251,-0.8251,-0.8251,-0.8251,-0.8251,-0.8251,-0.7993,-0.6706,-0.6706,-0.618,-0.513,-0.4893,-0.4641,-0.4106,-0.4106,-0.4086,-0.4037,-0.4037,-0.4023,-0.3992,-0.4009,-0.3998,-0.3967,-0.3953,-0.3943,-0.3938,-0.3911,-0.3925,-0.3963,-0.3936,-0.396,-0.4016,-0.4034,-0.4068,-0.4114,-0.4142,-0.4155,-0.4155,-0.4155,-0.4146,-0.4131,-0.4131,-0.4131,-0.4131,-0.4131,-0.4131,-0.4131,-0.4131,-0.4148,-0.4173,-0.4191,-0.4193,-0.4191,-0.4177,-0.4162,-0.4148,-0.4135,-0.4131,-0.4131,-0.4131,-0.4131,-0.4131,-0.4131,-0.4131,-0.411,-0.405,-0.4003,-0.3938,-0.3831,-0.3793,0.0,-0.3768,-0.3795,-0.3835,-0.3873,-0.3848,-0.3835,-0.3835,0.0,0.0,-0.3795,-0.388,-0.3932,-0.3947,-0.3992,-0.4023,-0.4041,-0.4058,-0.4072,-0.4086,-0.4117,-0.4131,-0.4131,-0.4131,-0.4124,-0.411,-0.4093,-0.56,-0.8112,-0.8139,-1.1444,-1.6271,-1.4858,-1.6689,-2.0278,-1.8746,-1.9267,-2.0539,-0.8076,-0.8131,-0.8183,-0.8232,-0.8245,-0.8251,-0.8251,-0.8251,-0.8251,-0.8251,-0.8251,-0.8251,-0.8251,-0.8251,-0.7733,-0.6448,-0.619,-0.5931,-0.5161,-0.439,-0.4131,-0.4131,-0.4131,-0.4117,-0.4086,-0.4086,-0.4072,-0.4041,-0.405,-0.405,-0.4041,-0.4019,-0.4019,-0.4037,-0.3988,-0.3992,-0.4037,-0.3985,-0.3992,-0.4041,-0.4043,-0.4061,-0.409,-0.4121,-0.4135,-0.4137,-0.4131,-0.4135,-0.4137,-0.4131,-0.4131,-0.4131,-0.4131,-0.4131,-0.4131,-0.4135,-0.4177,-0.4218,-0.4218,-0.4236,-0.4242,-0.4187,-0.417,-0.4159,-0.4137,-0.4131,-0.4131,-0.4131,-0.4131,-0.4131,-0.4131,-0.4131,-0.411,-0.405,-0.3985,-0.3911,-0.3824,0.0,-0.375,-0.3803,-0.382,-0.3862,-0.3949,-0.3925,-0.39,-0.3887,-0.3876,-0.3855,0.0,-0.3907,-0.3974,-0.4003,-0.4026,-0.4041,-0.4041,-0.4041,-0.4054,-0.4086,-0.4117,-0.4131,-0.4131,-0.4131,-0.4114,-0.4086,-0.4086,-0.5841,-0.8814,-0.8883,-1.1947,-1.7034,-1.6911,-1.8497,-2.0539,-2.0539,-2.0539,-2.0539,-0.7367,-0.7649,-0.8166,-0.8183,-0.8215,-0.8251,-0.8251,-0.8251,-0.8251,-0.8251,-0.8251,-0.7993,-0.7481,-0.7993,-0.7733,-0.6448,-0.619,-0.5677,-0.439,-0.4131,-0.4131,-0.4131,-0.4131,-0.4117,-0.4086,-0.4086,-0.4072,-0.4041,-0.4093,-0.409,-0.4041,-0.4061,-0.4061,-0.4041,-0.403,-0.403,-0.4041,-0.403,-0.4034,-0.4043,-0.4068,-0.4082,-0.409,-0.4121,-0.4146,-0.4162,-0.4137,-0.4146,-0.4162,-0.4137,-0.4131,-0.4131,-0.4131,-0.4131,-0.4135,-0.4159,-0.4191,-0.4218,-0.4218,-0.4222,-0.4218,-0.4184,-0.4155,-0.4137,-0.4131,-0.4131,-0.4131,-0.4131,-0.4131,-0.4131,-0.4131,-0.4131,-0.411,-0.405,-0.3967,-0.388,-0.3793,0.0,-0.3768,-0.3779,-0.3844,-0.3915,-0.3981,-0.3936,-0.3936,-0.4005,-0.3963,-0.3953,-0.3994,-0.4016,-0.403,-0.4034,-0.4037,-0.4041,-0.4041,-0.4041,-0.4054,-0.4086,-0.4117,-0.4131,-0.4131,-0.4131,-0.4114,-0.4086,-0.4086,-0.6853,-1.1569,-1.1659,-1.4735,-1.9826,-1.9724,-2.0024,-2.0539,-2.0539,-2.0539,-2.0539,-0.7644,-0.7912,-0.8175,-0.821,-0.821,-0.8215,-0.8245,-0.8251,-0.8251,-0.8251,-0.8251,-0.8251,-0.7733,-0.7993,-0.7993,-0.6706,-0.6448,-0.5673,-0.4644,-0.4389,-0.4131,-0.4131,-0.4131,-0.4131,-0.4131,-0.4117,-0.411,-0.411,-0.4124,-0.4117,-0.409,-0.4103,-0.4103,-0.409,-0.4072,-0.4075,-0.409,-0.4072,-0.4075,-0.409,-0.4103,-0.411,-0.4114,-0.4142,-0.4162,-0.4173,-0.4159,-0.4162,-0.417,-0.4142,-0.4131,-0.4131,-0.4131,-0.4131,-0.4135,-0.4146,-0.4193,-0.4247,-0.4264,-0.4257,-0.4236,-0.4204,-0.4177,-0.4148,-0.4135,-0.4131,-0.4131,-0.4131,-0.4131,-0.4131,-0.4131,-0.4131,-0.411,-0.405,-0.3949,0.0,0.0,-0.3782,-0.3788,-0.3838,-0.3922,-0.4003,-0.4061,-0.4012,-0.4003,-0.4061,-0.3994,-0.397,-0.4012,-0.403,-0.4034,-0.4016,-0.4034,-0.4034,-0.4016,-0.4048,-0.4065,-0.4061,-0.411,-0.4131,-0.4131,-0.4114,-0.409,-0.4061,-0.4061,-0.7078,-1.2078,-1.2164,-1.5529,-2.0451,-2.0526,-2.0539,-2.0539,-2.0539,-2.0539,-2.0526,-0.8183,-0.8188,-0.8202,-0.8245,-0.8215,-0.8202,-0.8245,-0.8251,-0.8251,-0.8251,-0.8251,-0.8251,-0.7993,-0.8251,-0.7999,-0.7242,-0.6712,-0.5937,-0.5433,-0.4651,-0.4131,-0.4131,-0.4131,-0.4142,-0.4162,-0.4142,-0.4146,-0.4173,-0.4146,-0.4135,-0.4142,-0.4128,-0.4121,-0.4121,-0.4097,-0.4103,-0.4131,-0.4114,-0.4121,-0.4142,-0.4137,-0.4135,-0.4135,-0.4162,-0.4173,-0.4173,-0.4173,-0.4173,-0.417,-0.4142,-0.4131,-0.4131,-0.4131,-0.4135,-0.4137,-0.4135,-0.4191,-0.4257,-0.4281,-0.4271,-0.4247,-0.4215,-0.4187,-0.4159,-0.4135,-0.4131,-0.4131,-0.4131,-0.4131,-0.4131,-0.4131,-0.4131,-0.4113,-0.4061,0.0,0.0,0.0,-0.3827,-0.3842,-0.3915,-0.3994,-0.4065,-0.4124,-0.4075,-0.4058,-0.4103,-0.403,-0.3998,-0.4034,-0.4048,-0.4037,-0.4005,-0.4023,-0.4016,-0.3985,-0.4037,-0.4054,-0.403,-0.4086,-0.4113,-0.4121,-0.409,-0.4061,-0.4041,-0.4803,-0.7817,-1.2295,-1.2938,-1.6088,-2.0485,-2.0526,-2.0539,-2.0539,-2.0539,-2.0526,-2.0485,-0.8237,-0.8245,-0.8245,-0.8251,-0.8251,-0.8245,-0.8251,-0.8251,-0.8251,-0.8251,-0.8251,-0.7993,-0.7481,-0.7993,-0.802,-0.729,-0.6734,-0.6205,-0.6252,-0.4923,-0.4131,-0.4131,-0.4131,-0.4131,-0.4135,-0.4131,-0.4146,-0.4173,-0.4146,-0.4146,-0.417,-0.4114,-0.409,-0.409,-0.4086,-0.4103,-0.4131,-0.4155,-0.417,-0.417,-0.417,-0.4155,-0.4135,-0.4162,-0.4173,-0.4173,-0.4173,-0.4173,-0.417,-0.4142,-0.4131,-0.4131,-0.4131,-0.4148,-0.4166,-0.4137,-0.4173,-0.4222,-0.4225,-0.4222,-0.4215,-0.4184,-0.4155,-0.4135,-0.4131,-0.4131,-0.4131,-0.4131,-0.4131,-0.4131,-0.4131,-0.4131,-0.4121,-0.409,0.0,0.0,-0.3943,-0.3938,-0.3949,-0.3985,-0.4019,-0.4065,-0.4124,-0.4075,-0.4075,-0.4159,-0.411,-0.4099,-0.4155,-0.411,-0.4068,-0.4037,-0.4012,-0.3985,-0.3953,-0.3985,-0.4003,-0.3998,-0.403,-0.4061,-0.409,-0.4058,-0.4043,-0.4041,-0.6853,-0.9336,-1.2224,-1.5012,-1.7644,-2.0363,-2.0485,-2.0539,-2.0539,-2.0539,-2.0451,-2.0363,-0.8245,-0.8224,-0.821,-0.8245,-0.8224,-0.821,-0.8245,-0.8251,-0.8251,-0.8251,-0.8251,-0.8251,-0.7993,-0.7741,-0.7488,-0.7254,-0.6201,-0.5682,-0.5697,-0.4651,-0.4131,-0.4131,-0.4131,-0.4148,-0.4184,-0.4166,-0.4173,-0.4202,-0.4191,-0.4162,-0.4121,-0.4152,-0.4137,-0.4086,-0.4124,-0.4137,-0.4135,-0.4162,-0.4162,-0.4148,-0.4166,-0.4166,-0.4159,-0.4191,-0.4202,-0.4202,-0.4202,-0.4191,-0.417,-0.4142,-0.4131,-0.4131,-0.4131,-0.4152,-0.4173,-0.4184,-0.4202,-0.4215,-0.4193,-0.4204,-0.4211,-0.418,-0.4152,-0.4135,-0.4152,-0.4155,-0.4155,-0.4155,-0.4173,-0.418,-0.4159,-0.4155,-0.4152,-0.4142,0.0,-0.3998,-0.4005,-0.3988,-0.3988,-0.4019,-0.4068,-0.4106,-0.4128,-0.411,-0.411,-0.4146,-0.4093,-0.4075,-0.4117,-0.4079,-0.4043,-0.4012,-0.4003,-0.3988,-0.3978,-0.4009,-0.4012,-0.3994,-0.4026,-0.4048,-0.4058,-0.4026,-0.4012,-0.4263,-0.6777,-0.9507,-1.2199,-1.5123,-1.7762,-2.0329,-2.0383,-2.0471,-2.0539,-2.0539,-2.0505,-2.0438,-0.8251,-0.8224,-0.821,-0.8245,-0.8215,-0.821,-0.8245,-0.8251,-0.8251,-0.8251,-0.8264,-0.8278,-0.8278,-0.7767,-0.7254,-0.7273,-0.5962,-0.5178,-0.5178,-0.4393,-0.4131,-0.4131,-0.4131,-0.4148,-0.4191,-0.418,-0.4184,-0.4204,-0.4215,-0.4177,-0.4099,-0.4162,-0.4148,-0.4075,-0.4124,-0.4137,-0.4131,-0.4159,-0.4162,-0.4146,-0.4166,-0.4166,-0.4162,-0.4193,-0.4197,-0.4191,-0.4202,-0.4184,-0.4155,-0.4137,-0.4131,-0.4131,-0.4131,-0.4152,-0.4184,-0.4233,-0.4233,-0.4215,-0.4193,-0.4193,-0.4197,-0.4177,-0.4152,-0.4142,-0.418,-0.418,-0.4177,-0.4187,-0.4204,-0.4211,-0.4191,-0.4187,-0.4184,-0.4173,-0.4103,-0.4054,-0.4068,-0.405,-0.4043,-0.4065,-0.4106,-0.4131,-0.4131,-0.4137,-0.4146,-0.4146,-0.4106,-0.4082,-0.4086,-0.4048,-0.4016,-0.3994,-0.3985,-0.3981,-0.3981,-0.4003,-0.4003,-0.3981,-0.4003,-0.4016,-0.4026,-0.3994,-0.3985,-0.4245,-0.7722,-1.0189,-1.2158,-1.581,-1.8442,-2.0261,-2.0363,-2.0451,-2.0539,-2.0539,-2.0505,-2.0451,-0.8251,-0.8251,-0.8251,-0.8251,-0.8251,-0.8251,-0.8251,-0.8251,-0.8251,-0.8251,-0.8308,-0.8341,-0.8341,-0.7565,-0.7321,-0.7376,-0.6027,-0.5217,-0.5217,-0.4664,-0.4131,-0.4131,-0.4131,-0.4131,-0.4131,-0.4159,-0.4173,-0.4173,-0.4204,-0.4187,-0.4128,-0.4128,-0.4097,-0.4041,-0.4072,-0.4099,-0.4128,-0.4159,-0.4173,-0.4173,-0.4173,-0.4155,-0.4135,-0.4162,-0.4155,-0.4135,-0.4162,-0.4155,-0.4131,-0.4131,-0.4131,-0.4131,-0.4131,-0.4152,-0.4191,-0.4281,-0.4267,-0.4218,-0.4218,-0.4197,-0.4173,-0.4173,-0.4152,-0.4146,-0.4204,-0.4193,-0.4184,-0.4211,-0.4218,-0.4218,-0.4218,-0.4218,-0.4208,-0.418,-0.4173,-0.4162,-0.4135,-0.4131,-0.4131,-0.4131,-0.4131,-0.4131,-0.4131,-0.4155,-0.4173,-0.4173,-0.4173,-0.4146,-0.409,-0.4026,-0.3994,-0.3994,-0.3967,-0.3949,-0.3949,-0.3949,-0.3949,-0.3949,-0.3949,-0.3967,-0.3994,-0.3963,-0.3967,-0.4245,-0.9707,-1.1878,-1.232,-1.7881,-2.0241,-2.0139,-2.0417,-2.0539,-2.0539,-2.0539,-2.0451,-2.0349,-0.8251,-0.8251,-0.8251,-0.8251,-0.8251,-0.8264,-0.8308,-0.8278,-0.8281,-0.8371,-0.8357,-0.8081,-0.7565,-0.7041,-0.6512,-0.5976,-0.4927,-0.4405,-0.4405,-0.4135,-0.4131,-0.4131,-0.4131,-0.4152,-0.4191,-0.4202,-0.4215,-0.4236,-0.4247,-0.4197,-0.4099,-0.4142,-0.4106,-0.4012,-0.4086,-0.411,-0.4099,-0.4131,-0.4155,-0.4173,-0.4152,-0.4162,-0.4191,-0.4177,-0.417,-0.4162,-0.417,-0.4155,-0.4131,-0.4131,-0.4131,-0.4135,-0.4155,-0.418,-0.4215,-0.4264,-0.4249,-0.4218,-0.4218,-0.4184,-0.4146,-0.4146,-0.4137,-0.4146,-0.4204,-0.4211,-0.4215,-0.4242,-0.4267,-0.4274,-0.4253,-0.4249,-0.4247,-0.424,-0.4202,-0.417,-0.4162,-0.4146,-0.4131,-0.4131,-0.4131,-0.4131,-0.4131,-0.4137,-0.4152,-0.4173,-0.4135,-0.4086,-0.4026,-0.3985,-0.3963,-0.3963,-0.3953,-0.3949,-0.3949,-0.3949,-0.3949,-0.3949,-0.3949,-0.3953,-0.3963,-0.3953,-0.3953,-0.4212,-0.963,-1.1825,-1.2307,-1.7676,-1.9976,-1.9963,-2.0153,-2.0227,-2.0241,-2.0349,-2.0363,-2.0329,-0.8251,-0.8251,-0.8251,-0.8251,-0.8251,-0.8264,-0.83,-0.8294,-0.8314,-0.7866,-0.7866,-0.7602,-0.7099,-0.6278,-0.5735,-0.5205,-0.4664,-0.4142,-0.4162,-0.4155,-0.4148,-0.4148,-0.4148,-0.4162,-0.4202,-0.4211,-0.4222,-0.4229,-0.424,-0.4184,-0.4068,-0.4142,-0.4117,-0.4016,-0.4097,-0.4114,-0.4086,-0.4106,-0.4124,-0.4137,-0.4121,-0.4148,-0.4197,-0.4166,-0.4162,-0.4173,-0.4173,-0.4155,-0.4131,-0.4146,-0.4142,-0.4135,-0.4162,-0.4193,-0.4222,-0.424,-0.4233,-0.4215,-0.4204,-0.4166,-0.4131,-0.4131,-0.4131,-0.4148,-0.4222,-0.4225,-0.4229,-0.4274,-0.4296,-0.4302,-0.4285,-0.4281,-0.4274,-0.4249,-0.4226,-0.4197,-0.4162,-0.4152,-0.4146,-0.4131,-0.4131,-0.4131,-0.4131,-0.4142,-0.4155,-0.4173,-0.4117,-0.4065,-0.4016,-0.3985,-0.3963,-0.3949,-0.3949,-0.3949,-0.3949,-0.3949,-0.3949,-0.3949,-0.3949,-0.3949,-0.3949,-0.3949,-0.4447,-0.5696,-1.0133,-1.2591,-1.3825,-1.8151,-1.9929,-1.9888,-2.0051,-2.0098,-2.0119,-2.0207,-2.0241,-2.0241,-0.8251,-0.8259,-0.8259,-0.8259,-0.8259,-0.8259,-0.8264,-0.8308,-0.8086,-0.7316,-0.7357,-0.7136,-0.6389,-0.5793,-0.5239,-0.5265,-0.4423,-0.4155,-0.4211,-0.4187,-0.4173,-0.417,-0.4173,-0.4177,-0.4173,-0.4202,-0.4202,-0.4177,-0.4202,-0.4152,-0.4048,-0.4124,-0.4117,-0.4043,-0.4099,-0.411,-0.4086,-0.4086,-0.409,-0.4093,-0.409,-0.4124,-0.417,-0.4146,-0.4152,-0.4173,-0.4173,-0.4155,-0.4137,-0.4162,-0.4152,-0.4135,-0.4162,-0.4191,-0.4218,-0.4218,-0.4218,-0.4211,-0.4184,-0.4155,-0.4131,-0.4131,-0.4131,-0.4152,-0.424,-0.424,-0.424,-0.4298,-0.4309,-0.4309,-0.4309,-0.4309,-0.4292,-0.4236,-0.4247,-0.4233,-0.4155,-0.4159,-0.4159,-0.4137,-0.4131,-0.4131,-0.4131,-0.4155,-0.4173,-0.417,-0.4117,-0.4072,-0.4041,-0.4009,-0.3978,-0.3949,-0.3949,-0.3949,-0.3949,-0.3949,-0.3949,-0.3949,-0.3949,-0.3949,-0.3949,-0.3949,-0.5199,-0.7965,-1.0681,-1.3411,-1.5896,-1.8758,-1.9997,-1.9875,-2.001,-2.0064,-2.0064,-2.0085,-2.0085,-2.0098,-0.8259,-0.8286,-0.8322,-0.8322,-0.8322,-0.8335,-0.8384,-0.7846,-0.7595,-0.7412,-0.6872,-0.6342,-0.5589,-0.5314,-0.5018,-0.445,-0.4152,-0.4146,-0.418,-0.4177,-0.4162,-0.4142,-0.4184,-0.4197,-0.4173,-0.418,-0.4191,-0.4208,-0.4169,-0.4124,-0.4075,-0.4072,-0.4058,-0.4041,-0.4054,-0.4068,-0.4086,-0.4086,-0.4114,-0.4152,-0.4131,-0.4142,-0.4173,-0.4166,-0.4166,-0.4173,-0.4173,-0.417,-0.4162,-0.4146,-0.4135,-0.4131,-0.4137,-0.4177,-0.4218,-0.4218,-0.4218,-0.4218,-0.4211,-0.4169,-0.4131,-0.4131,-0.4131,-0.4148,-0.4215,-0.4242,-0.4264,-0.4302,-0.4309,-0.4309,-0.4309,-0.4309,-0.4305,-0.4292,-0.4253,-0.4229,-0.4236,-0.418,-0.4146,-0.4162,-0.4146,-0.4131,-0.4131,-0.4155,-0.4162,-0.4142,-0.4106,-0.4072,-0.4041,-0.3988,-0.3956,-0.3949,-0.3949,-0.3949,-0.3949,-0.3949,-0.3949,-0.3949,-0.3949,-0.3949,-0.3949,-0.3949,-0.42,-0.5194,-0.987,-1.2074,-1.3065,-1.7868,-1.9841,-1.9712,-1.9875,-1.9854,-1.9766,-1.9875,-1.9922,-1.9963,-0.8335,-0.8344,-0.8349,-0.8376,-0.8363,-0.8357,-0.8384,-0.7864,-0.7357,-0.6883,-0.6356,-0.558,-0.4817,-0.4789,-0.4762,-0.4218,-0.4177,-0.4162,-0.4193,-0.418,-0.4166,-0.4152,-0.418,-0.4197,-0.4193,-0.418,-0.4187,-0.4218,-0.4187,-0.4155,-0.4128,-0.4097,-0.4082,-0.4082,-0.4068,-0.4072,-0.4086,-0.4086,-0.4103,-0.4131,-0.4114,-0.4135,-0.4173,-0.4173,-0.4184,-0.4193,-0.4193,-0.4187,-0.417,-0.4142,-0.4131,-0.4131,-0.4131,-0.4162,-0.4193,-0.418,-0.4187,-0.4193,-0.418,-0.4155,-0.4131,-0.4131,-0.4142,-0.4162,-0.4208,-0.4233,-0.4253,-0.4298,-0.4309,-0.4309,-0.4309,-0.4309,-0.4298,-0.4271,-0.4264,-0.4253,-0.4226,-0.4193,-0.4177,-0.4193,-0.4155,-0.4131,-0.4131,-0.4146,-0.4148,-0.4131,-0.4103,-0.4072,-0.4041,-0.3994,-0.3963,-0.3949,-0.3949,-0.3949,-0.3949,-0.3949,-0.3949,-0.3949,-0.3949,-0.3949,-0.3949,-0.3949,-0.5437,-0.7924,-1.0633,-1.3338,-1.5815,-1.8839,-1.9786,-1.9664,-1.9752,-1.9732,-1.9678,-1.9752,-1.9854,-1.9997,-0.8412,-0.839,-0.8376,-0.8425,-0.839,-0.8357,-0.8094,-0.7622,-0.6865,-0.6335,-0.5575,-0.4809,-0.4305,-0.426,-0.424,-0.4267,-0.4211,-0.4187,-0.4215,-0.4191,-0.417,-0.4166,-0.417,-0.4184,-0.4211,-0.4187,-0.4187,-0.4211,-0.4211,-0.4193,-0.4166,-0.4142,-0.4131,-0.4128,-0.4099,-0.4086,-0.4086,-0.4079,-0.4082,-0.4086,-0.4086,-0.4121,-0.4173,-0.4173,-0.4191,-0.4218,-0.4211,-0.4191,-0.4162,-0.4137,-0.4131,-0.4131,-0.4131,-0.4155,-0.4177,-0.4146,-0.4159,-0.4173,-0.4146,-0.4135,-0.4131,-0.4131,-0.4148,-0.4177,-0.4211,-0.4222,-0.424,-0.4292,-0.4305,-0.4309,-0.4309,-0.4309,-0.4292,-0.4236,-0.4267,-0.4274,-0.4191,-0.4197,-0.4211,-0.4211,-0.4162,-0.4131,-0.4131,-0.4131,-0.4131,-0.4131,-0.4099,-0.4068,-0.4041,-0.4005,-0.3974,-0.3949,-0.3949,-0.3949,-0.3949,-0.3949,-0.3949,-0.3949,-0.4447,-0.4447,-0.3949,-0.4447,-0.7177,-1.142,-1.217,-1.514,-1.9097,-1.9588,-1.9766,-1.9664,-1.9664,-1.9664,-1.9664,-1.9894,-2.0059,-2.0526,-0.8439,-0.8425,-0.8425,-0.8433,-0.8425,-0.8154,-0.7634,-0.6887,-0.6383,-0.5589,-0.4794,-0.4274,-0.4305,-0.4278,-0.4271,-0.4298,-0.4222,-0.4187,-0.4215,-0.4191,-0.4162,-0.4137,-0.4159,-0.4177,-0.418,-0.4177,-0.4177,-0.418,-0.418,-0.4166,-0.4137,-0.4131,-0.4128,-0.4128,-0.4099,-0.4086,-0.4086,-0.4058,-0.4061,-0.4086,-0.4086,-0.4121,-0.4173,-0.4173,-0.4191,-0.4215,-0.4187,-0.4162,-0.4135,-0.4131,-0.4131,-0.4131,-0.4131,-0.4169,-0.4208,-0.4177,-0.4187,-0.4204,-0.4177,-0.4148,-0.4131,-0.4131,-0.4135,-0.4152,-0.4204,-0.424,-0.426,-0.4267,-0.4292,-0.4309,-0.4309,-0.4309,-0.4298,-0.4264,-0.4264,-0.4257,-0.4218,-0.4193,-0.418,-0.418,-0.4152,-0.4131,-0.4131,-0.4131,-0.4131,-0.4131,-0.4079,-0.4043,-0.4041,-0.3988,-0.3953,-0.3949,-0.3949,-0.3949,-0.3949,-0.3949,-0.3949,-0.3949,-0.6451,-0.6203,-0.3949,-0.6451,-0.7938,-0.863,-1.3384,-1.559,-1.6488,-1.871,-1.9678,-1.9664,-1.9664,-1.9664,-1.9908,-2.0865,-2.1365,-2.1667,-0.8523,-0.851,-0.8496,-0.8532,-0.8504,-0.8215,-0.7426,-0.6909,-0.6127,-0.5331,-0.4812,-0.4296,-0.4309,-0.4281,-0.4271,-0.4281,-0.4215,-0.418,-0.4191,-0.4166,-0.4146,-0.4131,-0.4142,-0.4148,-0.4148,-0.4166,-0.4173,-0.4173,-0.4191,-0.4191,-0.418,-0.4146,-0.4137,-0.4152,-0.4106,-0.4097,-0.411,-0.4114,-0.4121,-0.4135,-0.4152,-0.4177,-0.4197,-0.4197,-0.4208,-0.4215,-0.4184,-0.4155,-0.4131,-0.4131,-0.4131,-0.4131,-0.4131,-0.4159,-0.4187,-0.4159,-0.417,-0.4187,-0.4159,-0.4142,-0.4131,-0.4131,-0.4131,-0.4137,-0.4162,-0.4204,-0.4249,-0.4281,-0.4298,-0.4309,-0.4309,-0.4309,-0.4298,-0.4267,-0.4278,-0.4278,-0.4247,-0.4218,-0.4187,-0.4152,-0.4152,-0.4148,-0.4131,-0.4131,-0.4131,-0.4131,-0.409,-0.4058,-0.4041,-0.3998,-0.3967,-0.3949,-0.3949,-0.3949,-0.3949,-0.5446,-0.6203,-0.6203,-0.8989,-0.8965,-0.6165,-0.8934,-1.0902,-1.2299,-1.4796,-1.6505,-1.7947,-1.9158,-1.9664,-1.9664,-1.9664,-1.9664,-1.9908,-2.1093,-2.1637,-2.1971]}]]